[[[{"header":{"parameterUnit":"kt","parameterCategory":2,"dx":1,"dy":1,"la1":29.587661999999998,"la2":31.0,"lo1":-88.76705300000003,"lo2":-86.6583820000003,"nx":115,"ny":88,"refTime":"2022-10-31T18:00:00:Z","depth":0,"parameterNumber":1,"parameterNumberName":"U-component_of_WINDS"},"data":[0.4463,0.4463,0.4463,0.4463,0.4463,0.4463,0.4463,0.4463,0.4463,0.4463,0.4463,0.4463,0.4463,0.4463,0.4463,0.4463,0.4463,0.4463,0.4463,0.4463,0.4463,0.4463,0.4463,0.4463,0.4463,0.4463,0.4474,0.4536,0.4696,0.4717,0.4695,0.4574,0.4581,0.4581,0.4581,0.4658,0.4581,0.4887,0.4887,0.4658,0.4734,0.4276,0.4047,0.3971,0.4123,0.4276,0.4429,0.4429,0.4429,0.4429,0.4429,0.4505,0.4581,0.4658,0.481,0.4887,0.4863,0.4863,0.4839,0.4807,0.4762,0.4818,0.4791,0.4669,0.456,0.4606,0.4521,0.4489,0.4484,0.4474,0.4471,0.4395,0.4463,0.4463,0.4463,0.4463,0.4463,0.4463,0.4463,0.4463,0.4463,0.4534,0.4676,0.5664,0.5664,0.6795,0.8205,0.9617,1.0353,1.2734,1.5463,1.7168,1.8734,2.0452,2.2014,2.2434,2.2534,2.2477,2.2451,2.2336,2.2217,2.2165,2.2099,2.2033,2.1929,2.1717,2.1505,2.1387,2.132,2.1532,2.1691,2.177,2.1756,2.1756,2.1822,0.4463,0.4463,0.4463,0.4463,0.4463,0.4463,0.4463,0.4463,0.4463,0.4463,0.4322,0.4322,0.4463,0.4463,0.4463,0.4463,0.4322,0.4109,0.4251,0.4322,0.4251,0.4109,0.4109,0.4322,0.418,0.418,0.4185,0.4325,0.4415,0.4361,0.4102,0.3875,0.3818,0.3818,0.3818,0.3894,0.4047,0.4429,0.4429,0.4276,0.3738,0.3205,0.297,0.2819,0.2748,0.2824,0.2824,0.29,0.2899,0.3124,0.3497,0.3723,0.3951,0.425,0.4483,0.4549,0.4527,0.4514,0.4574,0.4459,0.4486,0.4521,0.4718,0.4611,0.4495,0.4408,0.4408,0.4327,0.4327,0.4324,0.4324,0.4322,0.4392,0.4392,0.4392,0.4392,0.4392,0.4463,0.4463,0.4463,0.4534,0.4605,0.5664,0.7427,0.8275,0.9193,1.0528,1.2001,1.3689,1.5866,1.7629,1.9111,2.0172,2.0941,2.2198,2.2521,2.2468,2.2428,2.223,2.2046,2.1901,2.1835,2.1769,2.1716,2.1584,2.132,2.1163,2.1071,2.1347,2.1598,2.1717,2.1823,2.1795,2.1874,2.194,0.418,0.4463,0.4463,0.4463,0.4463,0.4463,0.4463,0.4463,0.4463,0.4038,0.3332,0.3261,0.3261,0.3261,0.3261,0.319,0.319,0.3332,0.3403,0.3332,0.319,0.3332,0.3261,0.319,0.3332,0.3261,0.3338,0.3371,0.323,0.3332,0.344,0.3119,0.3053,0.3053,0.3053,0.3053,0.3207,0.3585,0.3436,0.3028,0.2241,0.2391,0.2393,0.2094,0.2169,0.2616,0.2544,0.2543,0.2544,0.2694,0.2772,0.2922,0.3148,0.345,0.3596,0.3662,0.3652,0.3562,0.3476,0.3377,0.3272,0.3254,0.3309,0.3866,0.3757,0.3403,0.3403,0.3545,0.3545,0.3545,0.3545,0.3615,0.3615,0.3897,0.3968,0.418,0.4322,0.4463,0.4676,0.4888,0.5451,0.5805,0.7569,0.9334,1.0457,1.1444,1.426,1.5946,1.6998,1.8621,1.9892,2.1093,2.1525,2.2294,2.2415,2.2323,2.231,2.2207,2.2021,2.1902,2.1743,2.1584,2.1373,2.1387,2.1215,2.1058,2.0979,2.0913,2.1123,2.1506,2.1691,2.1822,2.1914,2.1993,2.2019,0.3543,0.397,0.397,0.3968,0.397,0.3968,0.3968,0.3968,0.3968,0.3332,0.2483,0.2341,0.2412,0.2483,0.2554,0.2554,0.2483,0.2623,0.2341,0.2483,0.2483,0.2625,0.2412,0.2552,0.2483,0.2341,0.2348,0.2509,0.2555,0.2517,0.2399,0.2191,0.2189,0.2186,0.2187,0.2187,0.2413,0.2787,0.2334,0.1495,0.111,0.1474,0.1693,0.14,0.1253,0.1698,0.1771,0.1843,0.1842,0.0,0.0,0.2059,0.2206,0.243,0.2577,0.2574,0.2645,0.2712,0.2701,0.2681,0.2663,0.2506,0.2499,0.2771,0.2765,0.234,0.2199,0.2341,0.2412,0.2412,0.2483,0.2483,0.2625,0.3048,0.3401,0.3755,0.418,0.4534,0.4888,0.5664,0.6583,0.7993,0.9899,1.1303,1.2501,1.4611,1.7359,1.9122,1.9962,2.0286,2.1469,2.1696,2.2303,2.2323,2.2207,2.2088,2.2061,2.1929,2.1757,2.1637,2.1598,2.1373,2.1097,2.1018,2.0992,2.0913,2.0847,2.0859,2.1031,2.1307,2.1571,2.1967,2.2112,2.2059,2.2072,0.2481,0.2551,0.2483,0.2619,0.2481,0.2622,0.2549,0.2483,0.2476,0.241,0.2266,0.2267,0.2122,0.1974,0.1975,0.1976,0.1974,0.1974,0.1902,0.2267,0.1975,0.1974,0.1975,0.2267,0.1901,0.2122,0.22,0.1847,0.2094,0.198,0.1627,0.1328,0.1332,0.1336,0.1337,0.1337,0.1556,0.1775,0.1106,0.0,0.0,0.0,0.0221,0.0,0.0,0.0,0.0,0.0,0.0,0.0,0.0,0.0,0.1321,0.1833,0.22,0.227,0.2106,0.2028,0.1948,0.1935,0.1996,0.2063,0.2271,0.2199,0.1914,0.1561,0.1561,0.1703,0.1632,0.1703,0.1703,0.1703,0.1915,0.2269,0.2834,0.3401,0.4251,0.531,0.6088,0.7569,0.884,1.1233,1.2993,1.4119,1.5384,1.7499,1.9752,2.1303,2.1868,2.1675,2.2024,2.1946,2.2072,2.1927,2.185,2.1729,2.1757,2.1651,2.1426,2.1347,2.1307,2.1058,2.0821,2.0847,2.0938,2.0859,2.0872,2.0926,2.1058,2.1307,2.1571,2.2059,2.2204,2.2112,2.2019,0.1939,0.2286,0.2285,0.2285,0.2289,0.2305,0.1743,0.0971,0.0901,0.09,0.09,0.0,0.09,0.0,0.0,0.0,0.0,0.0,0.0,0.0,0.083,0.0,0.0,0.09,0.0,0.09,0.0902,0.0,0.0858,0.0872,0.0,0.0,0.0442,0.0442,0.0,0.0,0.0,0.0,0.0,0.0,0.0,0.0,0.0,0.0,0.0,0.0,0.0,0.0,0.0,0.0,0.0,0.0,0.0,0.0,0.0,0.0,0.0,0.0,0.0,0.0,0.0,0.0851,0.0851,0.0,0.0,0.0,0.0,0.0,0.0,0.0,0.0,0.0993,0.1276,0.1631,0.2338,0.3047,0.4463,0.5876,0.771,0.9405,1.1585,1.4049,1.5876,1.7068,1.848,1.9857,2.1393,2.2411,2.2336,2.2099,2.194,2.1874,2.1729,2.1625,2.1505,2.1373,2.1334,2.1215,2.1058,2.1031,2.0939,2.0847,2.0808,2.0846,2.0833,2.0833,2.0833,2.0939,2.1084,2.1215,2.1413,2.1729,2.1942,2.1861,2.1716,0.1159,0.1636,0.1636,0.1704,0.1638,0.1646,0.1029,0.0,0.0,0.0,0.0,0.0,0.0,0.0,0.0,0.0,0.0,0.0,0.0,0.0,0.0,0.0,0.0,0.0,0.0,0.0,0.0,0.0,0.0,0.0,0.0,0.0,0.0,0.0,0.0,0.0,0.0,0.0,0.0,0.0,0.0,0.0,0.0,0.0,0.0,0.0,0.0,0.0,0.0,0.0,0.0,0.0,0.0,0.0,0.0,0.0,0.0,0.0,0.0,0.0,0.0,0.0,0.0,0.0,0.0,0.0,0.0,0.0,0.0,0.0,0.0,0.0,0.0559,0.168,0.3088,0.3942,0.5098,0.7074,1.0181,1.1874,1.3486,1.5946,1.8249,1.9357,1.9429,2.1141,2.2181,2.2227,2.2125,2.1795,2.1611,2.1558,2.1426,2.1242,2.111,2.1123,2.0966,2.0847,2.0912,2.0899,2.0886,2.0886,2.0846,2.0833,2.0833,2.0833,2.0846,2.0926,2.1097,2.115,2.1268,2.1479,2.1585,2.1479,2.1307,0.0,0.0068,0.0,0.0,0.0,0.0,0.0,0.0,0.0,0.0,0.0,0.0,0.0,0.0,0.0,0.0,0.0,0.0,0.0,0.0,0.0,0.0,0.0,0.0,0.0,0.0,0.0,0.0,0.0,0.0,0.0,0.0,0.0,0.0,0.0,0.0,0.0,0.0,0.0,0.0,0.0,0.0,0.0,0.0,0.0,0.0,0.0,0.0,0.0,0.0,0.0,0.0,0.0,0.0,0.0,0.0,0.0,0.0,0.0,0.0,0.0,0.0,0.0,0.0,0.0,0.0,0.0,0.0,0.0,0.0,0.0,0.0,0.062,0.2075,0.3819,0.5232,0.6326,0.8869,1.2092,1.3983,1.5503,1.7317,1.9498,2.0282,2.0126,2.1184,2.1249,2.1375,2.1315,2.1017,2.1044,2.0992,2.1084,2.0951,2.0925,2.0951,2.0859,2.0872,2.0846,2.0833,2.0833,2.0846,2.0833,2.0833,2.0833,2.0846,2.0795,2.0913,2.1058,2.1176,2.1281,2.1347,2.1189,2.1071,2.1071,0.0,0.0,0.0,0.0,0.0,0.0,0.0,0.0,0.0,0.0,0.0,0.0,0.0,0.0,0.0,0.0,0.0,0.0,0.0,0.0,0.0,0.0,0.0,0.0,0.0,0.0,0.0,0.0,0.0,0.0,0.0,0.0,0.0,0.0,0.0,0.0,0.0,0.0,0.0,0.0,0.0,0.0,0.0,0.0,0.0,0.0,0.0,0.0,0.0,0.0,0.0,0.0,0.0,0.0,0.0,0.0,0.0,0.0,0.0,0.0,0.0,0.0,0.0,0.0,0.0,0.0,0.0,0.0,0.0,0.0,0.0,0.0,0.294,0.3758,0.555,0.7603,0.9089,1.1637,1.4526,1.533,1.6687,1.8198,1.9833,2.0057,2.0132,2.023,2.027,2.0293,2.0326,2.0315,2.0341,2.0666,2.0847,2.0872,2.0859,2.0833,2.0833,2.0833,2.0833,2.0833,2.0833,2.0833,2.0833,2.0833,2.0833,2.0846,2.0808,2.0821,2.0874,2.1044,2.1176,2.1083,2.0886,2.0886,2.0938,0.0,0.0,0.0,0.0,0.0,0.0,0.0,0.0,0.0,0.0,0.0,0.0,0.0,0.0,0.0,0.0,0.0,0.0,0.0,0.0,0.0,0.0,0.0,0.0,0.0,0.0,0.0,0.0,0.0,0.0,0.0,0.0,0.0,0.0,0.0,0.0,0.0,0.0,0.0,0.0,0.0,0.0,0.0,0.0,0.0,0.0,0.0,0.0,0.0,0.0,0.0,0.0,0.0,0.0,0.0,0.0,0.0,0.0,0.0,0.0,0.0,0.0,0.0,0.0,0.0,0.0,0.0,0.0,0.0,0.0,0.1815,0.3963,0.5395,0.6271,0.8037,1.0066,1.1516,1.4156,1.5763,1.6436,1.7238,1.8654,1.8968,1.8878,1.8961,1.9039,1.8999,1.9028,1.9512,1.9645,1.9878,2.033,2.0704,2.0768,2.0833,2.0833,2.0833,2.0859,2.0859,2.0899,2.0859,2.0833,2.0846,2.0886,2.0859,2.0833,2.0846,2.0795,2.0846,2.0846,2.0925,2.0899,2.0846,2.0846,2.0846,0.0,0.0,0.0,0.0,0.0,0.0,0.0,0.0,0.0,0.0,0.0,0.0,0.0,0.0,0.0,0.0,0.0,0.0,0.0,0.0,0.0,0.0,0.0,0.0,0.0,0.0,0.0,0.0,0.0,0.0,0.0,0.0,0.0,0.0,0.0,0.0,0.0,0.0,0.0,0.0,0.0,0.0,0.0,0.0,0.0,0.0,0.0,0.0,0.0,0.0,0.0,0.0,0.0,0.0,0.0,0.0,0.0,0.0,0.0,0.0,0.0,0.0,0.0,0.0,0.0,0.0,0.0,0.0,0.2053,0.3481,0.4844,0.6418,0.7789,0.9213,1.1371,1.3126,1.3742,1.5457,1.6172,1.6818,1.768,1.8227,1.7881,1.7705,1.7948,1.7944,1.7702,1.8056,1.8727,1.9167,1.962,2.0059,2.0524,2.0692,2.09,2.0899,2.0899,2.0886,2.0938,2.1044,2.1057,2.107,2.1031,2.0938,2.0978,2.107,2.0978,2.0872,2.0925,2.0926,2.0925,2.0951,2.0808,2.0795,2.0846,0.0,0.0,0.0,0.0,0.0,0.0,0.0,0.0,0.0,0.0,0.0,0.0,0.0,0.0,0.0,0.0,0.0,0.0,0.0,0.0,0.0,0.0,0.0,0.0,0.0,0.0,0.0,0.0,0.0,0.0,0.0,0.0,0.0,0.0,0.0,0.0,0.0,0.0,0.0,0.0,0.0,0.0,0.0,0.0,0.0,0.0,0.0,0.0,0.0,0.0,0.0,0.0,0.0,0.0,0.0,0.0,0.0,0.0,0.0,0.0,0.0,0.0,0.0,0.0,0.0,0.0,0.0,0.0395,0.2558,0.4051,0.425,0.8478,1.1071,1.1615,1.3815,1.4891,1.5578,1.5825,1.6541,1.7003,1.7071,1.7345,1.7105,1.7181,1.7302,1.7269,1.7204,1.7474,1.8121,1.8574,1.9167,1.9722,2.0252,2.0679,2.1044,2.1097,2.1202,2.1202,2.1268,2.1321,2.1347,2.1532,2.1532,2.1387,2.1268,2.1307,2.1281,2.1228,2.1202,2.1097,2.1242,2.1321,2.1202,2.086,2.0886,-0.1569,-0.1567,-0.1486,-0.0901,0.0,0.0,0.0,0.0,0.0,0.0,0.0,0.0,0.0,0.0,0.0,0.0,0.0,0.0,0.0,0.0,0.0,0.0,0.0,0.0,0.0,0.0,0.0,0.0,0.0,0.0,0.0,0.0,0.0,0.0,0.0,0.0,0.0,0.0,0.0,0.0,0.0,0.0,0.0,0.0,0.0,0.0,0.0,0.0,0.0,0.0,0.0,0.0,0.0,0.0,0.0,0.0,0.0,0.0,0.0,0.0,0.0,0.0,0.0,0.0,0.0,0.0,0.0,0.2156,0.4244,0.6915,0.7375,1.1152,1.3953,1.4537,1.527,1.6124,1.6565,1.6466,1.6792,1.6834,1.676,1.6762,1.6762,1.6762,1.6762,1.6762,1.6762,1.6891,1.7409,1.7927,1.8668,1.9301,2.0014,2.0495,2.132,2.1453,2.1505,2.1638,2.1704,2.1664,2.1625,2.177,2.1836,2.177,2.1691,2.1571,2.1545,2.1558,2.1532,2.1466,2.1518,2.1598,2.1334,2.0952,2.086,-0.4429,-0.4615,-0.4305,-0.2698,0.0,0.0,0.0,0.0,0.0,0.0,0.0,0.0,0.0,0.0,0.0,0.0,0.0,0.0,0.0,0.0,0.0,0.0,0.0,0.0,0.0,0.0,0.0,0.0,0.0,0.0,0.0,0.0,0.0,0.0,0.0,0.0,0.0,0.0,0.0,0.0,0.0,0.0,0.0,0.0,0.0,0.0,0.0,0.0,0.0,0.0,0.0,0.0,0.0,0.0,0.0,0.0,0.0,0.0,0.0,0.0,0.0,0.0,0.0,0.0,0.0,0.0,0.0,0.4375,0.698,0.9324,1.1802,1.4676,1.5779,1.6103,1.6103,1.6762,1.6762,1.6762,1.6762,1.6762,1.6762,1.6762,1.6762,1.6762,1.6762,1.6762,1.6762,1.6762,1.7139,1.7616,1.8358,1.9106,1.9823,2.0671,2.1516,2.1795,2.1861,2.194,2.2074,2.2008,2.1929,2.1929,2.1967,2.2008,2.1993,2.1916,2.1823,2.1901,2.1954,2.1876,2.1757,2.1637,2.1386,2.1281,2.1136,-0.7962,-0.9658,-0.7586,-0.5192,-0.3005,-0.2943,-0.1816,0.0,0.0,0.0,0.0,0.0,0.0,0.0,0.0,0.0,0.0,0.0,0.0,0.0,0.0,0.0,0.0,0.0,0.0,0.0,0.0,0.0,0.0,0.0,0.0,0.0,0.0,0.0,0.0,0.0,0.0,0.0,0.0,0.0,0.0,0.0,0.0,0.0,0.0,0.0,0.0,0.0,0.0,0.0,0.0,0.0,0.0,0.0,0.0,0.0,0.0,0.0,0.0,0.0,0.0,0.0,0.0,0.1177,0.2745,0.0,0.6915,0.711,0.9649,1.1217,1.2849,1.5066,1.6362,1.6762,1.6762,1.6762,1.6762,1.6762,1.6762,1.6762,1.6762,1.6762,1.6762,1.6762,1.6762,1.6762,1.6762,1.6762,1.7085,1.7586,1.8331,1.916,1.9954,2.0872,2.1617,2.2114,2.2217,2.231,2.2375,2.2362,2.2296,2.2283,2.2217,2.2296,2.2346,2.2257,2.2046,2.223,2.2389,2.223,2.2059,2.1807,2.1677,2.1584,2.1625,-1.1221,-1.1587,-0.9937,-0.7242,-0.4117,-0.3933,-0.2397,0.0,0.0,0.0,0.0,0.0,0.0,0.0,0.0,0.0,0.0,0.0,0.0,0.0,0.0,0.0,0.0,0.0,0.0,0.0,0.0,0.0,0.0,0.0,0.0,0.0,0.0,0.0,0.0,0.0,0.0,0.0,0.0,0.0,0.0,0.0,0.0,0.0,0.0,0.0,0.0,0.0,0.0,0.0,0.0,0.0,0.0,0.0,0.0,0.0,0.0,0.0,0.0,0.0,0.0,0.0,0.0,0.3071,0.5484,0.7371,0.8478,0.9975,1.1607,1.3044,1.4473,1.5844,1.6492,1.6762,1.6762,1.6762,1.6762,1.6762,1.6762,1.6762,1.6762,1.6762,1.6762,1.6762,1.6762,1.6762,1.6762,1.6762,1.702,1.7466,1.8168,1.911,2.0121,2.1113,2.1744,2.2191,2.2323,2.2296,2.2375,2.2468,2.2534,2.2517,2.2494,2.2451,2.249,2.2425,2.2402,2.2428,2.2633,2.2551,2.2468,2.2204,2.1954,2.2173,2.3925,-1.3985,-1.1961,-1.1902,-0.9152,-0.5335,-0.5099,-0.3418,0.0,0.0,-0.042,0.0,0.0,0.0,0.0,0.0,0.0,0.0,0.0,0.0,0.0,0.0,0.0,0.0,0.0,0.0,0.0,0.0,0.0,0.0,0.0,0.0,0.0,0.0,0.0,0.0,0.0,0.0,0.0,0.0,0.0,0.0,0.0,0.0,0.0,0.0,0.0,0.0,0.0,0.0,0.0,0.0,0.0,0.0,0.0,0.0,0.0,0.0,0.0,0.0,0.0,0.1699,0.3137,0.4378,0.6136,0.7957,0.9324,1.0365,1.2582,1.3109,1.4148,1.5779,1.6621,1.6686,1.6762,1.6762,1.6762,1.6762,1.6762,1.6762,1.6762,1.6762,1.6762,1.6762,1.6762,1.6762,1.6762,1.6762,1.6762,1.6858,1.7204,1.7837,1.8996,2.0045,2.1184,2.1955,2.2188,2.2283,2.2178,2.2283,2.2389,2.2481,2.2517,2.2517,2.2517,2.2517,2.2464,2.2494,2.2564,2.2839,2.3258,2.4107,2.362,2.2946,2.4635,2.6836,-1.5005,-1.4589,-1.4579,-1.2795,-1.0225,-0.9927,-0.837,-0.5981,-0.3954,-0.3118,-0.2816,0.0,0.0,0.0,0.0,0.0,0.0,0.0,0.0,0.0,0.0,0.0,0.0,0.0,0.0,0.0,0.0,0.0,0.0,0.0,0.0,0.0,0.0,0.0,0.0,0.0,0.0,0.0,0.0,0.0,0.0,0.0,0.0,0.0,0.0,0.0,0.0,0.0,0.0,0.0,0.0,0.0,0.0,0.0,0.0,0.0,0.0,0.0,0.0,0.1698,0.3332,0.4965,0.6397,0.8744,1.0762,1.1932,1.2711,1.5186,1.5704,1.6083,1.6492,1.6762,1.6762,1.6762,1.6762,1.6762,1.6762,1.6762,1.6762,1.6762,1.6762,1.6762,1.6762,1.6762,1.6762,1.6762,1.6762,1.6762,1.6772,1.7107,1.7806,1.8911,2.0074,2.1217,2.1913,2.2214,2.223,2.2151,2.2244,2.2362,2.2481,2.2503,2.2517,2.2517,2.2517,2.2517,2.2517,2.2573,2.3829,2.4929,2.5748,2.6525,2.7537,2.8912,3.0159,-1.5361,-1.5361,-1.5361,-1.3866,-1.1723,-1.1425,-0.9987,-0.7594,-0.628,-0.5687,-0.5268,-0.437,-0.3652,-0.3355,-0.2577,-0.1079,0.0,0.0,0.0,0.0,0.0,0.0,0.0,0.0,0.0,0.0,0.0,0.0,0.0,0.0,0.0,0.0,0.0,0.0,0.0,0.0,0.0,0.0,0.0,0.0,0.0,0.0,0.0,0.0,0.0,-0.0262,0.0,0.0,0.0,0.0,0.0,0.0,0.0,0.0,0.0,0.0,0.0,0.0,0.0,0.3061,0.5549,0.7571,0.9395,1.1607,1.3629,1.4463,1.5083,1.6184,1.6538,1.657,1.674,1.6751,1.6762,1.6762,1.6762,1.6762,1.6762,1.6762,1.6762,1.6762,1.6762,1.6762,1.6762,1.6762,1.6762,1.6762,1.6762,1.6762,1.6762,1.7182,1.7806,1.8867,1.9937,2.1029,2.1916,2.2149,2.2191,2.2178,2.223,2.2362,2.2481,2.249,2.2517,2.2517,2.2517,2.2517,2.2853,2.3815,2.5262,2.6495,2.8139,2.981,3.1421,3.2843,3.3578,-1.5658,-1.5658,-1.5717,-1.446,-1.2617,-1.2497,-1.1477,-0.9384,-0.9026,-0.8549,-0.8483,-0.8072,-0.7589,-0.7296,-0.5567,-0.3415,-0.1619,0.0,0.0,0.0,0.0,0.0,0.0,0.0,0.0,-0.0185,0.0,0.0,0.0,-0.036,0.0,0.0,0.0,0.0,0.0,0.0,0.0,0.0,0.0,0.0,0.0,0.0,0.0,0.0,-0.0905,-0.0841,0.0,0.0,-0.0325,-0.0325,0.0,0.0,-0.0516,-0.0763,-0.063,0.0,0.0,0.1861,0.3725,0.4924,0.8147,1.1087,1.2849,1.4408,1.5844,1.6557,1.6269,1.6411,1.6401,1.6443,1.6623,1.6665,1.6686,1.6762,1.6762,1.6762,1.6762,1.6762,1.6762,1.6762,1.6762,1.6762,1.6762,1.6762,1.6762,1.6762,1.6762,1.6762,1.688,1.7323,1.8016,1.8934,1.9881,2.0948,2.1916,2.2162,2.2244,2.2257,2.2296,2.2428,2.2507,2.249,2.2517,2.2517,2.2517,2.2783,2.3885,2.5192,2.6703,2.8691,3.067,3.2658,3.4903,3.7048,3.7671,-1.6974,-1.6974,-1.6974,-1.6797,-1.6441,-1.6322,-1.5836,-1.5232,-1.355,-1.2344,-1.2174,-1.0092,-0.9708,-0.9245,-0.8763,-0.7231,-0.4723,-0.2573,-0.0656,-0.0298,0.0,0.0,0.0,0.0,-0.0598,-0.1569,-0.1503,-0.1501,-0.156,-0.168,-0.138,-0.156,-0.162,-0.144,-0.156,-0.162,-0.15,-0.1442,-0.1454,-0.1466,-0.1473,-0.1491,-0.1504,-0.1518,-0.1709,-0.1647,-0.1521,-0.1456,-0.158,-0.164,-0.164,-0.1703,-0.1513,-0.1318,-0.0879,-0.0627,0.1778,0.3578,0.5255,0.8343,1.1022,1.2062,1.4473,1.6243,1.6502,1.674,1.6581,1.6454,1.6327,1.6411,1.6422,1.6549,1.6655,1.6676,1.6686,1.6762,1.6762,1.6762,1.6762,1.6762,1.6762,1.6762,1.6762,1.6762,1.6762,1.6762,1.6762,1.6783,1.7019,1.752,1.835,1.9273,2.0162,2.1185,2.2055,2.2428,2.2375,2.2375,2.2389,2.2494,2.249,2.3132,2.3829,2.3271,2.362,2.3411,2.4303,2.7049,2.9381,3.0808,3.3068,3.593,3.8504,4.0993,4.1297,-1.733,-1.733,-1.733,-1.733,-1.733,-1.733,-1.733,-1.7034,-1.5944,-1.5335,-1.4877,-1.3977,-1.3276,-1.3066,-1.1656,-0.9796,-0.7294,-0.4557,-0.2458,-0.1113,-0.094,-0.0946,-0.0954,-0.1124,-0.13,-0.1798,-0.1982,-0.198,-0.198,-0.192,-0.2042,-0.198,-0.192,-0.2042,-0.198,-0.192,-0.1982,-0.1986,-0.1935,-0.1941,-0.1945,-0.1968,-0.2046,-0.2356,-0.2434,-0.2257,-0.2004,-0.2005,-0.2005,-0.2123,-0.2533,-0.2819,-0.2452,-0.2221,-0.0743,0.0809,0.3029,0.46,0.7949,1.0995,1.3109,1.4667,1.5844,1.6567,1.6762,1.6762,1.6581,1.6443,1.6443,1.6475,1.6327,1.6496,1.6507,1.6528,1.6612,1.6751,1.6762,1.6762,1.6762,1.6762,1.6762,1.6762,1.6762,1.6762,1.6762,1.6762,1.6762,1.6762,1.7009,1.7355,1.8328,1.932,2.0327,2.1266,2.2059,2.2477,2.2411,2.2481,2.2481,2.2534,2.3132,2.4163,2.5137,2.6772,2.807,2.7049,2.6511,3.0,3.2883,3.4181,3.6155,3.9224,4.1468,4.2181,4.2757,-1.7515,-1.7515,-1.7515,-1.7515,-1.7515,-1.7515,-1.7561,-1.7549,-1.7503,-1.7182,-1.7049,-1.7012,-1.6732,-1.6508,-1.4579,-1.2089,-0.9324,-0.7268,-0.4571,-0.2352,-0.1858,-0.1866,-0.2219,-0.2298,-0.2374,-0.2453,-0.2402,-0.2402,-0.2402,-0.2522,-0.2402,-0.2462,-0.2582,-0.2402,-0.2462,-0.2522,-0.2342,-0.2402,-0.2402,-0.2464,-0.2532,-0.2492,-0.2688,-0.3054,-0.3145,-0.2853,-0.2421,-0.2359,-0.2359,-0.2595,-0.3226,-0.3555,-0.3019,-0.2437,-0.0736,0.1789,0.3397,0.6391,1.0436,1.2156,1.3889,1.5649,1.6298,1.6762,1.6762,1.6762,1.6591,1.639,1.6507,1.6496,1.6348,1.6379,1.6528,1.6549,1.6665,1.6815,1.6655,1.6665,1.6751,1.6762,1.6762,1.6762,1.6762,1.6762,1.6762,1.6762,1.6762,1.6762,1.6921,1.7056,1.7971,1.8957,1.992,2.0819,2.1646,2.2281,2.2325,2.2477,2.2477,2.2586,2.4163,2.5331,2.698,2.9105,3.1357,3.1014,2.9587,3.254,3.4815,3.6991,3.8977,4.0864,4.2364,4.31,4.3681,-1.8158,-1.8158,-1.8158,-1.8158,-1.8127,-1.8158,-1.8096,-1.8171,-1.8096,-1.8057,-1.8005,-1.8049,-1.7884,-1.801,-1.6714,-1.4912,-1.0646,-0.9193,-0.6374,-0.3592,-0.223,-0.2416,-0.3179,-0.3366,-0.3468,-0.348,-0.3662,-0.3602,-0.3482,-0.3542,-0.3602,-0.3482,-0.3542,-0.3662,-0.3482,-0.3542,-0.3662,-0.3542,-0.3482,-0.3422,-0.3485,-0.3492,-0.3502,-0.3683,-0.3695,-0.3574,-0.3572,-0.3567,-0.3567,-0.3622,-0.379,-0.3662,-0.3367,-0.1216,0.0306,0.1601,0.5018,0.7658,0.928,1.2526,1.4528,1.5047,1.6093,1.6686,1.6686,1.6655,1.657,1.6316,1.638,1.6359,1.6285,1.6686,1.6762,1.657,1.6857,1.6836,1.6559,1.657,1.6762,1.6762,1.6762,1.6762,1.6762,1.6762,1.6762,1.6762,1.6762,1.6762,1.6792,1.6993,1.7705,1.8675,1.9538,2.0396,2.1305,2.2128,2.2325,2.2586,2.2586,2.3271,2.479,2.7534,2.9105,3.0876,3.3225,3.3703,3.3137,3.4113,3.5768,3.8008,4.0258,4.1962,4.3234,4.3768,4.4035,-1.8292,-1.8292,-1.8292,-1.8292,-1.8292,-1.8292,-1.8292,-1.8292,-1.8292,-1.8212,-1.8054,-1.8096,-1.7948,-1.7528,-1.6294,-1.3741,-1.0754,-0.8985,-0.6387,-0.3395,-0.2845,-0.3116,-0.3544,-0.3854,-0.3902,-0.3902,-0.3902,-0.3902,-0.3902,-0.3902,-0.3902,-0.3902,-0.3902,-0.3902,-0.3902,-0.3902,-0.3902,-0.3902,-0.3902,-0.3902,-0.3902,-0.3902,-0.3902,-0.3902,-0.3902,-0.3902,-0.3902,-0.3902,-0.3902,-0.3662,-0.282,-0.2219,-0.198,-0.0061,0.202,0.4164,0.6109,0.8587,1.0504,1.2852,1.4372,1.4711,1.5858,1.6546,1.66,1.6559,1.6421,1.6221,1.6169,1.6105,1.6031,1.6178,1.6242,1.6274,1.6486,1.6559,1.6337,1.6443,1.6549,1.6655,1.6762,1.6762,1.6762,1.6762,1.6762,1.6751,1.6686,1.674,1.6772,1.6984,1.743,1.826,1.9124,2.0074,2.1011,2.1813,2.2254,2.2534,2.2783,2.369,2.6372,3.0207,3.2814,3.5632,3.6177,3.6788,3.7398,3.8233,3.8842,3.9517,4.1401,4.3034,4.3701,4.4302,4.4368,-1.8011,-1.8011,-1.8011,-1.8011,-1.8011,-1.8011,-1.7998,-1.8011,-1.7998,-1.7853,-1.7776,-1.7736,-1.7576,-1.7069,-1.4889,-1.2601,-1.0391,-0.816,-0.5715,-0.3763,-0.3503,-0.3601,-0.3718,-0.3805,-0.3902,-0.3902,-0.3902,-0.3902,-0.3902,-0.3902,-0.3902,-0.3902,-0.3902,-0.3902,-0.3902,-0.3902,-0.3902,-0.3902,-0.3902,-0.3902,-0.3902,-0.3902,-0.3902,-0.3902,-0.3902,-0.3902,-0.3902,-0.3902,-0.3902,-0.3782,-0.2037,-0.0778,-0.012,0.164,0.3616,0.5705,0.6887,0.8514,1.0665,1.2333,1.3157,1.3427,1.4343,1.5545,1.5545,1.5332,1.5273,1.5223,1.5124,1.5018,1.5257,1.5308,1.5584,1.579,1.5596,1.5574,1.6022,1.6274,1.6422,1.6581,1.6655,1.6686,1.6762,1.6762,1.6762,1.6676,1.6644,1.6602,1.673,1.6878,1.6878,1.7805,1.8759,1.9754,2.0718,2.1513,2.2355,2.2775,2.4079,2.5282,2.8575,3.2271,3.6045,3.9336,3.8279,3.8144,3.9492,4.0523,4.1425,4.1425,4.2766,4.3368,4.4035,4.4501,4.4501,-1.7377,-1.7364,-1.7377,-1.7417,-1.7417,-1.7417,-1.743,-1.7403,-1.7403,-1.7403,-1.7377,-1.739,-1.7284,-1.6733,-1.4446,-1.2213,-1.0313,-0.7774,-0.5443,-0.3938,-0.3551,-0.3604,-0.3689,-0.3792,-0.39,-0.3902,-0.3902,-0.3902,-0.3902,-0.3897,-0.3902,-0.3894,-0.3889,-0.3897,-0.3886,-0.384,-0.3894,-0.3894,-0.39,-0.3902,-0.3902,-0.3902,-0.3902,-0.3902,-0.3902,-0.3902,-0.3902,-0.3902,-0.3902,-0.3662,-0.1918,-0.012,0.1741,0.3769,0.4837,0.5449,0.6953,0.7982,0.8446,0.995,1.072,1.0908,1.2064,1.2486,1.2903,1.3065,1.2969,1.2898,1.2802,1.3086,1.3936,1.4165,1.4809,1.5719,1.4777,1.4609,1.5521,1.6094,1.6327,1.6422,1.657,1.6762,1.6762,1.6762,1.6762,1.6665,1.6549,1.657,1.6698,1.6698,1.6634,1.7345,1.8373,1.9314,2.0175,2.1223,2.3298,2.4438,2.6769,2.8374,3.0989,3.3848,3.7247,3.8815,3.9348,3.9528,4.0043,4.062,4.131,4.2117,4.2883,4.3609,4.4102,4.4368,4.4501,-1.7324,-1.7324,-1.7324,-1.7324,-1.7324,-1.7324,-1.7324,-1.7324,-1.7324,-1.7324,-1.7324,-1.7324,-1.6505,-1.4824,-1.2753,-1.0475,-0.8154,-0.5824,-0.4359,-0.361,-0.3527,-0.3641,-0.3678,-0.3787,-0.3902,-0.3902,-0.3902,-0.3902,-0.39,-0.3805,-0.3787,-0.3779,-0.375,-0.3734,-0.3792,-0.3766,-0.3787,-0.3792,-0.3884,-0.3902,-0.3902,-0.3902,-0.3902,-0.3902,-0.3902,-0.3902,-0.3902,-0.3902,-0.336,-0.2159,-0.1438,0.0599,0.3595,0.5481,0.6596,0.6782,0.7295,0.7752,0.7874,0.9104,1.0004,1.0271,1.1395,1.2196,1.2179,1.2083,1.2034,1.1949,1.1824,1.1926,1.235,1.2471,1.3103,1.4342,1.376,1.4102,1.522,1.5851,1.6095,1.6285,1.6549,1.6665,1.6762,1.6762,1.6762,1.6751,1.6623,1.6633,1.6644,1.6612,1.6633,1.7021,1.8213,1.9208,1.9822,2.1703,2.3949,2.6645,2.9478,3.1578,3.2988,3.5617,3.723,3.8751,3.9368,3.9392,3.9722,4.0363,4.1185,4.1943,4.2719,4.3425,4.4002,4.4279,4.4371,-1.7101,-1.7101,-1.714,-1.7127,-1.7193,-1.7231,-1.7324,-1.7324,-1.7324,-1.7324,-1.7324,-1.7324,-1.6021,-1.3681,-1.1448,-0.9231,-0.6851,-0.4631,-0.3487,-0.3563,-0.3609,-0.3665,-0.3686,-0.3846,-0.3902,-0.39,-0.3824,-0.3865,-0.3841,-0.3744,-0.3668,-0.3662,-0.3686,-0.3665,-0.3673,-0.3705,-0.3681,-0.3696,-0.3795,-0.3824,-0.3902,-0.3902,-0.3902,-0.3902,-0.3902,-0.3902,-0.3902,-0.33,-0.2339,-0.1078,0.018,0.2335,0.5155,0.6897,0.756,0.762,0.762,0.762,0.7751,0.8595,0.9128,0.939,1.0066,1.0742,1.079,1.052,1.0402,1.0449,1.0363,1.0471,1.0769,1.0889,1.1441,1.2685,1.2795,1.339,1.4997,1.5598,1.5811,1.6116,1.6411,1.657,1.6591,1.674,1.6751,1.6751,1.6612,1.6612,1.6655,1.6612,1.6591,1.6849,1.8415,1.9672,2.1277,2.3225,2.6085,2.9219,3.2246,3.4807,3.5627,3.7105,3.782,3.8622,3.8692,3.8846,3.9235,3.9891,4.0817,4.1656,4.2448,4.3134,4.3772,4.4033,4.3993,-1.6508,-1.6574,-1.6811,-1.6943,-1.7009,-1.718,-1.7311,-1.7311,-1.7324,-1.7324,-1.7258,-1.7109,-1.5632,-1.3519,-1.1078,-0.9014,-0.6634,-0.4468,-0.3487,-0.3498,-0.3607,-0.3657,-0.3665,-0.383,-0.3884,-0.3884,-0.3779,-0.3668,-0.3741,-0.373,-0.3665,-0.3665,-0.3657,-0.3644,-0.366,-0.3662,-0.3694,-0.3678,-0.3699,-0.3728,-0.3894,-0.3902,-0.3902,-0.3902,-0.3892,-0.3889,-0.3832,-0.2153,-0.1134,-0.0478,0.251,0.5511,0.7002,0.7495,0.7615,0.761,0.761,0.7615,0.7615,0.7724,0.7844,0.7882,0.7811,0.8122,0.8259,0.8067,0.8056,0.8116,0.8045,0.8273,0.9337,0.9503,1.0092,1.1246,1.1723,1.2914,1.4827,1.5442,1.5527,1.6008,1.6407,1.6337,1.6475,1.7105,1.7623,1.7483,1.7138,1.6891,1.7161,1.7073,1.6549,1.6974,1.8852,2.1028,2.287,2.4833,2.8335,3.1619,3.4641,3.6562,3.6906,3.7222,3.7884,3.8029,3.8059,3.8409,3.8792,3.9711,4.0586,4.1131,4.2054,4.276,4.324,4.3604,4.363,-1.6374,-1.6546,-1.6638,-1.6745,-1.6878,-1.6983,-1.7127,-1.7311,-1.7324,-1.7324,-1.6989,-1.559,-1.3681,-1.1448,-0.9177,-0.6851,-0.4685,-0.3869,-0.3487,-0.3495,-0.3514,-0.355,-0.362,-0.3686,-0.3723,-0.3721,-0.3702,-0.3686,-0.3662,-0.3625,-0.355,-0.3545,-0.3564,-0.3546,-0.3554,-0.3588,-0.3633,-0.3691,-0.3675,-0.3722,-0.3894,-0.3902,-0.3902,-0.3892,-0.3763,-0.3781,-0.3723,-0.1975,-0.0464,0.0986,0.3193,0.5487,0.7323,0.7573,0.7584,0.7574,0.7564,0.7623,0.7553,0.7484,0.7511,0.7594,0.7611,0.7601,0.761,0.762,0.762,0.762,0.762,0.768,0.8077,0.8312,0.9122,1.0985,1.1425,1.3024,1.6548,1.72,1.7378,1.7556,1.7815,1.8087,1.8466,1.9653,2.0354,2.0922,1.9585,1.8777,1.8785,1.8737,1.8701,1.8934,2.0743,2.2583,2.4659,2.712,3.0399,3.2927,3.5697,3.6483,3.698,3.7253,3.7511,3.7441,3.7614,3.796,3.8636,3.9515,4.0028,4.0326,4.1226,4.2253,4.2669,4.311,4.3396,-1.607,-1.6128,-1.5528,-1.4899,-1.4421,-1.4512,-1.464,-1.4866,-1.4866,-1.4813,-1.4597,-1.3303,-1.1349,-0.9123,-0.6797,-0.4954,-0.3596,-0.3487,-0.3487,-0.3495,-0.3495,-0.3522,-0.3527,-0.3638,-0.3665,-0.3662,-0.3644,-0.3622,-0.3599,-0.3564,-0.349,-0.3482,-0.3506,-0.3487,-0.3495,-0.3527,-0.3585,-0.3657,-0.3621,-0.3673,-0.38,-0.3849,-0.3838,-0.3832,-0.3763,-0.3665,-0.3665,-0.1259,0.0515,0.1714,0.4174,0.6152,0.7379,0.7511,0.7516,0.7511,0.75,0.75,0.7547,0.7425,0.7452,0.7532,0.7537,0.749,0.7585,0.752,0.7569,0.7595,0.7526,0.8019,0.8478,0.9625,1.0803,1.2318,1.3335,1.5399,1.8134,1.9092,1.9204,1.933,1.9501,1.9804,2.0419,2.1526,2.2466,2.2726,2.1835,2.105,2.0935,2.0935,2.0869,2.1095,2.2505,2.4546,2.6606,2.9437,3.1586,3.3888,3.5626,3.6275,3.6947,3.7229,3.7276,3.7253,3.7229,3.7573,3.827,3.9182,3.9953,4.0242,4.0829,4.1734,4.2071,4.2643,4.3032,-1.5383,-1.5047,-1.3585,-1.1818,-1.0024,-1.0402,-1.0521,-1.0962,-1.0746,-1.0638,-1.0854,-1.0421,-0.9007,-0.6717,-0.4711,-0.3531,-0.3477,-0.3526,-0.3471,-0.3477,-0.3475,-0.3506,-0.3514,-0.3622,-0.3644,-0.3625,-0.3583,-0.354,-0.3498,-0.3493,-0.3487,-0.349,-0.3485,-0.3482,-0.3479,-0.3477,-0.3538,-0.362,-0.3542,-0.3574,-0.3721,-0.3801,-0.3831,-0.3831,-0.3711,-0.3592,-0.3138,-0.0114,0.1823,0.188,0.5297,0.7304,0.7377,0.7382,0.7393,0.7388,0.7382,0.7377,0.7377,0.7356,0.7372,0.7393,0.7393,0.7425,0.7532,0.7473,0.7578,0.7834,0.8132,0.8905,1.0684,1.2631,1.408,1.4431,1.6435,1.8509,2.0729,2.1023,2.1097,2.1111,2.1155,2.1403,2.1913,2.2292,2.3105,2.3404,2.3203,2.3026,2.304,2.3055,2.2953,2.302,2.4015,2.5887,2.8813,3.0109,3.1298,3.3167,3.4822,3.589,3.6571,3.7112,3.7135,3.7112,3.7135,3.7446,3.8067,3.8774,3.948,4.0432,4.0977,4.1292,4.1718,4.2201,4.2773,-1.2172,-1.1978,-1.0856,-1.0177,-0.9913,-1.0013,-1.0204,-1.0451,-1.0475,-1.0475,-1.0313,-0.8689,-0.665,-0.4469,-0.3675,-0.336,-0.3363,-0.3308,-0.336,-0.3363,-0.3376,-0.3387,-0.3334,-0.3403,-0.3485,-0.352,-0.3566,-0.3518,-0.3487,-0.3487,-0.3487,-0.3482,-0.3499,-0.3477,-0.3475,-0.3381,-0.3397,-0.3523,-0.3503,-0.3495,-0.3663,-0.4406,-0.4812,-0.4757,-0.4035,-0.2985,-0.1713,0.0497,0.2263,0.3588,0.5798,0.7164,0.7244,0.7254,0.7292,0.7366,0.7302,0.7254,0.7254,0.7174,0.7201,0.735,0.7297,0.7308,0.7398,0.7404,0.8137,0.9694,1.1193,1.218,1.3076,1.4033,1.5085,1.6021,1.7127,1.9288,2.2022,2.2727,2.2961,2.2961,2.2945,2.3056,2.3425,2.4662,2.586,2.622,2.5493,2.4675,2.4976,2.5008,2.4992,2.4976,2.605,2.7386,2.8477,2.9562,3.1006,3.2702,3.4185,3.5384,3.6336,3.6548,3.6618,3.6971,3.7088,3.7509,3.844,3.8526,3.8922,4.0294,4.1023,4.124,4.164,4.2265,4.2825,-1.1297,-1.0762,-0.9333,-0.816,-0.7244,-0.721,-0.7321,-0.7555,-0.7561,-0.7555,-0.7348,-0.6072,-0.4694,-0.3364,-0.3312,-0.3571,-0.3933,-0.3933,-0.3933,-0.3985,-0.4399,-0.4295,-0.4037,-0.4347,-0.4698,-0.4829,-0.4833,-0.4664,-0.4294,-0.4199,-0.3965,-0.3558,-0.3448,-0.3418,-0.3468,-0.3799,-0.402,-0.4143,-0.4614,-0.4211,-0.3304,-0.3671,-0.3569,-0.2503,-0.1786,-0.0917,0.0108,0.1767,0.3149,0.4213,0.5869,0.6865,0.6939,0.6939,0.697,0.7089,0.7018,0.7029,0.7126,0.7013,0.7034,0.7228,0.7174,0.7624,0.8589,0.8664,1.0021,1.2881,1.448,1.5236,1.5452,1.6581,1.7413,1.785,1.9533,2.152,2.3823,2.4558,2.4908,2.4891,2.4771,2.4667,2.4893,2.5882,2.6958,2.7513,2.6961,2.6206,2.6549,2.6635,2.6583,2.6581,2.7048,2.767,2.8006,2.9234,3.0652,3.2022,3.3582,3.4985,3.5783,3.6078,3.6242,3.6736,3.6971,3.7633,3.8787,3.9057,3.9403,4.0421,4.1214,4.1812,4.2212,4.2759,4.298,-1.1327,-1.0166,-0.8212,-0.5806,-0.3551,-0.3418,-0.3457,-0.3511,-0.3364,-0.3359,-0.3708,-0.3348,-0.34,-0.34,-0.35,-0.4011,-0.494,-0.4999,-0.4991,-0.5094,-0.5972,-0.5869,-0.509,-0.5865,-0.6544,-0.6638,-0.6648,-0.6116,-0.5352,-0.5364,-0.4844,-0.3869,-0.3646,-0.3666,-0.3714,-0.4587,-0.5035,-0.5172,-0.6442,-0.5664,-0.2948,-0.2623,-0.1279,0.1409,0.1389,0.1537,0.1695,0.3185,0.4092,0.435,0.5808,0.6585,0.659,0.6585,0.6637,0.6596,0.6732,0.6827,0.6982,0.7101,0.7414,0.748,0.7744,0.8668,1.062,1.0983,1.292,1.6351,1.7446,1.7553,1.7754,1.9682,2.0463,1.9671,2.1957,2.4501,2.5032,2.6025,2.6431,2.6431,2.5854,2.5956,2.5786,2.5879,2.6287,2.693,2.6817,2.6987,2.7464,2.7573,2.7464,2.7191,2.7127,2.715,2.7432,2.8888,3.0341,3.108,3.3082,3.4657,3.5302,3.5561,3.5642,3.6135,3.6618,3.7262,3.8515,3.9652,4.0278,4.0859,4.1734,4.2629,4.2759,4.2928,4.3214,-0.7919,-0.689,-0.5585,-0.4283,-0.3034,-0.3124,-0.3196,-0.3302,-0.3343,-0.3721,-0.418,-0.3478,-0.3577,-0.4318,-0.4318,-0.4967,-0.5811,-0.591,-0.591,-0.591,-0.6158,-0.6158,-0.5959,-0.6108,-0.6364,-0.6459,-0.6469,-0.6378,-0.622,-0.6125,-0.6006,-0.5766,-0.5725,-0.5724,-0.572,-0.5849,-0.5925,-0.6099,-0.7999,-0.7981,-0.5729,-0.4429,-0.2761,-0.0628,0.0365,0.1458,0.2811,0.3269,0.4088,0.5334,0.6166,0.658,0.658,0.658,0.658,0.6585,0.6658,0.6679,0.6758,0.8163,0.9816,1.1324,1.1532,1.1885,1.2805,1.4123,1.6254,1.8717,1.9355,1.9439,1.9619,2.0665,2.1234,2.1038,2.224,2.3214,2.345,2.4369,2.4988,2.5044,2.5365,2.5608,2.5608,2.5608,2.5681,2.5939,2.6436,2.7021,2.7664,2.783,2.7499,2.7003,2.6746,2.6764,2.6921,2.869,3.0158,3.0431,3.2576,3.4075,3.4809,3.4997,3.5208,3.5595,3.5913,3.6574,3.7572,3.8416,3.939,4.0663,4.164,4.216,4.2212,4.2395,4.2629,-0.7491,-0.6522,-0.5973,-0.5141,-0.4269,-0.4313,-0.4448,-0.4524,-0.4483,-0.4479,-0.445,-0.3877,-0.3969,-0.4447,-0.4494,-0.5306,-0.678,-0.678,-0.6732,-0.6786,-0.7262,-0.7215,-0.6833,-0.7215,-0.7524,-0.7653,-0.7659,-0.7521,-0.7142,-0.7154,-0.6899,-0.6434,-0.6422,-0.637,-0.6372,-0.6751,-0.6913,-0.6956,-0.7705,-0.6969,-0.4586,-0.2992,-0.0998,0.1344,0.1951,0.2747,0.3698,0.3853,0.435,0.5289,0.5757,0.6044,0.6144,0.6155,0.6202,0.6352,0.6312,0.6343,0.6343,0.8284,1.0353,1.2362,1.2575,1.3402,1.5464,1.6683,1.7982,1.9397,1.9879,2.0049,2.0049,2.0523,2.0902,2.1114,2.194,2.2532,2.2791,2.3773,2.4497,2.4535,2.4908,2.5184,2.5184,2.5019,2.4835,2.4891,2.5424,2.6085,2.6838,2.7113,2.7095,2.6709,2.6617,2.6617,2.6734,2.8283,2.9556,3.0269,3.1859,3.3291,3.4247,3.4456,3.4691,3.5055,3.5407,3.6061,3.7274,3.8106,3.8974,4.0226,4.112,4.1937,4.2119,4.2421,4.2603,-0.8254,-0.7339,-0.7339,-0.6744,-0.5828,-0.5833,-0.585,-0.5996,-0.6112,-0.5532,-0.4497,-0.4173,-0.4266,-0.4497,-0.4497,-0.565,-0.7583,-0.7629,-0.7629,-0.7675,-0.8513,-0.8467,-0.7675,-0.8513,-0.9015,-0.9104,-0.9072,-0.8789,-0.8146,-0.8137,-0.7702,-0.6897,-0.6809,-0.6819,-0.6723,-0.753,-0.7831,-0.7469,-0.659,-0.4756,-0.1936,-0.0349,0.1681,0.4196,0.4172,0.4196,0.4264,0.4433,0.4585,0.468,0.5024,0.5349,0.5562,0.5552,0.5616,0.5808,0.6011,0.6134,0.6254,0.8402,1.049,1.2265,1.2818,1.4366,1.7658,1.8313,1.8644,1.896,1.9341,1.9594,1.9674,1.9907,2.0255,2.0639,2.1331,2.1996,2.2274,2.326,2.3921,2.4101,2.4491,2.4671,2.4707,2.4396,2.4195,2.4213,2.4725,2.5203,2.5921,2.6289,2.651,2.6639,2.6617,2.6617,2.6792,2.7645,2.892,3.0154,3.1342,3.2627,3.3875,3.4046,3.4244,3.4563,3.502,3.5751,3.692,3.8045,3.8713,3.9377,4.0539,4.1562,4.1588,4.2239,4.2357,-0.7926,-0.7092,-0.7048,-0.6558,-0.568,-0.568,-0.5705,-0.5805,-0.7285,0.0,0.0,-0.3845,-0.4077,-0.5511,-0.5557,-0.6666,-0.8651,-0.8651,-0.8651,-0.8697,-0.8881,-0.8835,-0.8651,-0.8835,-0.8951,-0.8983,-0.8983,-0.8876,-0.8798,-0.8889,-0.8815,-0.8678,-0.879,-0.8793,-0.8756,-0.8878,-0.7951,-0.6111,-0.5833,-0.4031,-0.0642,0.0183,0.1584,0.3804,0.3727,0.3785,0.41,0.4053,0.4205,0.4654,0.4948,0.5148,0.5317,0.5111,0.5021,0.5103,0.5957,0.6748,0.7331,1.046,1.2726,1.3655,1.5567,1.6668,1.6518,1.7334,1.7887,1.795,1.8312,1.8629,1.8817,1.9197,1.9544,1.9943,2.0156,2.0383,2.0665,2.1345,2.2128,2.2775,2.3344,2.3771,2.4143,2.4123,2.4068,2.4176,2.447,2.5055,2.546,2.5645,2.5921,2.6397,2.6547,2.6639,2.6773,2.7607,2.8842,3.0133,3.1342,3.249,3.3576,3.3976,3.408,3.4164,3.4164,3.4856,3.5798,3.6744,3.7634,3.8998,3.9968,4.0548,4.0574,4.073,4.0851,-0.7802,-0.7381,-0.7381,-0.7129,0.0,-0.6708,-0.6705,-0.6764,-0.7671,-0.734,-0.6056,-0.524,-0.5318,-0.6137,-0.6137,-0.6962,-0.8366,-0.8497,-0.8537,-0.8545,-0.8624,-0.8664,-0.862,-0.862,-0.8664,-0.8664,-0.8664,-0.8667,-0.8754,-0.8796,-0.8788,-0.8709,-0.8826,-0.878,-0.8731,-0.8527,-0.7404,-0.5266,-0.4612,-0.294,-0.0304,0.0938,0.2055,0.3035,0.3042,0.0,0.0,0.0,0.0,0.0,0.0,0.0,0.0,0.5221,0.0,0.5358,0.6267,0.6956,0.7344,0.9825,1.1504,1.1845,1.4167,1.5242,1.4335,1.5115,1.5868,1.6366,1.6888,1.7394,1.7825,1.8392,1.8851,1.8993,1.9325,1.9594,1.9769,2.0418,2.1142,2.177,2.2327,2.2817,2.3256,2.3327,2.338,2.3663,2.3949,2.4364,2.5019,2.5166,2.535,2.5883,2.605,2.6294,2.7053,2.7779,2.8735,3.0724,3.1687,3.2547,3.3805,3.3976,3.3976,3.3976,3.3976,3.4375,3.548,3.6018,3.6692,3.809,3.8929,3.9378,3.9345,3.9552,3.9916,-0.776,-0.776,-0.776,-0.776,-0.7752,-0.7658,-0.7611,-0.7619,-0.765,-0.7198,-0.6418,-0.6437,-0.6418,-0.6377,-0.6397,-0.6884,-0.7721,-0.7977,-0.8064,-0.8106,-0.8199,-0.822,-0.8254,-0.8254,-0.8254,-0.822,-0.8254,-0.8291,-0.8389,-0.842,-0.8453,-0.831,-0.8385,-0.8313,-0.813,0.0,0.0,0.0,-0.3099,-0.1394,0.0289,0.1796,0.2543,0.2533,0.255,0.0,0.3054,0.3342,0.3663,0.4121,0.426,0.0,0.0,0.0,0.0,0.0,0.0,0.0,0.0,0.0,0.0,0.0,1.1641,1.2567,1.2314,1.2884,1.3662,1.4583,1.5321,1.5929,1.6418,1.7078,1.7553,1.7822,1.8328,1.8787,1.9056,1.9736,2.0443,2.0907,2.1435,2.1862,2.2413,2.2429,2.2605,2.3115,2.3274,2.3629,2.4289,2.4344,2.4671,2.5148,2.5221,2.5792,2.7172,2.7304,2.82,3.0671,3.1478,3.1985,3.3156,3.3539,3.3507,3.3647,3.3694,3.409,3.534,3.5591,3.6036,3.7461,3.8077,3.8332,3.8389,3.8637,3.913,-0.776,-0.776,-0.776,-0.776,-0.7729,-0.7266,-0.7077,-0.7122,-0.7356,-0.6957,-0.6188,-0.5566,-0.563,-0.6267,-0.6351,-0.6862,-0.7588,-0.7794,-0.7841,-0.78,-0.7856,-0.7872,-0.7872,-0.7831,-0.7823,-0.7872,-0.7831,-0.7839,-0.7904,-0.8104,-0.821,-0.8194,-0.8286,-0.8321,-0.808,-0.5867,-0.4672,-0.4479,-0.1437,0.0874,0.2289,0.2581,0.2679,0.2669,0.2573,0.2652,0.2942,0.3177,0.3417,0.3598,0.3729,0.3845,0.3968,0.3551,0.3691,0.0,0.5375,0.0,0.0,0.0,0.0,0.0,0.0,0.0,0.0,1.198,1.2393,1.2739,1.3684,1.4224,1.4039,1.4335,1.5061,1.6255,1.6508,1.7003,1.8202,1.8676,1.9219,2.005,2.0529,2.1131,2.1811,2.2017,2.2189,2.2534,2.2887,2.2919,2.2667,2.2826,2.3374,2.4178,2.4286,2.4624,2.5605,2.5925,2.6836,2.8874,2.9642,3.0013,3.1743,3.2028,3.2176,3.2545,3.274,3.3267,3.4807,3.5104,3.5642,3.7332,3.7739,3.7817,3.7843,3.7973,3.8103,-0.728,-0.732,-0.732,-0.7311,-0.7217,-0.698,-0.6877,-0.6885,-0.7037,-0.6905,-0.6636,-0.6169,-0.621,-0.6557,-0.6592,-0.6848,-0.7159,-0.7288,-0.7414,-0.7556,-0.7651,-0.7714,-0.776,-0.776,-0.776,-0.776,-0.776,-0.7754,-0.7667,-0.7778,-0.7707,-0.7397,-0.7548,-0.75,-0.7193,-0.5236,-0.4362,-0.4645,-0.1285,0.1215,0.2649,0.2731,0.2718,0.2745,0.2653,0.2785,0.312,0.3206,0.3319,0.3571,0.368,0.3857,0.4187,0.4054,0.4325,0.0,0.0,0.0,0.0,0.0,0.0,0.0,0.0,0.0,0.0,0.0,1.0695,1.1032,1.2833,1.3794,1.3327,1.3684,1.4093,1.435,1.4593,1.5036,1.5787,1.6718,1.7344,1.7517,1.8399,1.9268,1.982,2.0247,2.0676,2.1348,2.1146,2.0818,2.0606,2.1461,2.2334,2.2733,2.3168,2.3667,2.4027,2.5403,2.725,2.9461,3.0048,3.0296,3.1102,3.1231,3.1354,3.1612,3.2084,3.2798,3.3933,3.4584,3.5422,3.676,3.7163,3.7349,3.7635,3.7947,3.8452,-0.6881,-0.694,-0.6814,-0.6778,-0.6773,-0.6773,-0.6786,-0.6858,-0.683,-0.6889,-0.6921,-0.6881,-0.6746,-0.6556,-0.6596,-0.6635,-0.6683,-0.685,-0.704,-0.7292,-0.735,-0.7461,-0.7556,-0.7556,-0.7517,-0.7556,-0.7556,-0.7485,-0.7397,-0.7388,-0.7164,-0.6797,-0.6535,-0.615,-0.5587,-0.3975,-0.3358,-0.3746,-0.0648,0.1462,0.2616,0.2676,0.2684,0.2684,0.2669,0.2825,0.313,0.311,0.3191,0.3401,0.3659,0.3905,0.4219,0.4421,0.0,0.0,0.0,0.0,0.0,0.0,0.0,0.0,0.0,0.7601,0.693,0.0,0.907,0.0,1.1903,1.3054,1.2566,1.2993,0.0,0.0,1.2901,1.3137,1.3589,1.4761,1.5432,1.5108,1.6302,1.7268,1.774,1.8265,1.8931,1.9641,1.9238,1.8831,1.8847,2.0179,2.1156,2.1354,2.1749,2.2135,2.2354,2.4547,2.7266,3.008,3.0527,3.0574,3.0742,3.0714,3.0714,3.0789,3.1512,3.2322,3.3151,3.4027,3.4987,3.6065,3.6329,3.6485,3.7167,3.7609,3.8191,-0.681,-0.6778,-0.6327,-0.627,-0.6624,-0.6624,-0.6773,-0.6988,-0.6988,-0.6822,-0.6638,-0.6897,-0.658,-0.5902,-0.6024,0.0,-0.626,-0.6534,-0.6781,-0.7027,-0.6929,-0.6873,-0.6889,-0.6889,-0.6881,-0.6889,-0.6889,-0.6881,-0.6865,-0.6742,-0.6638,-0.6556,-0.5334,-0.4055,-0.2822,-0.1292,-0.0531,-0.0571,0.1335,0.2373,0.2547,0.2562,0.2549,0.2544,0.2533,0.2581,0.261,0.2945,0.2946,0.2666,0.3524,0.3871,0.3464,0.0,0.0,0.0,0.0,0.0,0.0,0.0,0.0,0.0,0.0,0.0,0.0,0.0,0.0,0.9243,1.044,0.0,1.1054,1.1101,0.0,0.0,0.0,1.1479,1.2455,1.3329,1.3773,1.3758,0.0,0.0,1.6239,1.6651,1.703,1.7363,1.7945,1.8294,1.8199,1.8792,1.9485,2.0118,1.9963,1.9889,2.0498,2.2723,2.5606,2.8489,2.9445,2.9588,2.9964,3.0104,3.0175,3.0128,3.0627,3.1353,3.2533,3.3098,3.3893,3.4902,3.5137,3.5318,3.5917,3.615,3.6574,-0.6175,-0.5834,-0.5627,-0.5678,-0.5776,-0.5784,-0.5976,-0.6295,-0.6287,-0.6159,-0.5921,-0.5985,-0.5709,-0.5146,-0.5191,0.0,0.0,0.0,-0.5976,-0.6538,-0.6372,-0.6548,-0.6929,-0.6814,-0.6837,-0.6837,-0.6837,-0.6746,-0.6712,-0.664,-0.5751,-0.4059,0.0,-0.278,-0.251,-0.0851,-0.01,-0.0203,0.1459,0.2443,0.2555,0.2541,0.257,0.2565,0.2544,0.2499,0.243,0.2664,0.2585,0.2189,0.2871,0.3319,0.0,0.0,0.0,0.0,0.0,0.0,0.0,0.0,0.0,0.0,0.0,0.5615,0.5222,0.0,0.0,0.0,0.8203,0.8396,0.8768,0.9824,0.0,0.0,0.0,0.0,0.0,0.0,0.0,1.1425,1.3043,1.4472,1.5099,1.4799,1.4783,1.5471,1.583,1.6214,1.6631,0.0,1.8457,1.9502,1.9538,1.9649,2.0295,2.1798,2.3329,2.4707,2.6281,2.7524,2.7781,2.8345,2.8697,2.8815,2.9416,3.0337,3.1519,3.1565,3.1774,3.2779,3.3527,3.4124,3.4358,3.4956,3.5741,-0.5397,0.0,0.0,0.0,0.0,-0.508,-0.5305,-0.5683,-0.5598,-0.5429,-0.5093,-0.514,0.0,0.0,0.0,0.0,0.0,0.0,-0.4729,-0.5271,-0.5008,-0.5175,-0.5664,-0.5548,-0.5555,-0.5508,-0.5551,-0.553,-0.5448,-0.5467,-0.426,-0.1904,0.0,0.0,0.0,0.0,0.0494,0.0316,0.1598,0.2387,0.2468,0.2468,0.2498,0.248,0.2483,0.2443,0.2322,0.2622,0.2598,0.2151,0.2914,0.0,0.0,0.0,0.0,0.0,0.0,0.0,0.0,0.0,0.0,0.0,0.0,0.0,0.0,0.0,0.0,0.0,0.0,0.0,0.7227,0.8752,0.9317,0.0,0.0,0.0,0.0,0.0,0.0,0.0,0.0,0.0,1.3435,1.3119,1.3214,0.0,0.0,1.4988,1.5657,1.6613,1.7619,1.8608,1.8727,0.0,1.9459,2.0823,2.1913,2.2039,2.4526,2.64,2.6259,2.6608,2.6866,2.6702,2.7629,2.8565,2.8899,2.8583,2.8774,2.9912,3.0847,3.1445,3.17,3.2351,3.3246,0.0,0.0,0.0,0.0,-0.4666,0.0,0.0,0.0,-0.5135,-0.4772,0.0,-0.442,0.0,0.0,0.0,0.0,-0.3163,-0.3048,0.0,0.0,-0.2538,-0.237,-0.2546,-0.2586,-0.2468,-0.2484,-0.269,-0.2721,-0.2639,-0.2787,0.0,0.0,0.0,0.0,0.0,0.0,0.1695,0.165,0.2092,0.2306,0.2345,0.2345,0.2339,0.2361,0.2324,0.2324,0.2351,0.3016,0.3184,0.2551,0.3934,0.0,0.0,0.0,0.0,0.0,0.0,0.0,0.0,0.0,0.0,0.0,0.0,0.0,0.0,0.0,0.0,0.0,0.0,0.0,0.0,0.7742,0.0,0.0,0.0,0.0,0.0,0.0,0.0,0.0,0.0,1.0975,1.1054,1.1841,1.2756,1.352,0.0,0.0,0.0,0.0,1.6816,1.7063,1.701,1.7028,1.7084,1.9632,2.174,2.2205,0.0,0.0,2.6282,2.5435,2.4637,2.4127,2.5313,2.582,2.4276,2.4019,2.461,2.6225,2.6695,2.6916,2.745,2.8048,2.8624,0.0,0.0,0.0,0.0,0.0,0.0,0.0,0.0,0.0,-0.3945,-0.3625,-0.3394,0.0,0.0,0.0,0.0,0.0,0.0,0.0,0.0,-0.2312,-0.2356,-0.2695,-0.2519,-0.2456,-0.2475,-0.2579,-0.1797,0.0,0.0,0.0,0.0,0.0,0.0,0.0,0.0,0.172,0.1761,0.2029,0.2263,0.2298,0.2263,0.2239,0.2295,0.2298,0.2283,0.2207,0.265,0.2558,0.0,0.0,0.0,0.0,0.0,0.0,0.0,0.0,0.0,0.0,0.0,0.0,0.0,0.0,0.0,0.0,0.0,0.0,0.0,0.0,0.0,0.0,0.0,0.6561,0.0,0.0,0.0,0.0,0.0,0.0,0.0,0.0,0.0,0.9857,1.0582,1.1497,1.2725,1.3184,1.3952,1.5555,0.0,0.0,0.0,0.0,0.0,0.0,0.0,1.9506,1.9433,2.1121,2.2511,2.2652,2.2652,2.2619,2.2455,0.0,0.0,2.0516,2.1036,2.2186,2.3414,2.3772,2.4202,2.5144,2.559,2.6234,0.0,0.0,0.0,0.0,0.0,0.0,0.0,0.0,0.0,-0.2925,-0.2753,0.0,0.0,0.0,0.0,0.0,0.0,0.0,0.0,0.0,0.0,0.0,-0.1534,-0.1374,0.0,0.0,0.0,0.0,0.0,0.0,0.0,0.0,0.0,0.0,0.0,0.0,0.1712,0.1754,0.2011,0.2189,0.2298,0.2189,0.2212,0.2272,0.2276,0.2196,0.2063,0.0,0.0,0.0,0.0,0.0,0.0,0.0,0.0,0.0,0.0,0.0,0.0,0.0,0.0,0.0,0.0,0.0,0.0,0.0,0.0,0.0,0.0,0.0,0.0,0.0,0.5317,0.0,0.0,0.0,0.0,0.0,0.0,0.0,0.0,0.0,0.0,0.9314,1.025,1.1589,1.2077,1.305,1.5113,1.5578,1.6432,0.0,0.0,0.0,0.0,0.0,0.0,0.0,0.0,0.0,0.0,0.0,0.0,0.0,0.0,1.8804,1.7396,1.8067,1.9119,2.0041,0.0,0.0,0.0,0.0,0.0,0.0,0.0,0.0,0.0,0.0,0.0,0.0,0.0,0.0,0.0,-0.1695,0.0,0.0,-0.0799,0.0,0.0,0.0,0.0,0.0,0.0,0.0,0.0,0.0,0.0,0.0,0.0,0.0,0.0,0.0,0.0,0.0,0.0,0.0,0.0,0.0,0.0,0.1623,0.1768,0.2005,0.2183,0.2328,0.2185,0.212,0.2142,0.2142,0.2061,0.1951,0.0,0.0,0.0,0.0,0.0,0.0,0.0,0.0,0.0,0.0,0.0,0.0,0.0,0.0,0.0,0.0,0.0,0.0,0.0,0.0,0.0,0.0,0.0,0.0,0.0,0.0,0.429,0.593,0.7029,0.0,0.0,0.0,0.0,0.0,0.0,0.0,0.0,0.0,1.0172,1.1301,1.2693,1.4485,1.4673,1.521,1.6734,1.6624,1.6477,1.6845,1.7743,1.8423,0.0,0.0,0.0,0.0,0.0,0.0,0.0,0.0,0.0,0.0,0.0,0.0,0.0,0.0,0.0,0.0,0.0,0.0,0.0,0.0,0.0,0.0,0.0,0.0,0.0,0.0,0.0,0.0,0.0,0.0,0.0,0.0,0.0,0.0,0.0,0.0,0.0,0.0,0.0,0.0,0.0,0.0,0.0,0.0,0.0,0.0,0.0,0.0,0.0,0.0,0.0,0.0,0.0,0.0,0.1601,0.1735,0.2011,0.2128,0.2202,0.2131,0.2132,0.2148,0.2048,0.1928,0.0,0.0,0.0,0.0,0.0,0.0,0.0,0.0,0.0,0.0,0.0,0.0,0.0,0.0,0.0,0.0,0.0,0.0,0.0,0.0,0.0,0.0,0.0,0.0,0.0,0.0,0.0,0.0,0.5954,0.6386,0.6047,0.0,0.0,0.0,0.0,0.0,0.0,0.0,0.0,0.0,0.0,1.1915,1.3697,1.457,1.5472,1.6697,1.6588,1.6311,1.6127,1.6911,1.7177,1.619,0.0,0.0,0.0,0.0,0.0,0.0,0.0,0.0,0.0,0.0,0.0,0.0,0.0,0.0,0.0,0.0,0.0,0.0,0.0,0.0,0.0,0.0,0.0,0.0,0.0,0.0,0.0,0.0,0.0,0.0,0.0,0.0,0.0,0.0,0.0,0.0,0.0,0.0,0.0,0.0,0.0,0.0,0.0,0.0,0.0,0.0,0.0,0.0,0.0,0.0,0.0,0.0,0.0,0.1567,0.1734,0.1954,0.2066,0.2139,0.212,0.2123,0.2123,0.1962,0.1831,0.0,0.0,0.0,0.0,0.0,0.0,0.0,0.0,0.0,0.0,0.0,0.0,0.0,0.0,0.0,0.0,0.0,0.0,0.0,0.0,0.0,0.0,0.0,0.0,0.0,0.0,0.0,0.0,0.5346,0.5819,0.5646,0.0,0.0,0.0,0.0,0.0,0.0,0.0,0.0,0.0,0.0,1.1172,1.3048,1.3744,0.0,0.0,1.5924,1.5575,1.5317,1.6312,1.6522,1.493,1.5756,0.0,0.0,0.0,0.0,0.0,0.0,0.0,0.0,0.0,0.0,0.0,0.0,0.0,0.0,0.0,0.0,0.0,0.0,0.0,0.0,0.0,0.0,0.0,0.0,0.0,0.0,0.0,0.0,0.0,0.0,0.0,0.0,0.0,0.0,0.0,0.0,0.0,0.0,0.0,0.0,0.0,0.0,0.0,0.0,0.0,0.0,0.0,0.0,0.0,0.0,0.0,0.0,0.1487,0.1746,0.1887,0.2029,0.2129,0.215,0.2123,0.2148,0.1854,0.1658,0.0,0.0,0.0,0.0,0.0,0.0,0.0,0.0,0.0,0.0,0.0,0.0,0.0,0.0,0.0,0.0,0.0,0.0,0.0,0.0,0.0,0.0,0.0,0.0,0.0,0.0,0.0,0.0,0.0,0.0,0.0,0.0,0.0,0.0,0.0,0.0,0.0,0.0,0.0,0.0,0.0,1.0597,1.2425,1.2548,1.3026,0.0,1.4686,1.4459,1.4441,1.583,1.6253,1.4386,0.0,0.0,0.0,0.0,0.0,0.0,0.0,0.0,0.0,0.0,0.0,0.0,0.0,0.0,0.0,0.0,0.0,0.0,0.0,0.0,0.0,0.0,0.0,0.0,0.0,0.0,0.0,0.0,0.0,0.0,0.0,0.0,0.0,0.0,0.0,0.0,0.0,0.0,0.0,0.0,0.0,0.0,0.0,0.0,0.0,0.0,0.0,0.0,0.0,0.0,0.0,0.0,0.0,0.0,0.1598,0.1816,0.1959,0.2019,0.2078,0.2072,0.1996,0.1645,0.0,0.0,0.0,0.0,0.0,0.0,0.0,0.0,0.0,0.0,0.0,0.0,0.0,0.0,0.0,0.0,0.0,0.0,0.0,0.0,0.0,0.0,0.0,0.0,0.0,0.0,0.0,0.2686,0.0,0.0,0.0,0.0,0.0,0.0,0.0,0.0,0.0,0.0,0.0,0.0,0.0,0.0,1.0505,1.1251,1.1899,1.2514,0.0,0.0,1.3156,1.325,1.4265,1.4623,0.0,0.0,0.0,0.0,0.0,0.0,0.0,0.0,0.0,0.0,0.0,0.0,0.0,0.0,0.0,0.0,0.0,0.0,0.0,0.0,0.0,0.0,0.0,0.0,0.0,0.0,0.0,0.0,0.0,0.0,0.0,0.0,0.0,0.0,0.0,0.0,0.0,0.0,0.0,0.0,0.0,0.0,0.0,0.0,0.0,0.0,0.0,0.0,0.0,0.0,0.0,0.0,0.0,0.0,0.1497,0.2034,0.2363,0.2742,0.3161,0.2802,0.2548,0.2445,0.1584,0.1366,0.0,0.0,0.0,0.0,0.0,0.0,0.0,0.0,0.0,0.0,0.0,0.0,0.0,0.0,0.0,0.0,0.0,0.0,0.0,0.0,0.0,0.0,0.0,0.0,0.0,0.0,0.0,0.0,0.0,0.0,0.0,0.0,0.0,0.0,0.0,0.0,0.0,0.0,0.0,0.0,0.0,0.0,1.123,1.1459,0.0,0.0,0.0,1.2525,1.2884,0.0,0.0,0.0,0.0,0.0,0.0,0.0,0.0,0.0,0.0,0.0,0.0,0.0,0.0,0.0,0.0,0.0,0.0,0.0,0.0,0.0,0.0,0.0,0.0,0.0,0.0,0.0,0.0,0.0,0.0,0.0,0.0,0.0,0.0,0.0,0.0,0.0,0.0,0.0,0.0,0.0,0.0,0.0,0.0,0.0,0.0,0.0,0.0,0.0,0.0,0.0,0.0,0.0,0.0,0.0,0.0,0.0,0.2764,0.3267,0.4019,0.4915,0.3832,0.322,0.3175,0.1697,0.1137,0.0,0.0,0.0,0.0,0.0,0.0,0.0,0.0,0.0,0.0,0.0,0.0,0.0,0.0,0.0,0.0,0.0,0.0,0.0,0.0,0.0,0.0,0.0,0.0,0.0,0.0,0.0,0.0,0.0,0.0,0.0,0.0,0.0,0.0,0.0,0.0,0.0,0.0,0.0,0.0,0.0,0.9659,1.1602,1.1014,1.066,0.0,0.0,1.219,1.293,1.3612,0.0,0.0,0.0,0.0,0.0,0.0,0.0,0.0,0.0,0.0,0.0,0.0,0.0,0.0,0.0,0.0,0.0,0.0,0.0,0.0,0.0,0.0,0.0,0.0,0.0,0.0,0.0,0.0,0.0,0.0,0.0,0.0,0.0,0.0,0.0,0.0,0.0,0.0,0.0,0.0,0.0,0.0,0.0,0.0,0.0,0.0,0.0,0.0,0.0,0.0,0.0,0.0,0.0,0.0,0.0,0.0,0.3329,0.4151,0.5007,0.5845,0.4597,0.3888,0.3842,0.2305,0.1694,0.0,0.0,0.0,0.0,0.0,0.0,0.0,0.0,0.0,0.0,0.0,0.0,0.0,0.0,0.0,0.0,0.0,0.0,0.0,0.0,0.0,0.0,0.0,0.0,0.0,0.0,0.0,0.0,0.0,0.0,0.0,0.0,0.0,0.0,0.0,0.0,0.0,0.0,0.0,0.0,0.0,0.9299,1.0637,1.0292,0.0,0.0,0.0,0.0,1.2959,1.2532,0.0,0.0,0.0,0.0,0.0,0.0,0.0,0.0,0.0,0.0,0.0,0.0,0.0,0.0,0.0,0.0,0.0,0.0,0.0,0.0,0.0,0.0,0.0,0.0,0.0,0.0,0.0,0.0,0.0,0.0,0.0,0.0,0.0,0.0,0.0,0.0,0.0,0.0,0.0,0.0,0.0,0.0,0.0,0.0,0.0,0.0,0.0,0.0,0.0,0.0,0.0,0.0,0.0,0.0,0.0,0.0,0.3811,0.4548,0.5676,0.7264,0.6071,0.5135,0.4552,0.3084,0.2333,0.0,0.0,0.0,0.0,0.0,0.0,0.0,0.0,0.0,0.0,0.0,0.0,0.0,0.0,0.0,0.0,0.0,0.0,0.0,0.0,0.0,0.0,0.0,0.0,0.0,0.0,0.0,0.0,0.0,0.0,0.0,0.0,0.0,0.0,0.0,0.0,0.0,0.0,0.0,0.0,0.8219,0.8804,1.0215,0.0,0.0,0.0,0.0,0.0,0.0,1.2035,1.1698,0.0,0.0,0.0,0.0,0.0,0.0,0.0,0.0,0.0,0.0,0.0,0.0,0.0,0.0,0.0,0.0,0.0,0.0,0.0,0.0,0.0,0.0,0.0,0.0,0.0,0.0,0.0,0.0,0.0,0.0,0.0,0.0,0.0,0.0,0.0,0.0,0.0,0.0,0.0,0.0,0.0,0.0,0.0,0.0,0.0,0.0,0.0,0.0,0.0,0.0,0.0,0.0,0.0,0.0,0.0,0.4248,0.484,0.6256,0.8551,0.7506,0.643,0.55,0.4077,0.308,0.2576,0.0,0.0,0.0,0.0,0.0,0.0,0.0,0.0,0.0,0.0,0.0,0.0,0.0,0.0,0.0,0.0,0.0,0.0,0.0,0.0,0.0,0.0,0.0,0.0,0.0,0.0,0.0,0.0,0.0,0.0,0.0,0.0,0.0,0.0,0.0,0.0,0.0,0.0,0.0,0.7635,0.8193,0.0,0.0,0.0,0.0,0.0,0.0,0.0,0.0,1.1266,0.0,0.0,0.0,0.0,0.0,0.0,0.0,0.0,0.0,0.0,0.0,0.0,0.0,0.0,0.0,0.0,0.0,0.0,0.0,0.0,0.0,0.0,0.0,0.0,0.0,0.0,0.0,0.0,0.0,0.0,0.0,0.0,0.0,0.0,0.0,0.0,0.0,0.0,0.0,0.0,0.0,0.0,0.0,0.0,0.0,0.0,0.0,0.0,0.0,0.0,0.0,0.0,0.0,0.0,0.0,0.0,0.5559,0.7125,0.8911,0.79,0.7325,0.7344,0.5341,0.4166,0.395,0.0,0.0,0.0,0.0,0.0,0.0,0.0,0.0,0.0,0.0,0.0,0.0,0.0,0.0,0.0,0.0,0.0,0.0,0.0,0.0,0.0,0.0,0.0,0.0,0.0,0.0,0.0,0.0,0.0,0.0,0.0,0.0,0.0,0.0,0.0,0.0,0.0,0.0,0.5621,0.6307,0.0,0.0,0.0,0.0,0.0,0.0,0.0,0.0,1.131,0.0,0.0,0.0,0.0,0.0,0.0,0.0,0.0,0.0,0.0,0.0,0.0,0.0,0.0,0.0,0.0,0.0,0.0,0.0,0.0,0.0,0.0,0.0,0.0,0.0,0.0,0.0,0.0,0.0,0.0,0.0,0.0,0.0,0.0,0.0,0.0,0.0,0.0,0.0,0.0,0.0,0.0,0.0,0.0,0.0,0.0,0.0,0.0,0.0,0.0,0.0,0.0,0.0,0.0,0.0,0.0,0.0,0.0,0.6569,0.853,0.8381,0.8068,0.7573,0.63,0.5388,0.0,0.0,0.0,0.0,0.0,0.0,0.0,0.0,0.0,0.0,0.0,0.0,0.0,0.0,0.0,0.0,0.0,0.0,0.0,0.0,0.0,0.0,0.0,0.0,0.0,0.0,0.0,0.0,0.0,0.0,0.0,0.0,0.0,0.0,0.0,0.0,0.0,0.0,0.0,0.0,0.0,0.0,0.0,0.0,0.0,0.0,0.0,0.0,0.0,0.0,0.0,0.0,0.0,0.0,0.0,0.0,0.0,0.0,0.0,0.0,0.0,0.0,0.0,0.0,0.0,0.0,0.0,0.0,0.0,0.0,0.0,0.0,0.0,0.0,0.0,0.0,0.0,0.0,0.0,0.0,0.0,0.0,0.0,0.0,0.0,0.0,0.0,0.0,0.0,0.0,0.0,0.0,0.0,0.0,0.0,0.0,0.0,0.0,0.0,0.0,0.0,0.0,0.0,0.0,0.0,0.0,0.0,0.0,0.59,0.7957,0.8662,0.86,0.7721,0.6887,0.6201,0.0,0.0,0.0,0.0,0.0,0.0,0.0,0.0,0.0,0.0,0.0,0.0,0.0,0.0,0.0,0.0,0.0,0.0,0.0,0.0,0.0,0.0,0.0,0.0,0.0,0.0,0.0,0.0,0.0,0.0,0.0,0.0,0.0,0.0,0.0,0.0,0.0,0.0,0.0,0.0,0.0,0.0,0.0,0.0,0.0,0.0,0.0,0.0,1.0157,0.0,0.0,0.0,0.0,0.0,0.0,0.0,0.0,0.0,0.0,0.0,0.0,0.0,0.0,0.0,0.0,0.0,0.0,0.0,0.0,0.0,0.0,0.0,0.0,0.0,0.0,0.0,0.0,0.0,0.0,0.0,0.0,0.0,0.0,0.0,0.0,0.0,0.0,0.0,0.0,0.0,0.0,0.0,0.0,0.0,0.0,0.0,0.0,0.0,0.0,0.0,0.0,0.0,0.0,0.0,0.0,0.0,0.0,0.0,0.5718,0.7417,0.8332,0.8715,0.8595,0.6984,0.5859,0.0,0.0,0.0,0.0,0.0,0.0,0.0,0.0,0.0,0.0,0.0,0.0,0.0,0.0,0.0,0.0,0.0,0.0,0.0,0.0,0.0,0.0,0.0,0.0,0.0,0.0,0.0,0.0,0.0,0.0,0.0,0.0,0.0,0.0,0.0,0.0,0.0,0.0,0.0,0.0,0.0,0.0,0.0,0.0,0.0,0.0,0.0,0.0,0.0,0.0,0.0,0.0,0.0,0.0,0.0,0.0,0.0,0.0,0.0,0.0,0.0,0.0,0.0,0.0,0.0,0.0,0.0,0.0,0.0,0.0,0.0,0.0,0.0,0.0,0.0,0.0,0.0,0.0,0.0,0.0,0.0,0.0,0.0,0.0,0.0,0.0,0.0,0.0,0.0,0.0,0.0,0.0,0.0,0.0,0.0,0.0,0.0,0.0,0.0,0.0,0.0,0.0,0.0,0.0,0.0,0.0,0.0,0.0,0.5016,0.6432,0.7607,0.7845,0.7186,0.6226,0.5415,0.0,0.0,0.0,0.0,0.0,0.0,0.0,0.0,0.0,0.0,0.0,0.0,0.0,0.0,0.0,0.0,0.0,0.0,0.0,0.0,0.0,0.0,0.0,0.0,0.0,0.0,0.0,0.0,0.0,0.0,0.0,0.0,0.0,0.0,0.0,0.0,0.0,0.0,0.0,0.0,0.0,0.0,0.0,0.0,0.0,0.0,0.0,0.0,0.0,0.0,0.0,0.0,0.0,0.0,0.0,0.0,0.0,0.0,0.0,0.0,0.0,0.0,0.0,0.0,0.0,0.0,0.0,0.0,0.0,0.0,0.0,0.0,0.0,0.0,0.0,0.0,0.0,0.0,0.0,0.0,0.0,0.0,0.0,0.0,0.0,0.0,0.0,0.0,0.0,0.0,0.0,0.0,0.0,0.0,0.0,0.0,0.0,0.0,0.0,0.0,0.0,0.0,0.0,0.0,0.0,0.0,0.0,0.0,0.0,0.5545,0.6597,0.6704,0.5899,0.5469,0.5035,0.0,0.0,0.0,0.0,0.0,0.0,0.0,0.0,0.0,0.0,0.0,0.0,0.0,0.0,0.0,0.0,0.0,0.0,0.0,0.0,0.0,0.0,0.0,0.0,0.0,0.0,0.0,0.0,0.0,0.0,0.0,0.0,0.0,0.0,0.0,0.0,0.0,0.0,0.0,0.0,0.0,0.0,0.0,0.0,0.0,0.0,0.0,0.0,0.0,0.0,0.0,0.0,0.0,0.0,0.0,0.0,0.0,0.0,0.0,0.0,0.0,0.0,0.0,0.0,0.0,0.0,0.0,0.0,0.0,0.0,0.0,0.0,0.0,0.0,0.0,0.0,0.0,0.0,0.0,0.0,0.0,0.0,0.0,0.0,0.0,0.0,0.0,0.0,0.0,0.0,0.0,0.0,0.0,0.0,0.0,0.0,0.0,0.0,0.0,0.0,0.0,0.0,0.0,0.0,0.0,0.0,0.0,0.0,0.0,0.4908,0.5235,0.5393,0.5426,0.5111,0.4704,0.0,0.0,0.0,0.0,0.0,0.0,0.0,0.0,0.0,0.0,0.0,0.0,0.0,0.0,0.0,0.0,0.0,0.0,0.0,0.0,0.0,0.0,0.0,0.0,0.0,0.0,0.0,0.0,0.0,0.0,0.0,0.0,0.0,0.0,0.0,0.0,0.0,0.0,0.0,0.0,0.0,0.0,0.0,0.0,0.0,0.0,0.0,0.0,0.0,0.0,0.0,0.0,0.0,0.0,0.0,0.0,0.0,0.0,0.0,0.0,0.0,0.0,0.0,0.0,0.0,0.0,0.0,0.0,0.0,0.0,0.0,0.0,0.0,0.0,0.0,0.0,0.0,0.0,0.0,0.0,0.0,0.0,0.0,0.0,0.0,0.0,0.0,0.0,0.0,0.0,0.0,0.0,0.0,0.0,0.0,0.0,0.0,0.0,0.0,0.0,0.0,0.0,0.0,0.0,0.0,0.0,0.0,0.0,0.0,0.3632,0.4212,0.4588,0.469,0.4643,0.4446,0.4126,0.0,0.0,0.0,0.0,0.0,0.0,0.0,0.0,0.0,0.0,0.0,0.0,0.0,0.0,0.0,0.0,0.0,0.0,0.0,0.0,0.0,0.0,0.0,0.0,0.0,0.0,0.0,0.0,0.0,0.0,0.0,0.0,0.0,0.0,0.0,0.0,0.0,0.0,0.0,0.0,0.0,0.0,0.0,0.0,0.0,0.0,0.0,0.0,0.0,0.0,0.0,0.0,0.0,0.0,0.0,0.0,0.0,0.0,0.0,0.0,0.0,0.0,0.0,0.0,0.0,0.0,0.0,0.0,0.0,0.0,0.0,0.0,0.0,0.0,0.0,0.0,0.0,0.0,0.0,0.0,0.0,0.0,0.0,0.0,0.0,0.0,0.0,0.0,0.0,0.0,0.0,0.0,0.0,0.0,0.0,0.0,0.0,0.0,0.0,0.0,0.0,0.0,0.0,0.0,0.0,0.0,0.0,0.0,0.2809,0.3477,0.3957,0.4208,0.426,0.4212,0.0,0.0,0.0,0.0,0.0,0.0,0.0,0.0,0.0,0.0,0.0,0.0,0.0,0.0,0.0,0.0,0.0,0.0,0.0,0.0,0.0,0.0,0.0,0.0,0.0,0.0,0.0,0.0,0.0,0.0,0.0,0.0,0.0,0.0,0.0,0.0,0.0,0.0,0.0,0.0,0.0,0.0,0.0,0.0,0.0,0.0,0.0,0.0,0.0,0.0,0.0,0.0,0.0,0.0,0.0,0.0,0.0,0.0,0.0,0.0,0.0,0.0,0.0,0.0,0.0,0.0,0.0,0.0,0.0,0.0,0.0,0.0,0.0,0.0,0.0,0.0,0.0,0.0,0.0,0.0,0.0,0.0,0.0,0.0,0.0,0.0,0.0,0.0,0.0,0.0,0.0,0.0,0.0,0.0,0.0,0.0,0.0,0.0,0.0,0.0,0.0,0.0,0.0,0.0,0.0,0.0,0.0,0.0,0.1677,0.2508,0.3049,0.3559,0.4087,0.3969,0.3911,0.0,0.0,0.0,0.0,0.0,0.0,0.0,0.0,0.0,0.0,0.0,0.0,0.0,0.0,0.0,0.0,0.0,0.0,0.0,0.0,0.0,0.0,0.0,0.0,0.0,0.0,0.0,0.0,0.0,0.0,0.0,0.0,0.0,0.0,0.0,0.0,0.0,0.0,0.0,0.0,0.0,0.0,0.0,0.0,0.0,0.0,0.0,0.0,0.0,0.0,0.0,0.0,0.0,0.0,0.0,0.0,0.0,0.0,0.0,0.0,0.0,0.0,0.0,0.0,0.0,0.0,0.0,0.0,0.0,0.0,0.0,0.0,0.0,0.0,0.0,0.0,0.0,0.0,0.0,0.0,0.0,0.0,0.0,0.0,0.0,0.0,0.0,0.0,0.0,0.0,0.0,0.0,0.0,0.0,0.0,0.0,0.0,0.0,0.0,0.0,0.0,0.0,0.0,0.0,0.0,0.0,0.0,0.0,0.0,0.2531,0.3016,0.3583,0.4184,0.3992,0.3992,0.0,0.0,0.0,0.0,0.0,0.0,0.0,0.0,0.0,0.0,0.0,0.0,0.0,0.0,0.0,0.0,0.0,0.0,0.0,0.0,0.0,0.0,0.0,0.0,0.0,0.0,0.0,0.0,0.0,0.0,0.0,0.0,0.0,0.0,0.0,0.0,0.0,0.0,0.0,0.0,0.0,0.0,0.0,0.0,0.0,0.0,0.0,0.0,0.0,0.0,0.0,0.0,0.0,0.0,0.0,0.0,0.0,0.0,0.0,0.0,0.0,0.0,0.0,0.0,0.0,0.0,0.0,0.0,0.0,0.0,0.0,0.0,0.0,0.0,0.0,0.0,0.0,0.0,0.0,0.0,0.0,0.0,0.0,0.0,0.0,0.0,0.0,0.0,0.0,0.0,0.0,0.0,0.0,0.0,0.0,0.0,0.0,0.0,0.0,0.0,0.0,0.0,0.0,0.0,0.0,0.0,0.0,0.0,0.0,0.3038,0.335,0.381,0.4354,0.4024,0.4013,0.0,0.0,0.0,0.0,0.0,0.0,0.0,0.0,0.0,0.0,0.0,0.0,0.0,0.0,0.0,0.0,0.0,0.0,0.0,0.0,0.0,0.0,0.0,0.0,0.0,0.0,0.0,0.0,0.0,0.0,0.0,0.0,0.0,0.0,0.0,0.0,0.0,0.0,0.0,0.0,0.0,0.0,0.0,0.0,0.0,0.0,0.0,0.0,0.0,0.0,0.0,0.0,0.0,0.0,0.0,0.0,0.0,0.0,0.0,0.0,0.0,0.0,0.0,0.0,0.0,0.0,0.0,0.0,0.0,0.0,0.0,0.0,0.0,0.0,0.0,0.0,0.0,0.0,0.0,0.0,0.0,0.0,0.0,0.0,0.0,0.0,0.0,0.0,0.0,0.0,0.0,0.0,0.0,0.0,0.0,0.0,0.0,0.0,0.0,0.0,0.0,0.0,0.0,0.0,0.0,0.0,0.0,0.0,0.0,0.3885,0.3889,0.4131,0.4556,0.4045,0.3885,0.0,0.0,0.0,0.0,0.0,0.0,0.0,0.0,0.0,0.0,0.0,0.0,0.0,0.0,0.0,0.0,0.0,0.0,0.0,0.0,0.0,0.0,0.0,0.0,0.0,0.0,0.0,0.0,0.0,0.0,0.0,0.0,0.0,0.0,0.0,0.0,0.0,0.0,0.0,0.0,0.0,0.0,0.0,0.0,0.0,0.0,0.0,0.0,0.0,0.0,0.0,0.0,0.0,0.0,0.0,0.0,0.0,0.0,0.0,0.0,0.0,0.0,0.0,0.0,0.0,0.0,0.0,0.0,0.0,0.0,0.0,0.0,0.0,0.0,0.0,0.0,0.0,0.0,0.0,0.0,0.0,0.0,0.0,0.0,0.0,0.0,0.0,0.0,0.0,0.0,0.0,0.0,0.0,0.0,0.0,0.0,0.0,0.0,0.0,0.0,0.0,0.0,0.0,0.0,0.0,0.0,0.0,0.0,0.0,0.0,0.4184,0.4088,0.3949,0.3778,0.3821,0.4136,0.0,0.0,0.0,0.0,0.0,0.0,0.0,0.0,0.0,0.0,0.0,0.0,0.0,0.0,0.0,0.0,0.0,0.0,0.0,0.0,0.0,0.0,0.0,0.0,0.0,0.0,0.0,0.0,0.0,0.0,0.0,0.0,0.0,0.0,0.0,0.0,0.0,0.0,0.0,0.0,0.0,0.0,0.0,0.0,0.0,0.0,0.0,0.0,0.0,0.0,0.0,0.0,0.0,0.0,0.0,0.0,0.0,0.0,0.0,0.0,0.0,0.0,0.0,0.0,0.0,0.0,0.0,0.0,0.0,0.0,0.0,0.0,0.0,0.0,0.0,0.0,0.0,0.0,0.0,0.0,0.0,0.0,0.0,0.0,0.0,0.0,0.0,0.0,0.0,0.0,0.0,0.0,0.0,0.0,0.0,0.0,0.0,0.0,0.0,0.0,0.0,0.0,0.0,0.0,0.0,0.0,0.0,0.0,0.0,0.0,0.4465,0.4045,0.4003,0.4067,0.0,0.0,0.0,0.0,0.0,0.0,0.0,0.0,0.0,0.0,0.0,0.0,0.0,0.0,0.0,0.0,0.0,0.0,0.0,0.0,0.0,0.0,0.0,0.0,0.0,0.0,0.0,0.0,0.0,0.0,0.0,0.0,0.0,0.0,0.0,0.0,0.0,0.0,0.0,0.0,0.0,0.0,0.0,0.0,0.0,0.0,0.0,0.0,0.0,0.0,0.0,0.0,0.0,0.0,0.0,0.0,0.0,0.0,0.0,0.0,0.0,0.0,0.0,0.0,0.0,0.0,0.0,0.0,0.0,0.0,0.0,0.0,0.0,0.0,0.0,0.0,0.0,0.0,0.0,0.0,0.0,0.0,0.0,0.0,0.0,0.0,0.0,0.0,0.0,0.0,0.0,0.0,0.0,0.0,0.0,0.0,0.0,0.0,0.0,0.0,0.0,0.0,0.0,0.0,0.0,0.0,0.0,0.0,0.0,0.0,0.0,0.5011,0.4471,0.4429,0.0,0.4407,0.0,0.0,0.0,0.0,0.0,0.0,0.0,0.0,0.0,0.0,0.0,0.0,0.0,0.0,0.0,0.0,0.0,0.0,0.0,0.0,0.0,0.0,0.0,0.0,0.0,0.0,0.0,0.0,0.0,0.0,0.0,0.0,0.0,0.0,0.0,0.0,0.0,0.0,0.0,0.0,0.0,0.0,0.0,0.0,0.0,0.0,0.0,0.0,0.0,0.0,0.0,0.0,0.0,0.0,0.0,0.0,0.0,0.0,0.0,0.0,0.0,0.0,0.0,0.0,0.0,0.0,0.0,0.0,0.0,0.0,0.0,0.0,0.0,0.0,0.0,0.0,0.0,0.0,0.0,0.0,0.0,0.0,0.0,0.0,0.0,0.0,0.0,0.0,0.0,0.0,0.0,0.0,0.0,0.0,0.0,0.0,0.0,0.0,0.0,0.0,0.0,0.0,0.0,0.0,0.0,0.0,0.0,0.0,0.0,0.0,0.0,0.0,0.4173,0.4003,0.4013,0.0,0.0,0.0,0.0,0.0,0.0,0.0,0.0,0.0,0.0,0.0,0.0,0.0,0.0,0.0,0.0,0.0,0.0,0.0,0.0,0.0,0.0,0.0,0.0,0.0,0.0,0.0,0.0,0.0,0.0,0.0,0.0,0.0,0.0,0.0,0.0,0.0,0.0,0.0,0.0,0.0,0.0,0.0,0.0,0.0,0.0,0.0,0.0,0.0,0.0,0.0,0.0,0.0,0.0,0.0,0.0,0.0,0.0,0.0,0.0,0.0,0.0,0.0,0.0,0.0,0.0,0.0,0.0,0.0,0.0,0.0,0.0,0.0,0.0,0.0,0.0,0.0,0.0,0.0,0.0,0.0,0.0,0.0,0.0,0.0,0.0,0.0,0.0,0.0,0.0,0.0,0.0,0.0,0.0,0.0,0.0,0.0,0.0,0.0,0.0,0.0,0.0,0.0,0.0,0.0,0.0,0.0,0.0,0.0,0.0,0.52,0.4926,0.429,0.3975,0.3975,0.0,0.0,0.0,0.0,0.0,0.0,0.0,0.0,0.0,0.0,0.0,0.0,0.0,0.0,0.0,0.0,0.0,0.0,0.0,0.0,0.0,0.0,0.0,0.0,0.0,0.0,0.0,0.0,0.0,0.0,0.0,0.0,0.0,0.0,0.0,0.0,0.0,0.0,0.0,0.0,0.0,0.0,0.0,0.0,0.0,0.0,0.0,0.0,0.0,0.0,0.0,0.0,0.0,0.0,0.0,0.0,0.0,0.0,0.0,0.0,0.0,0.0,0.0,0.0,0.0,0.0,0.0,0.0,0.0,0.0,0.0,0.0,0.0,0.0,0.0,0.0,0.0,0.0,0.0,0.0,0.0,0.0,0.0,0.0,0.0,0.0,0.0,0.0,0.0,0.0,0.0,0.0,0.0,0.0,0.0,0.0,0.0,0.0,0.0,0.0,0.0,0.0,0.0,0.0,0.0,0.0,0.0,0.0,0.0,0.0,0.5452,0.0,0.0,0.0,0.4104,0.0,0.0,0.0,0.0,0.0,0.0,0.0,0.0,0.0,0.0,0.0,0.0,0.0,0.0,0.0,0.0,0.0,0.0,0.0,0.0,0.0,0.0,0.0,0.0,0.0,0.0,0.0,0.0,0.0,0.0,0.0,0.0,0.0,0.0,0.0,0.0,0.0,0.0,0.0,0.0,0.0,0.0,0.0,0.0,0.0,0.0,0.0,0.0,0.0,0.0,0.0,0.0,0.0,0.0,0.0,0.0,0.0,0.0,0.0,0.0,0.0,0.0,0.0,0.0,0.0,0.0,0.0,0.0,0.0,0.0,0.0,0.0,0.0,0.0,0.0,0.0,0.0,0.0,0.0,0.0,0.0,0.0,0.0,0.0,0.0,0.0,0.0,0.0,0.0,0.0,0.0,0.0,0.0,0.0,0.0,0.0,0.0,0.0,0.0,0.0,0.0,0.0,0.0,0.0,0.0,0.0,0.0,0.0,0.0,0.0,0.0,0.0,0.0,0.0,0.0,0.0,0.0,0.0,0.0,0.0,0.0,0.0,0.0,0.0,0.0,0.0,0.0,0.0,0.0,0.0,0.0,0.0,0.0,0.0,0.0,0.0,0.0,0.0,0.0,0.0,0.0,0.0,0.0,0.0,0.0,0.0,0.0,0.0,0.0,0.0,0.0,0.0,0.0,0.0,0.0,0.0,0.0,0.0,0.0,0.0,0.0,0.0,0.0,0.0,0.0,0.0,0.0,0.0,0.0,0.0,0.0,0.0,0.0,0.0,0.0,0.0,0.0,0.0,0.0,0.0,0.0,0.0,0.0,0.0,0.0,0.0,0.0,0.0,0.0,0.0,0.0,0.0,0.0,0.0,0.0,0.0,0.0,0.0,0.0,0.0,0.0,0.0,0.0,0.0,0.0,0.0,0.0,0.0,0.0,0.0,0.0,0.0,0.0,0.0,0.0,0.0,0.0,0.0,0.0,0.0,0.0,0.0,0.0,0.0,0.0,0.0,0.0,0.0,0.0,0.0,0.0,0.0,0.0,0.0,0.0,0.0,0.0,0.0,0.0,0.0,0.0,0.0,0.0,0.0,0.0,0.0,0.0,0.0,0.0,0.0,0.0,0.0,0.0,0.0,0.0,0.0,0.0,0.0,0.0,0.0,0.0,0.0,0.0,0.0,0.0,0.0,0.0,0.0,0.0,0.0,0.0,0.0,0.0,0.0,0.0,0.0,0.0,0.0,0.0,0.0,0.0,0.0,0.0,0.0,0.0,0.0,0.0,0.0,0.0,0.0,0.0,0.0,0.0,0.0,0.0,0.0,0.0,0.0,0.0,0.0,0.0,0.0,0.0,0.0,0.0,0.0,0.0,0.0,0.0,0.0,0.0,0.0,0.0,0.0,0.0,0.0,0.0,0.0,0.0,0.0,0.0,0.0,0.0,0.0,0.0,0.0,0.0,0.0,0.0,0.0,0.0,0.0,0.0,0.0,0.0,0.0,0.0,0.0,0.0,0.0,0.0,0.0,0.0,0.0,0.0,0.0,0.0,0.0,0.0,0.0,0.0,0.0,0.0,0.0,0.0,0.0,0.0,0.0,0.0,0.0,0.0,0.0,0.0,0.0,0.0,0.0,0.0,0.0,0.0,0.0,0.0,0.0,0.0,0.0,0.0,0.0,0.0,0.0,0.0,0.0,0.0,0.0,0.0,0.0,0.0,0.0,0.0,0.0,0.0,0.0,0.0,0.0,0.0,0.0,0.0,0.0,0.0,0.0,0.0,0.0,0.0,0.0,0.0,0.0,0.0,0.0,0.0,0.0,0.0,0.0,0.0,0.0,0.0,0.0,0.0,0.0,0.0,0.0,0.0,0.0,0.0,0.0,0.0,0.0,0.0,0.0,0.0,0.0,0.0,0.0,0.0,0.0,0.0,0.0,0.0,0.0,0.0,0.0,0.0,0.0,0.0,0.0,0.0,0.0,0.0,0.0,0.0,0.0,0.0,0.0,0.0,0.0,0.0,0.0,0.0,0.0,0.0,0.0,0.0,0.0,0.0,0.0,0.0,0.0,0.0,0.0,0.0,0.0,0.0,0.0,0.0,0.0,0.0,0.0,0.0,0.0,0.0,0.0,0.0,0.0,0.0,0.0,0.0,0.0,0.0,0.0,0.0,0.0,0.0,0.0,0.0,0.0,0.0,0.0,0.0,0.0,0.0,0.0,0.0,0.0,0.0,0.0,0.0,0.0,0.0,0.0,0.0,0.0,0.0,0.0,0.0,0.0,0.0,0.0,0.0,0.0,0.0,0.0,0.0,0.0,0.0,0.0,0.0,0.0,0.0,0.0,0.0,0.0,0.0,0.0,0.0,0.0,0.0,0.0,0.0,0.0,0.0,0.0,0.0,0.0,0.0,0.0,0.0,0.0,0.0,0.0,0.0,0.0,0.0,0.0,0.0,0.0,0.0,0.0,0.0,0.0,0.0,0.0,0.0,0.0,0.0,0.0,0.0,0.0,0.0,0.0,0.0,0.0,0.0,0.0,0.0,0.0,0.0,0.0,0.0,0.0,0.0,0.0,0.0,0.0,0.0,0.0,0.0,0.0,0.0,0.0,0.0,0.0,0.0,0.0,0.0,0.0,0.0,0.0,0.0,0.0,0.0,0.0,0.0,0.0,0.0,0.0,0.0,0.0,0.0,0.0,0.0,0.0,0.0,0.0,0.0,0.0,0.0,0.0,0.0,0.0,0.0,0.0,0.0,0.0,0.0,0.0,0.0,0.0,0.0,0.0,0.0,0.0,0.0,0.0,0.0,0.0,0.0,0.0,0.0,0.0,0.0,0.0,0.0,0.0,0.0,0.0,0.0,0.0,0.0,0.0,0.0,0.0,0.0,0.0,0.0,0.0,0.0,0.0,0.0,0.0,0.0,0.0,0.0,0.0,0.0,0.0,0.0,0.0,0.0,0.0,0.0,0.0,0.0,0.0,0.0,0.0,0.0,0.0,0.0,0.0,0.0,0.0,0.0,0.0,0.0,0.0,0.0,0.0,0.0,0.0,0.0,0.0,0.0,0.0,0.0,0.0,0.0,0.0,0.0,0.0,0.0,0.0,0.0,0.0,0.0,0.0,0.0,0.0,0.0,0.0,0.0,0.0,0.0,0.0,0.0,0.0,0.0,0.0,0.0,0.0,0.0,0.0,0.0,0.0,0.0,0.0,0.0,0.0,0.0,0.0,0.0,0.0,0.0,0.0,0.0,0.0,0.0,0.0,0.0,0.0,0.0,0.0,0.0,0.0,0.0,0.0,0.0,0.0,0.0,0.0,0.0,0.0,0.0,0.0,0.0,0.0,0.0,0.0,0.0,0.0,0.0,0.0,0.0,0.0,0.0,0.0,0.0,0.0,0.0,0.0,0.0,0.0,0.0,0.0,0.0,0.0,0.0,0.0,0.0,0.0,0.0,0.0,0.0,0.0,0.0,0.0,0.0,0.0,0.0,0.0,0.0,0.0,0.0,0.0,0.0,0.0,0.0,0.0,0.0,0.0,0.0,0.0,0.0,0.0,0.0,0.0,0.0,0.0,0.0,0.0,0.0,0.0,0.0,0.0,0.0,0.0,0.0,0.0,0.0,0.0,0.0,0.0,0.0,0.0,0.0,0.0,0.0,0.0,0.0,0.0,0.0,0.0,0.0,0.0,0.0,0.0,0.0,0.0,0.0,0.0,0.0,0.0,0.0,0.0,0.0,0.0,0.0,0.0,0.0,0.0,0.0,0.0,0.0,0.0,0.0,0.0,0.0,0.0,0.0,0.0,0.0,0.0,0.0,0.0,0.0,0.0,0.0,0.0,0.0,0.0,0.0,0.0,0.0,0.0,0.0,0.0,0.0,0.0,0.0,0.0,0.0,0.0,0.0,0.0,0.0,0.0,0.0,0.0,0.0,0.0,0.0,0.0,0.0,0.0,0.0,0.0,0.0,0.0,0.0,0.0,0.0,0.0,0.0,0.0,0.0,0.0,0.0,0.0,0.0,0.0,0.0,0.0,0.0,0.0,0.0,0.0,0.0,0.0,0.0,0.0,0.0,0.0,0.0,0.0,0.0,0.0,0.0,0.0,0.0,0.0,0.0,0.0,0.0,0.0,0.0,0.0,0.0,0.0,0.0,0.0,0.0,0.0,0.0,0.0,0.0,0.0,0.0,0.0,0.0,0.0,0.0,0.0,0.0,0.0,0.0,0.0,0.0,0.0,0.0,0.0,0.0,0.0,0.0,0.0,0.0,0.0,0.0,0.0,0.0,0.0,0.0,0.0,0.0,0.0,0.0,0.0,0.0,0.0,0.0,0.0,0.0,0.0,0.0,0.0,0.0,0.0,0.0,0.0,0.0,0.0,0.0,0.0]}],[{"header":{"parameterUnit":"kt","parameterCategory":2,"dx":1,"dy":1,"la1":29.587661999999998,"la2":31.0,"lo1":-88.76705300000003,"lo2":-86.6583820000003,"nx":115,"ny":88,"refTime":"2022-10-31T18:00:00:Z","depth":0,"parameterNumber":2,"parameterNumberName":"V-component_of_WINDS"},"data":[12.9842,12.9842,12.9842,12.9842,12.9842,12.9842,12.9842,12.9842,12.9842,12.9842,12.9842,12.9842,12.9842,12.9842,12.9842,12.9842,12.9842,12.9842,12.9842,12.9842,12.9842,12.9842,12.9842,12.9842,12.9842,12.9842,13.0145,13.1966,13.4468,13.5075,13.6596,13.9715,13.9942,13.9942,13.9942,13.994,13.9942,13.9932,13.9932,13.994,13.9937,13.9952,13.9959,13.9961,13.9957,13.9952,13.9947,13.9947,13.9947,13.9947,13.9947,13.9945,13.9942,13.994,13.9935,13.9932,13.9249,13.9249,13.8566,13.7655,13.6365,13.5832,13.5073,13.3709,13.2649,13.1888,13.1511,13.0601,13.0449,13.0145,13.0069,12.992,12.9842,12.9842,12.9842,12.9842,12.9842,12.9842,12.9842,12.9842,12.9842,12.9839,12.9834,12.9719,12.9719,12.9664,12.9507,12.941,12.9734,12.9293,12.8842,12.8779,12.8714,12.8222,12.8117,12.8044,12.7795,12.7882,12.7733,12.6673,12.6,12.5701,12.5327,12.4954,12.3969,12.2773,12.1962,12.1289,12.1301,12.2112,12.2624,12.3072,12.3383,12.3383,12.3757,12.9842,12.9842,12.9842,12.9842,12.9842,12.9842,12.9842,12.9842,12.9842,12.9842,12.9846,12.9846,12.9842,12.9842,12.9842,12.9842,12.9846,12.9853,12.9849,12.9846,12.9849,12.9853,12.9853,12.9846,12.9851,12.9851,13.0003,13.2126,13.4858,13.5467,13.6691,13.928,13.9965,13.9965,13.9965,13.9963,13.9959,13.9947,13.9947,13.9952,13.9815,13.9905,13.9606,13.9685,13.9914,13.9913,13.9913,13.9911,13.9835,13.9679,13.9366,13.9284,13.9278,13.9117,13.9262,13.8956,13.8273,13.7893,13.7435,13.6224,13.4779,13.3638,13.3024,13.204,13.0752,13.0299,13.0299,12.9998,12.9998,12.9922,12.9922,12.9846,12.9844,12.9844,12.9844,12.9844,12.9844,12.9842,12.9842,12.9842,12.9839,12.9837,12.9719,12.9554,12.9502,12.944,12.9263,12.9058,12.889,12.864,12.8487,12.8352,12.8266,12.8143,12.7931,12.772,12.7421,12.7197,12.6075,12.5028,12.4206,12.3832,12.3458,12.3159,12.2411,12.1301,12.0404,11.988,12.1065,12.21,12.2773,12.3371,12.3608,12.4056,12.443,12.9851,12.9842,12.9842,12.9842,12.9842,12.9842,12.9842,12.9842,12.9842,12.9856,12.9952,12.9953,12.9953,12.9953,12.9953,12.9955,12.9955,12.9952,12.995,12.9952,12.9955,12.9952,12.9953,12.9955,12.9952,12.9953,13.0179,13.147,13.4587,13.5724,13.7089,13.9451,13.9908,13.9908,13.9908,13.9908,13.998,13.9819,13.9975,13.8769,13.6962,13.6959,13.7111,13.7116,13.7115,13.7031,13.7184,13.7108,13.7184,13.7181,13.7332,13.7329,13.74,13.7468,13.7313,13.7007,13.6627,13.6022,13.5569,13.4584,13.3295,13.2536,13.1851,13.1228,12.994,12.995,12.995,12.9946,12.9946,12.9946,12.9946,12.9944,12.9944,12.986,12.9858,12.9851,12.9846,12.9842,12.9834,12.9826,12.9728,12.9713,12.9546,12.943,12.9268,12.9185,12.8904,12.8707,12.8572,12.8424,12.831,12.8195,12.82,12.8068,12.7122,12.6599,12.6524,12.554,12.4493,12.382,12.3308,12.2411,12.16,12.1289,12.0703,11.9805,11.9357,11.8983,11.9794,12.1577,12.2624,12.3757,12.4281,12.4729,12.4879,12.987,12.9934,12.9934,12.9858,12.9934,12.9858,12.9858,12.9858,12.9858,12.9952,13.0047,13.0049,13.0048,13.0047,13.0045,13.0045,13.0047,12.9968,13.0049,13.0047,13.0047,13.0044,13.0048,12.9969,13.0047,13.0049,13.0429,13.1413,13.3842,13.5742,13.7415,13.8481,13.8405,13.8178,13.8254,13.8254,13.825,13.8091,13.8023,13.7048,13.5685,13.515,13.4919,13.5074,13.5152,13.5375,13.5298,13.5145,13.5069,13.493,13.493,13.4838,13.4836,13.4984,13.4981,13.4829,13.4676,13.4371,13.384,13.2853,13.1942,13.1261,13.0882,13.0269,12.9965,12.9973,13.0052,13.0049,13.0048,13.0048,13.0047,13.0047,13.0044,12.9959,12.9874,12.9864,12.9851,12.9839,12.9826,12.9719,12.9675,12.952,12.9388,12.9197,12.9087,12.8865,12.86,12.8427,12.8299,12.7633,12.7439,12.7093,12.7296,12.6599,12.554,12.4867,12.4717,12.3969,12.2997,12.271,12.2486,12.1215,12.003,11.9581,11.9431,11.8983,11.8609,11.8298,11.927,12.0841,12.2336,12.458,12.5402,12.5103,12.5178,12.9971,12.9893,13.0047,12.974,12.9971,12.9892,12.9817,13.0047,12.9667,12.9972,12.9823,12.9899,12.9673,12.922,12.9296,12.9372,12.922,12.922,12.9145,12.9899,12.9296,12.922,12.9296,12.9899,12.9069,12.9673,13.0128,13.0209,13.2408,13.446,13.5603,13.5227,13.5683,13.6062,13.6214,13.6138,13.5832,13.5602,13.5229,13.5082,13.4626,13.4778,13.493,13.4778,13.4626,13.4626,13.4778,13.4854,13.493,13.5006,13.493,13.4702,13.4544,13.4386,13.4456,13.4227,13.3167,13.2788,13.2258,13.1423,13.0662,13.0434,13.0126,13.0052,12.998,13.0061,13.0061,13.0059,13.006,13.0059,13.0059,13.0059,13.0056,12.9974,12.9887,12.9874,12.9849,12.9734,12.97,12.9546,12.9465,12.9203,12.9038,12.892,12.8775,12.8581,12.8331,12.816,12.768,12.6557,12.6111,12.5663,12.5178,12.4355,12.3521,12.3234,12.2997,12.2399,12.1514,12.1065,12.0841,11.9805,11.8459,11.8609,11.8747,11.8298,11.8373,11.9058,11.9805,12.0841,12.2336,12.5103,12.5926,12.5402,12.4879,12.6942,12.7012,12.6936,12.6936,12.7164,12.8075,12.7856,12.7105,12.703,12.6954,12.6954,12.7109,12.6954,12.7109,12.7185,12.7185,12.7185,12.7337,12.7337,12.7337,12.6802,12.7185,12.7033,12.6878,12.7261,12.6954,12.7258,12.8855,13.113,13.3181,13.4778,13.4702,13.5005,13.5005,13.4778,13.4474,13.3791,13.2728,13.212,13.1969,13.1893,13.1893,13.1969,13.1817,13.1817,13.1817,13.1817,13.1817,13.1893,13.1969,13.2044,13.2044,13.2044,13.2044,13.2044,13.2044,13.1361,13.1209,13.1057,13.0374,13.0146,13.0067,13.0067,13.007,13.007,12.9842,12.9842,12.9691,12.9842,12.9918,12.9918,12.9991,12.9988,12.9984,12.9897,12.9883,12.9842,12.9709,12.9537,12.9425,12.9172,12.8927,12.8715,12.8563,12.8444,12.8085,12.7837,12.7508,12.6673,12.5327,12.443,12.4056,12.3234,12.225,12.1962,12.16,12.099,12.0317,11.9805,11.9656,11.9132,11.8609,11.8384,11.8224,11.8149,11.8149,11.8149,11.9132,11.9955,12.0317,12.1439,12.3234,12.4044,12.3981,12.3159,12.4977,12.4972,12.4972,12.4971,12.5124,12.5731,12.5738,12.5059,12.4983,12.4983,12.4983,12.4983,12.5362,12.4983,12.4983,12.5135,12.5059,12.4983,12.4907,12.5135,12.5514,12.5211,12.5135,12.5287,12.5135,12.5287,12.6122,12.7716,13.0146,13.1817,13.3259,13.3563,13.3107,13.3259,13.3259,13.3411,13.1969,13.0905,13.0526,13.0526,13.045,13.0526,13.045,13.045,13.0526,13.0526,13.0526,13.045,13.0374,13.0298,13.0146,13.007,13.007,13.007,13.007,13.007,13.007,13.007,13.007,13.007,13.007,13.007,13.007,13.007,12.9842,12.9539,12.9083,12.8628,12.84,12.7868,12.764,12.7868,12.8095,12.8313,12.8666,12.9023,12.9742,12.9574,12.9366,12.9222,12.8987,12.8707,12.8324,12.8084,12.7152,12.7186,12.7009,12.6461,12.5477,12.3608,12.2561,12.2262,12.1514,12.0467,12.0104,12.0179,11.9282,11.8609,11.8597,11.8523,11.8448,11.8448,11.8224,11.8149,11.8149,11.8149,11.8224,11.9058,12.003,12.0329,12.0616,12.1427,12.2025,12.1813,12.1226,12.4983,12.4983,12.4983,12.4831,12.4603,12.3312,12.354,12.4831,12.4831,12.4755,12.4831,12.4527,12.4375,12.4679,12.4755,12.4527,12.4375,12.4451,12.4375,12.4451,12.4072,12.4375,12.4451,12.4375,12.3996,12.4983,12.6046,12.6805,12.9539,13.0526,13.0602,13.0602,13.1057,13.1057,13.1057,13.0981,13.0678,13.0298,13.007,13.007,13.007,13.007,13.007,13.007,13.007,13.007,13.007,13.007,13.007,13.007,13.007,13.007,13.007,13.007,13.007,13.007,13.007,13.007,13.007,13.007,12.9994,12.9539,12.9767,12.9842,12.9387,12.8172,12.7716,12.7261,12.6805,12.6122,12.559,12.597,12.6348,12.6788,12.7279,12.7837,12.8776,12.8854,12.8516,12.8324,12.7996,12.7763,12.7141,12.6711,12.5736,12.5331,12.4473,12.3989,12.2844,12.1123,12.0887,12.0588,11.9955,11.8822,11.8672,11.8822,11.8298,11.8373,11.8224,11.8149,11.8149,11.8224,11.8149,11.8149,11.8149,11.8224,11.831,11.8983,11.9805,12.0478,12.0691,12.1065,12.0168,11.988,11.988,12.1718,12.1642,12.1718,12.1718,12.1566,12.1034,12.111,12.1566,12.1718,12.1718,12.1794,12.1718,12.1794,12.1794,12.1718,12.1642,12.1642,12.1718,12.1718,12.1718,12.1718,12.1946,12.187,12.1566,12.2173,12.2097,12.3312,12.5211,12.7033,12.7944,12.9007,12.9842,13.007,12.9918,12.9767,12.9767,12.9767,12.9691,12.9615,12.9691,12.9842,12.9918,12.9918,13.007,13.007,13.007,13.007,13.007,13.007,13.007,13.007,13.007,13.007,13.007,13.007,13.007,13.007,13.007,12.9994,12.9918,12.9083,12.8552,12.84,12.7868,12.6805,12.635,12.597,12.5742,12.5438,12.5135,12.5059,12.5059,12.5328,12.523,12.5544,12.5436,12.6022,12.5889,12.5665,12.5416,12.5166,12.5032,12.4783,12.444,12.4043,12.295,12.1943,12.0861,11.9855,11.9394,11.9159,11.9103,11.8609,11.8373,11.8298,11.8149,11.8149,11.8149,11.8149,11.8149,11.8149,11.8149,11.8149,11.8149,11.8149,11.8224,11.8384,11.8459,11.8758,11.9345,12.0093,11.957,11.8448,11.8448,11.8747,11.9971,11.9971,11.9971,11.9971,11.9971,11.9971,11.9971,11.9971,11.9971,11.9971,11.9971,11.9971,11.9971,11.9971,12.0123,12.0199,12.0123,11.9971,11.9971,12.0047,12.0199,11.9971,12.0047,12.0351,12.0199,12.0579,12.2325,12.4375,12.4983,12.7716,12.9159,12.9691,12.9994,12.9463,12.8628,12.8324,12.8324,12.84,12.8476,12.8703,12.9083,12.9159,12.9387,13.007,13.007,13.007,13.007,13.007,13.007,13.007,13.007,13.007,13.007,13.007,13.007,13.007,13.007,13.007,12.9994,12.8628,12.7868,12.7185,12.6653,12.6198,12.5135,12.4603,12.4148,12.3996,12.3312,12.2857,12.3223,12.3097,12.3574,12.3533,12.3659,12.3587,12.3841,12.3644,12.3372,12.3285,12.3635,12.389,12.3689,12.3549,12.2307,12.1065,12.038,11.9299,11.899,11.8583,11.839,11.8313,11.8171,11.816,11.8149,11.8149,11.8149,11.8298,11.8298,11.8523,11.8298,11.8149,11.8224,11.8448,11.8298,11.8149,11.8224,11.831,11.8224,11.8224,11.8672,11.8523,11.8224,11.8224,11.8224,11.9971,11.9971,11.9971,11.9971,11.9971,11.9971,11.9971,11.9971,11.9971,11.9971,11.9971,11.9971,11.9971,11.9971,11.9971,11.9971,11.9971,11.9971,11.9971,11.9971,11.9971,11.9971,11.9895,11.9744,11.9516,12.0655,12.2173,12.3692,12.4755,12.7185,12.8703,12.9311,12.8855,12.8096,12.5362,12.5135,12.5135,12.5135,12.5362,12.6274,12.7109,12.7489,12.8172,12.8779,12.9083,12.8931,12.8931,12.8931,12.8855,12.8931,12.9007,12.9007,12.9083,12.9159,12.9235,12.9311,12.9463,12.9539,12.9615,12.6805,12.5514,12.5059,12.4983,12.4603,12.4375,12.3464,12.2401,12.2325,12.1397,12.0377,11.995,11.9952,12.086,12.1292,12.1567,12.1695,12.2391,12.2569,12.2324,12.2083,12.2882,12.334,12.2853,12.2111,12.0541,11.962,11.8889,11.8605,11.8655,11.8507,11.8433,11.8283,11.828,11.8482,11.8908,11.8523,11.8523,11.8448,11.8747,11.9345,11.942,11.9495,11.927,11.8747,11.8971,11.9495,11.8971,11.8373,11.8672,11.9058,11.8672,11.8822,11.8384,11.831,11.8224,11.9971,11.9971,11.9971,11.9971,11.9971,11.9971,11.9971,11.9971,11.982,11.9971,11.9971,11.9971,11.9971,11.9971,11.9895,11.982,11.9668,11.9668,11.982,11.9744,11.9668,11.9971,11.9516,11.9136,11.8832,11.9971,12.1262,12.2401,12.3464,12.5438,12.635,12.6577,12.6426,12.6046,12.4755,12.4983,12.4983,12.4983,12.4983,12.5438,12.5514,12.5742,12.6274,12.6577,12.6881,12.6881,12.6957,12.6957,12.6881,12.6881,12.6805,12.6653,12.6577,12.6501,12.6501,12.6501,12.6426,12.6426,12.635,12.5287,12.4527,12.3388,12.3236,12.2553,12.1718,12.1034,12.0958,12.073,12.0248,11.9751,11.982,11.9367,11.9765,11.9942,12.0091,12.0191,12.087,12.1221,12.1048,12.0984,12.0515,12.0552,12.028,12.0346,11.9331,11.9106,11.8655,11.8692,11.8595,11.8525,11.8507,11.8647,11.8635,11.9178,11.9731,12.003,12.0243,12.0243,12.0616,12.0916,12.1065,12.1726,12.1726,12.0904,12.0616,12.0841,12.0691,12.0392,12.0243,12.003,12.0467,12.0916,12.0243,11.8684,11.8448,11.9885,11.9733,11.8443,11.7994,11.8073,11.8073,11.8073,11.8073,11.8073,11.8073,11.7997,11.8073,11.8073,11.7997,11.8073,11.8073,11.8073,11.8073,11.7921,11.8073,11.8073,11.8073,11.8149,11.7693,11.7921,11.8984,12.0503,12.1642,12.2553,12.4451,12.4375,12.3312,12.3085,12.3085,12.3085,12.2705,12.2781,12.2857,12.2933,12.3464,12.3692,12.3996,12.4299,12.4831,12.4983,12.4983,12.4907,12.4983,12.4983,12.5059,12.5135,12.5287,12.5362,12.5287,12.5287,12.5287,12.5362,12.5287,12.5211,12.3768,12.2705,12.1566,12.149,12.1186,12.0427,12.0047,11.9971,11.98,11.9668,11.9468,11.9516,11.9223,11.9004,11.8934,11.8996,11.896,11.9282,11.9526,11.9481,11.9781,11.9255,11.8795,11.8795,11.8795,11.8795,11.8795,11.8795,11.8776,11.8702,11.8624,11.9125,11.9332,11.9599,12.0057,12.1301,12.1663,12.1962,12.2325,12.2698,12.2474,12.225,12.3072,12.3446,12.3072,12.2624,12.2336,12.2187,12.2262,12.2112,12.1738,12.2037,12.2486,12.099,11.9207,11.8684,11.9358,11.9123,11.6019,11.5004,11.5188,11.5036,11.5188,11.5491,11.534,11.5415,11.5567,11.5264,11.5567,11.5415,11.5643,11.5567,11.5264,11.5112,11.5491,11.5491,11.5112,11.5567,11.5947,11.663,11.7238,11.8073,11.9592,12.1186,12.2477,12.3236,12.2173,12.0427,12.0883,12.0275,12.0351,12.0807,12.0731,12.0731,12.0731,12.1262,12.1946,12.2401,12.2857,12.4072,12.4451,12.4603,12.4527,12.4148,12.3996,12.392,12.392,12.392,12.3692,12.3768,12.3768,12.3768,12.3768,12.3768,12.3464,12.1946,12.0275,12.0047,12.0123,12.0199,11.9895,11.9895,11.982,11.9664,11.9464,11.9304,11.9161,11.8994,11.8853,11.8809,11.8809,11.8795,11.8795,11.8795,11.8795,11.8795,11.8795,11.8795,11.8795,11.8795,11.8795,11.8795,11.8795,11.8795,11.8664,11.9208,11.9711,12.0209,12.0477,12.149,12.2809,12.3608,12.3981,12.443,12.4792,12.4418,12.3969,12.3969,12.458,12.4418,12.4729,12.3895,12.3371,12.4206,12.4505,12.367,12.2997,12.271,12.1675,12.0691,11.9869,11.5673,11.5468,11.4785,11.4615,11.4769,11.477,11.4794,11.5036,11.496,11.5036,11.5112,11.496,11.496,11.5036,11.4884,11.4732,11.496,11.5112,11.5112,11.5112,11.5112,11.496,11.5112,11.5415,11.6327,11.7466,11.8984,11.9592,12.0351,12.0807,12.0807,12.0047,11.944,11.9668,11.982,11.9668,11.9516,11.9516,11.9592,11.9895,12.0503,12.0579,12.0958,12.1186,12.1262,12.1186,12.1186,12.1338,12.1414,12.1414,12.1566,12.1718,12.1642,12.1718,12.1718,12.1718,12.1718,12.1642,12.1262,12.0807,12.0123,11.9971,11.9971,11.989,11.9788,11.9592,11.9468,11.9456,11.9278,11.9217,11.9129,11.8945,11.8774,11.8795,11.8795,11.8795,11.8795,11.8795,11.8795,11.8795,11.8795,11.8795,11.8795,11.8795,11.8795,11.8795,11.8795,11.8795,11.9209,11.9904,12.0406,12.0969,12.1687,12.3074,12.4178,12.5016,12.6,12.6524,12.6898,12.6823,12.6449,12.6374,12.6,12.6449,12.7134,12.6225,12.5028,12.6075,12.6973,12.6075,12.5103,12.4068,12.2935,12.2411,12.1479,11.2046,11.2008,11.2167,11.2373,11.2607,11.2613,11.2656,11.2834,11.291,11.291,11.291,11.2834,11.291,11.2758,11.2834,11.291,11.291,11.2758,11.2834,11.2758,11.2758,11.3213,11.3973,11.4732,11.5871,11.7238,11.8149,11.8529,11.7618,11.7769,11.7845,11.7693,11.7769,11.7997,11.7466,11.7769,11.7845,11.7921,11.7997,11.8225,11.8832,11.9516,11.9971,11.9971,12.0047,12.0123,12.0123,11.9971,11.9971,11.9971,11.9971,11.9971,11.9971,11.9971,11.9971,11.9971,11.9971,11.9971,11.9971,11.9971,11.9895,11.9895,11.982,11.978,11.9618,11.944,11.9367,11.9251,11.918,11.9107,11.8942,11.8844,11.8756,11.8795,11.8795,11.8795,11.8795,11.8795,11.8795,11.8795,11.8795,11.8795,11.8795,11.8795,11.8795,11.8795,11.8795,11.8795,11.9218,11.9998,12.0661,12.1515,12.3122,12.4496,12.5312,12.5851,12.6599,12.6449,12.6898,12.7421,12.7795,12.8106,12.7571,12.7733,12.7957,12.7583,12.7047,12.7197,12.7546,12.7484,12.7421,12.5926,12.4505,12.3772,12.1666,10.8979,10.9219,10.9226,10.9415,10.9819,10.9906,10.9895,11.01,11.0252,10.9948,11.0404,11.0176,11.0328,11.0404,11.0328,11.0176,11.0252,11.048,11.0632,11.0708,11.0632,11.1391,11.2682,11.4201,11.534,11.6706,11.8225,11.7542,11.6251,11.5567,11.534,11.5491,11.5643,11.5264,11.5795,11.5871,11.5112,11.5264,11.5491,11.6251,11.7542,11.9136,11.982,11.9971,11.9971,11.9971,11.9971,11.9971,11.9971,11.9971,11.9971,11.9971,11.9971,11.9971,11.9971,11.9971,11.9971,11.9971,11.9971,11.9895,11.9807,11.9778,11.974,11.9586,11.9403,11.9304,11.9218,11.9081,11.91,11.8981,11.8853,11.8738,11.8729,11.8795,11.8795,11.8795,11.8795,11.8795,11.8795,11.8795,11.8795,11.8795,11.8795,11.8795,11.8795,11.8795,11.8795,11.8795,11.9011,11.9575,12.025,12.2532,12.4365,12.5331,12.6123,12.6237,12.6374,12.5776,12.6374,12.6973,12.7496,12.8106,12.8106,12.8106,12.8106,12.7807,12.7571,12.7558,12.7895,12.782,12.7353,12.6672,12.5715,12.3847,12.1679,10.892,10.8976,10.8901,10.9125,10.9319,10.9347,10.9401,10.9558,10.9801,10.9904,10.9836,10.9948,11.0024,11.0024,11.0024,11.0024,11.0024,11.0024,11.0024,11.0024,11.01,11.0936,11.2226,11.3138,11.4049,11.5643,11.6175,11.5719,11.4732,11.4656,11.496,11.4656,11.496,11.5112,11.4808,11.4504,11.5036,11.5491,11.6175,11.6934,11.7693,11.8984,11.9971,11.9971,11.9971,11.9971,11.9971,11.9971,11.9971,11.9971,11.9971,11.9971,11.9971,11.9971,11.9971,11.9971,11.9971,11.9971,11.9895,11.9732,11.9773,11.9717,11.9573,11.9424,11.9259,11.9148,11.9067,11.8853,11.8786,11.8659,11.8756,11.8795,11.8795,11.8795,11.8795,11.8795,11.8795,11.8795,11.8795,11.8795,11.8795,11.8795,11.8795,11.8795,11.8795,11.8795,11.8795,11.8795,11.887,11.9359,12.0946,12.3313,12.4976,12.5942,12.6285,12.6386,12.6075,12.5627,12.615,12.6823,12.7496,12.8032,12.8106,12.8106,12.8106,12.8106,12.8106,12.8019,12.7792,12.7504,12.7264,12.6484,12.5179,12.3387,12.1524,10.887,10.887,10.887,10.8994,10.9245,10.9277,10.9341,10.9458,10.9541,10.9649,10.967,10.971,10.9736,10.9821,10.9842,10.9943,11.0024,11.0024,11.0024,11.0024,11.01,11.0936,11.2378,11.253,11.3593,11.4277,11.3365,11.2606,11.2682,11.2758,11.2454,11.2682,11.2606,11.2606,11.2606,11.2758,11.253,11.2682,11.3289,11.4049,11.5036,11.663,11.8529,11.9364,11.9971,11.9971,11.9971,11.9971,11.9895,11.9895,11.9895,11.9971,11.944,11.8681,11.7542,11.7618,11.8225,11.8681,11.8605,11.9401,11.9615,11.9504,11.9374,11.918,11.9042,11.8867,11.856,11.7955,11.7676,11.7902,11.8644,11.872,11.8795,11.8795,11.8795,11.8795,11.8795,11.8795,11.8795,11.8795,11.8795,11.8795,11.8795,11.8795,11.8795,11.8795,11.8795,11.8795,11.8795,11.9885,12.1406,12.3474,12.4997,12.5665,12.5899,12.6012,12.5851,12.5776,12.6075,12.6823,12.7496,12.7957,12.8106,12.8106,12.8106,12.8106,12.797,12.7717,12.7361,12.7033,12.6601,12.5984,12.4574,12.3107,12.1334,10.8828,10.8828,10.8819,10.8917,10.9146,10.9159,10.9195,10.9319,10.9349,10.9387,10.9316,10.9423,10.9382,10.9478,10.9655,10.9819,10.9937,11.0024,11.0024,11.0024,10.9569,11.0708,11.1847,11.1695,11.2302,11.2986,11.1923,11.048,11.0404,11.0024,11.0632,11.0252,11.0328,11.0328,11.0404,11.01,11.0556,11.0784,11.1315,11.1999,11.3213,11.4656,11.6554,11.8225,11.8525,11.8602,11.8832,11.8984,11.906,11.906,11.906,11.8984,11.83,11.6552,11.5566,11.5795,11.6858,11.7679,11.771,11.873,11.9314,11.9229,11.9129,11.895,11.8844,11.8747,11.8097,11.7234,11.6698,11.6999,11.8277,11.8578,11.8729,11.8795,11.8795,11.8795,11.8795,11.8795,11.8795,11.8795,11.8795,11.8795,11.8795,11.8795,11.8795,11.8795,11.8795,11.8795,11.9161,12.0402,12.1912,12.3464,12.5083,12.5602,12.5899,12.6087,12.615,12.6225,12.6449,12.7197,12.7646,12.7957,12.8106,12.8106,12.8106,12.7982,12.7704,12.7375,12.6989,12.6477,12.5934,12.5433,12.4275,12.3097,12.1319,10.8707,10.8707,10.8707,10.8735,10.8789,10.8807,10.8802,10.8812,10.8881,10.8871,10.8967,10.9179,10.8909,10.9102,10.9065,10.9406,10.9543,10.969,10.9415,10.9417,10.8506,10.9721,11.0936,11.0024,10.9567,11.0621,11.0242,11.009,11.0013,11.0012,11.0016,11.0013,11.0012,11.0015,11.0013,11.0012,11.0014,11.0167,11.1078,11.1989,11.252,11.3887,11.4874,11.5937,11.601,11.6163,11.6165,11.609,11.586,11.5632,11.5632,11.5631,11.5557,11.5104,11.5108,11.5034,11.6389,11.7107,11.7424,11.8387,11.9235,11.9135,11.8942,11.8867,11.8831,11.8644,11.7977,11.7074,11.6632,11.6774,11.6849,11.7751,11.8503,11.8653,11.8729,11.8795,11.8795,11.8795,11.8795,11.8795,11.8795,11.8795,11.8795,11.8795,11.8795,11.8795,11.8795,11.8945,11.9678,12.0834,12.2323,12.3872,12.5961,12.7025,12.7108,12.7197,12.6898,12.6898,12.6973,12.7571,12.7957,12.792,12.7792,12.7894,12.783,12.7869,12.7625,12.6916,12.6319,12.59,12.5325,12.4535,12.3764,12.2961,12.1657,10.8651,10.8651,10.8651,10.8651,10.8651,10.8651,10.8651,10.8698,10.871,10.826,10.7558,10.7525,10.7155,10.6416,10.6427,10.6614,10.6814,10.7042,10.7263,10.7361,10.7742,10.835,10.9261,10.8424,10.8346,10.9858,11.0082,11.0007,11.0007,11.0008,11.0081,11.0007,11.0008,11.0081,11.0007,11.0008,11.0082,11.031,11.0843,11.1222,11.145,11.2741,11.3651,11.3645,11.4403,11.4938,11.4791,11.4866,11.4866,11.4485,11.3261,11.2343,11.2352,11.3116,11.3515,11.4046,11.568,11.7072,11.7349,11.8246,11.91,11.8918,11.8844,11.8822,11.8795,11.8795,11.7977,11.6999,11.6999,11.7225,11.6632,11.7375,11.745,11.7601,11.8202,11.872,11.8795,11.8795,11.8795,11.8795,11.8795,11.8795,11.8795,11.8795,11.8795,11.8795,11.8795,11.8795,11.9603,12.1088,12.2634,12.4172,12.655,12.7935,12.7955,12.7882,12.7508,12.7496,12.7496,12.7795,12.792,12.7652,12.7463,12.6975,12.6616,12.6916,12.7107,12.6173,12.5453,12.5105,12.4549,12.3696,12.3042,12.272,12.1796,10.7544,10.7544,10.7544,10.7544,10.7544,10.7544,10.746,10.7385,10.747,10.6598,10.5774,10.5549,10.4902,10.3861,10.4149,10.4085,10.4598,10.4761,10.4685,10.5138,10.6439,10.6895,10.704,10.8026,10.8784,10.9693,11.0074,11.0074,11.0074,11.0071,11.0074,11.0073,11.007,11.0074,11.0073,11.0071,11.0075,11.0074,11.0074,11.0149,11.0527,11.1439,11.1966,11.1957,11.3018,11.3709,11.3795,11.3797,11.3797,11.326,11.1572,11.0423,11.0667,11.1668,11.2452,11.3123,11.529,11.7064,11.7077,11.8133,11.9012,11.887,11.8783,11.8795,11.8795,11.8795,11.8052,11.7083,11.745,11.7375,11.6783,11.7008,11.7601,11.7751,11.8578,11.9171,11.8503,11.8578,11.872,11.8795,11.8795,11.8795,11.8795,11.8795,11.8795,11.8795,11.8795,11.8795,11.9922,12.136,12.2533,12.3614,12.5769,12.7393,12.764,12.7994,12.7832,12.7882,12.7882,12.8094,12.7652,12.7348,12.6931,12.6383,12.5765,12.585,12.627,12.5542,12.5009,12.4382,12.3854,12.3245,12.2817,12.2561,12.1871,10.3971,10.3971,10.3971,10.3971,10.413,10.3971,10.429,10.4046,10.429,10.4065,10.3766,10.3681,10.3402,10.3457,10.2982,10.3642,10.4014,10.3771,10.4211,10.4496,10.4837,10.5441,10.5952,10.8226,10.959,10.9969,11.0039,11.0041,11.0045,11.0043,11.0041,11.0045,11.0043,11.0039,11.0045,11.0043,11.0039,11.0043,11.0045,11.0047,11.0121,11.0349,11.0652,11.0646,11.1026,11.103,11.0954,11.0802,11.0802,11.0648,11.0263,11.0039,11.0201,11.146,11.2226,11.2898,11.4926,11.6835,11.7098,11.7941,11.8859,11.8794,11.8734,11.8729,11.8729,11.8503,11.7902,11.6557,11.6548,11.6398,11.6331,11.8729,11.8795,11.7902,11.9471,11.9321,11.7826,11.7902,11.8795,11.8795,11.8795,11.8795,11.8795,11.8795,11.8795,11.8795,11.8795,11.8795,11.9481,12.0909,12.2111,12.3119,12.4676,12.6539,12.7313,12.7943,12.7832,12.8094,12.8094,12.7894,12.7531,12.6812,12.6383,12.5883,12.5363,12.5235,12.5307,12.5124,12.474,12.4076,12.3444,12.2955,12.2514,12.2324,12.2228,10.3408,10.3408,10.3408,10.3408,10.3408,10.3408,10.3408,10.3408,10.3408,10.2959,10.2062,10.1977,10.1464,10.0689,10.0742,10.0969,10.1254,10.1427,10.1699,10.1995,10.224,10.3827,10.6473,10.8665,11.0031,11.0031,11.0031,11.0031,11.0031,11.0031,11.0031,11.0031,11.0031,11.0031,11.0031,11.0031,11.0031,11.0031,11.0031,11.0031,11.0031,11.0031,11.0031,11.0031,11.0031,11.0031,11.0031,11.0031,11.0031,11.0039,10.9988,10.9926,11.0007,11.1467,11.2208,11.2225,11.4189,11.5552,11.5699,11.676,11.7578,11.7689,11.8459,11.8672,11.8587,11.7826,11.7309,11.634,11.5504,11.4593,11.4067,11.4659,11.5111,11.5336,11.684,11.7826,11.6707,11.6999,11.7751,11.8503,11.8795,11.8795,11.8795,11.8795,11.8795,11.872,11.8729,11.8644,11.887,12.0374,12.1614,12.2183,12.3357,12.4976,12.5976,12.6533,12.6611,12.7795,12.7982,12.7818,12.7136,12.6124,12.5471,12.4779,12.4622,12.4443,12.4261,12.4086,12.3897,12.3683,12.3065,12.2584,12.2348,12.2132,12.2108,10.2146,10.2146,10.2146,10.2146,10.2146,10.2146,10.2072,10.2146,10.2072,10.1249,10.0492,10.0267,9.9679,9.8688,9.8887,9.9051,9.9384,9.9516,9.9686,9.9931,10.032,10.3128,10.6467,10.8971,11.0031,11.0031,11.0031,11.0031,11.0031,11.0031,11.0031,11.0031,11.0031,11.0031,11.0031,11.0031,11.0031,11.0031,11.0031,11.0031,11.0031,11.0031,11.0031,11.0031,11.0031,11.0031,11.0031,11.0031,11.0031,11.0035,10.9854,10.9794,10.9948,11.1379,11.232,11.2385,11.3612,11.4568,11.4693,11.5518,11.6039,11.6161,11.6816,11.7581,11.7581,11.6461,11.6009,11.5633,11.488,11.3592,11.2564,11.248,11.2672,11.2797,11.3667,11.4437,11.4911,11.5796,11.6849,11.7977,11.8503,11.8729,11.8795,11.8795,11.8795,11.8653,11.8428,11.8127,11.8569,11.9622,11.9622,12.0485,12.1877,12.3412,12.4639,12.5198,12.5976,12.7135,12.7204,12.6738,12.5647,12.5063,12.4423,12.3581,12.3515,12.3557,12.3372,12.3117,12.3137,12.3137,12.2678,12.2466,12.2228,12.2059,12.2059,9.8866,9.8791,9.8866,9.909,9.909,9.909,9.9165,9.9015,9.9015,9.9015,9.8866,9.894,9.8651,9.8669,9.8876,9.9023,9.9163,9.947,9.9701,10.0228,10.1686,10.3204,10.5632,10.8591,10.9955,11.0031,11.0031,11.0031,11.0031,10.9879,11.0031,10.9803,10.9652,10.9879,10.9576,10.9957,10.9803,10.9803,10.9955,11.0031,11.0031,11.0031,11.0031,11.0031,11.0031,11.0031,11.0031,11.0031,11.0031,11.0039,10.9856,10.9797,11.0087,11.1403,11.2198,11.217,11.3684,11.415,11.4497,11.4452,11.4611,11.4594,11.4783,11.4585,11.4921,11.4674,11.4379,11.4311,11.4016,11.3754,11.35,11.3319,11.3926,11.503,11.2245,11.0965,11.1761,11.4518,11.6172,11.6849,11.7902,11.8795,11.8795,11.8795,11.8795,11.8578,11.7751,11.7902,11.8344,11.8344,11.7892,11.8711,12.0246,12.1944,12.3882,12.4323,12.4569,12.5357,12.5268,12.4447,12.343,12.3622,12.3513,12.287,12.2461,12.2563,12.2556,12.2285,12.2134,12.2099,12.2154,12.23,12.2204,12.2108,12.2059,9.8566,9.8566,9.8566,9.8566,9.8566,9.8566,9.8566,9.8566,9.8566,9.8566,9.8566,9.8566,9.863,9.882,9.8955,9.9146,9.944,9.968,9.983,10.024,10.2598,10.4266,10.5328,10.844,11.0031,11.0031,11.0031,11.0031,10.9955,10.8971,10.844,10.8212,10.7377,10.6922,10.692,10.7833,10.844,10.8591,10.95,11.0031,11.0031,11.0031,11.0031,11.0031,11.0031,11.0031,11.0031,11.0031,10.9973,10.9927,10.9863,10.9795,10.9814,11.0344,11.0815,11.088,11.1304,11.173,11.1721,11.2542,11.2923,11.3128,11.3783,11.4235,11.4084,11.3178,11.2725,11.2505,11.1907,11.1133,11.1086,11.1073,11.1229,11.1765,11.0079,10.9423,11.004,11.2788,11.4978,11.6331,11.7751,11.8578,11.8795,11.8795,11.8795,11.872,11.8277,11.8353,11.8428,11.8202,11.8353,11.8758,11.9195,12.0423,12.2555,12.3084,12.3208,12.3042,12.2785,12.1556,12.1259,12.1701,12.1773,12.1058,12.0939,12.1011,12.0903,12.085,12.0894,12.0954,12.0844,12.1156,12.1513,12.1655,12.1702,9.6987,9.6987,9.7519,9.7753,9.7819,9.8352,9.8566,9.8566,9.8566,9.8566,9.8566,9.8566,9.871,9.8908,9.9038,9.9269,9.9538,9.9818,9.9865,10.047,10.3355,10.4949,10.5556,10.8438,11.0031,10.9955,10.9502,10.8969,10.8286,10.7226,10.6696,10.6545,10.5556,10.4949,10.5177,10.6087,10.7076,10.7531,10.8667,10.9502,11.0031,11.0031,11.0031,11.0031,11.0031,11.0031,11.0031,10.9975,10.9924,10.9791,10.9796,10.9772,10.9828,10.9808,10.984,10.9836,10.9836,10.9836,10.9979,11.0754,11.1321,11.1528,11.2231,11.2855,11.2698,11.1809,11.1209,11.1053,11.0145,10.9372,10.9343,10.9332,10.9428,10.9214,10.9125,10.9054,10.9304,11.0984,11.2947,11.4668,11.6774,11.7902,11.8052,11.8644,11.872,11.872,11.8202,11.8202,11.8503,11.8202,11.8052,11.8015,11.7935,11.8348,11.9149,11.9481,11.9512,11.941,11.8786,11.7744,11.8609,11.9268,11.9044,11.8866,11.9082,11.9112,11.8985,11.9006,11.9174,11.9285,11.9248,11.9728,12.0466,12.0775,12.087,9.3622,9.3996,9.5342,9.6089,9.6463,9.7744,9.8492,9.8492,9.8566,9.8566,9.8501,9.8604,9.8695,9.893,9.9157,9.9289,9.9553,9.9826,9.9865,10.0168,10.3279,10.4721,10.4949,10.7982,10.95,10.95,10.8212,10.6696,10.5478,10.5175,10.4949,10.4949,10.4721,10.4342,10.4797,10.4873,10.5784,10.7,10.7607,10.8442,10.9803,11.0031,11.0031,11.0031,10.9728,10.9652,10.973,10.9624,10.9411,10.9492,10.954,10.9734,10.9573,10.9769,10.9761,10.9685,10.9685,10.9761,10.9761,10.9601,10.9592,11.0122,10.9975,11.0105,11.0323,11.0185,11.0034,11.0029,10.9882,10.9713,10.9475,10.9308,10.9179,10.9295,10.9245,10.9111,10.8944,10.9012,10.9613,11.1693,11.4474,11.6247,11.6765,11.7518,11.8363,11.8307,11.7744,11.7396,11.8354,11.7753,11.6831,11.6617,11.6558,11.6649,11.6301,11.5898,11.5796,11.573,11.5099,11.53,11.6386,11.7162,11.703,11.6823,11.7133,11.7338,11.7212,11.6984,11.7246,11.778,11.7534,11.7683,11.8801,11.98,11.9871,9.2566,9.3538,9.4061,9.4968,9.6024,9.6622,9.7445,9.8492,9.8566,9.8566,9.8548,9.8779,9.8908,9.9038,9.9275,9.9538,9.9816,9.9851,9.9865,10.0092,10.2219,10.3281,10.3659,10.5556,10.6618,10.6543,10.6011,10.5556,10.4873,10.3811,10.3281,10.313,10.2065,10.1534,10.1762,10.2748,10.4038,10.5708,10.6924,10.829,10.9803,11.0031,11.0031,10.9728,10.7757,10.6616,10.6618,10.6513,10.6455,10.6375,10.6408,10.6922,10.8106,10.9155,10.9306,10.8317,10.8166,10.8162,10.8014,10.703,10.7408,10.9458,10.8847,10.8696,10.9685,10.9836,10.9836,10.9836,10.9836,10.9832,10.9499,10.8644,10.835,10.9093,10.9277,10.9021,10.8696,10.8595,10.9335,11.0845,11.2879,11.4604,11.5774,11.6272,11.6922,11.7902,11.7823,11.7724,11.8184,11.7884,11.7659,11.7468,11.616,11.5507,11.5702,11.2965,11.1262,11.2282,11.2149,11.3333,11.4449,11.5079,11.5235,11.5018,11.5121,11.5328,11.5263,11.4964,11.543,11.6291,11.6217,11.609,11.7231,11.8444,11.9229,9.0846,9.1761,9.2481,9.3737,9.5425,9.6026,9.7235,9.8737,9.8737,9.8745,9.8777,9.8959,9.9126,9.9279,9.9542,9.9727,9.9861,9.9865,9.9865,10.0092,10.1688,10.2447,10.2598,10.419,10.4949,10.4873,10.4342,10.3735,10.3052,10.2065,10.1536,10.1308,10.0396,9.9865,10.0092,10.1003,10.2672,10.4721,10.533,10.6848,10.8819,10.8513,10.821,10.8058,10.6085,10.4949,10.4949,10.4929,10.486,10.4771,10.4778,10.5289,10.6352,10.7408,10.7484,10.6571,10.6419,10.6419,10.6264,10.5359,10.5738,10.7711,10.695,10.7105,10.8469,10.8397,10.8241,10.862,10.8473,10.7904,10.7717,10.7316,10.728,10.811,10.8601,10.8711,10.8366,10.8278,10.8567,10.9624,11.0596,11.2316,11.3981,11.509,11.5916,11.7258,11.7813,11.7879,11.7976,11.7976,11.7603,11.7022,11.5444,11.4251,11.4958,11.0341,10.7927,10.9136,11.0258,11.1644,11.3502,11.4368,11.4513,11.444,11.4368,11.4575,11.4585,11.4196,11.4009,11.4632,11.4504,11.4663,11.559,11.716,11.823,8.8654,8.902,9.056,9.2492,9.4383,9.5946,9.7537,9.9093,9.9117,9.9129,9.9105,9.9152,9.9214,9.9167,9.9206,9.9559,9.9561,9.9407,9.9409,9.9561,10.1081,10.1991,10.2219,10.3735,10.4342,10.3811,10.2597,10.1382,10.0168,10.0016,9.9865,9.9941,9.9789,9.9713,9.9637,9.9561,10.1306,10.3659,10.3054,10.3964,10.6543,10.5552,10.4791,10.4791,10.4643,10.4496,10.4586,10.4557,10.4465,10.4464,10.4347,10.4454,10.4677,10.4753,10.4905,10.4829,10.4753,10.4677,10.4677,10.4374,10.4602,10.4905,10.4905,10.5359,10.6874,10.6041,10.5881,10.7004,10.5535,10.4406,10.4392,10.5245,10.6057,10.6469,10.7561,10.8071,10.7899,10.7842,10.7905,10.798,10.8204,10.947,11.2079,11.4016,11.5171,11.666,11.7319,11.7431,11.7506,11.7581,11.7059,11.573,11.3898,11.1851,11.0663,10.8112,10.7378,10.8484,10.94,11.0253,11.2346,11.4007,11.4079,11.4007,11.4079,11.3978,11.3772,11.3613,11.345,11.3195,11.316,11.345,11.4426,11.5947,11.7517,8.9075,8.9101,8.9627,9.1541,9.4319,9.4766,9.6579,9.8919,9.9146,9.9146,9.9163,9.9318,9.8182,9.6329,9.6211,9.6222,9.6298,9.6224,9.6222,9.6298,9.6677,9.6981,9.6983,9.7436,9.8269,9.9256,9.9026,9.918,9.9865,9.9865,9.9865,9.9713,9.8649,9.8042,9.7966,9.6829,9.7285,9.9332,10.032,10.1688,10.3277,10.2184,10.133,10.1333,10.1288,10.1324,10.1278,10.1291,10.1191,10.1153,10.1126,10.1648,10.2784,10.2935,10.3465,10.4526,10.3617,10.2935,10.2935,10.1799,10.2178,10.4299,10.3541,10.3693,10.498,10.5056,10.485,10.487,10.22,10.1016,10.1899,10.3535,10.4844,10.6011,10.7376,10.8012,10.7643,10.7496,10.7447,10.7447,10.7372,10.7892,10.8745,11.0106,11.2014,11.4424,11.5288,11.5777,11.6877,11.7025,11.6951,11.6566,11.3684,11.0868,10.7925,10.6373,10.6593,10.7594,10.8009,10.89,11.1624,11.2274,11.2491,11.3574,11.3935,11.3957,11.3647,11.3697,11.3643,11.3002,11.2901,11.3307,11.4212,11.5924,11.766,8.919,8.9256,8.9264,9.098,9.3343,9.3574,9.5012,9.7355,9.7431,9.7355,9.7447,9.7535,9.6622,9.4854,9.4856,9.4847,9.4833,9.4833,9.4833,9.483,9.4812,9.4817,9.4828,9.4814,9.5634,9.7224,9.73,9.822,9.9605,9.9913,9.9543,9.8798,9.7207,9.6372,9.6294,9.537,9.5665,9.7332,9.8299,9.8925,9.9263,9.8946,9.9102,9.9742,9.9226,9.8858,9.8862,9.8163,9.7825,9.7709,9.7699,9.8167,9.9228,9.9228,9.9682,10.0587,10.0364,10.0515,10.1117,10.0288,10.0591,10.2557,10.1799,10.1843,10.3366,10.2902,10.2321,10.1695,9.9868,9.8988,10.003,10.1465,10.302,10.4563,10.6038,10.697,10.7181,10.7171,10.709,10.7016,10.6498,10.6054,10.6236,10.6781,10.8628,11.1384,11.23,11.2947,11.4426,11.4796,11.4574,11.3717,11.2123,10.9702,10.8048,10.6542,10.6459,10.7244,10.7323,10.7672,11.0128,11.083,11.1336,11.2852,11.3574,11.3916,11.3448,11.4239,11.4842,11.336,11.3236,11.4877,11.5781,11.7279,11.8088,8.865,8.8791,8.884,9.0095,9.1656,9.2117,9.3179,9.4621,9.4854,9.4703,9.4386,9.4399,9.4397,9.4397,9.4318,9.4221,9.4253,9.4402,9.425,9.4245,9.4269,9.4276,9.4169,9.42,9.5069,9.6432,9.6584,9.738,9.9022,9.9249,9.8592,9.7115,9.5452,9.4615,9.4537,9.4423,9.5085,9.6674,9.6674,9.6038,9.4792,9.6169,9.7715,9.9384,9.7941,9.718,9.7101,9.5696,9.4902,9.489,9.4964,9.4914,9.4989,9.4914,9.491,9.5065,9.6274,9.7637,9.9072,9.9216,9.9041,9.9188,9.9092,9.9701,10.1039,9.9779,9.8551,9.804,9.8005,9.7986,9.8181,9.9516,10.1141,10.269,10.3856,10.508,10.6047,10.6355,10.6255,10.6255,10.4912,10.4104,10.4146,10.428,10.543,10.8009,10.8819,11.0028,11.1709,11.2152,11.1709,10.9822,10.9055,10.8893,10.8509,10.7108,10.6469,10.7284,10.716,10.7459,10.8448,10.9242,10.9694,11.1211,11.2491,11.2999,11.3461,11.5158,11.5745,11.3607,11.4663,11.6923,11.7279,11.7945,11.873,8.5665,8.5754,8.5925,8.6228,8.6888,8.9468,9.1517,9.3109,9.4247,9.3397,9.1174,9.1051,9.1047,9.0939,9.0939,9.0982,9.0932,9.0926,9.0926,9.0926,9.0909,9.0909,9.0922,9.0913,9.1732,9.3096,9.3247,9.4167,9.5699,9.5858,9.5637,9.5119,9.36,9.2763,9.2688,9.1538,9.1153,9.1522,9.2595,9.2978,9.2839,9.4355,9.5482,9.5975,9.5597,9.5434,9.5404,9.5086,9.4826,9.484,9.4866,9.4838,9.4838,9.4838,9.4838,9.4914,9.5213,9.5516,9.5891,9.5706,9.5397,9.523,9.5205,9.5927,9.7264,9.593,9.4591,9.4367,9.54,9.6081,9.6431,9.8541,10.0439,10.0868,10.2165,10.3115,10.3374,10.3239,10.3091,10.3077,10.2686,10.2469,10.2469,10.2469,10.2764,10.3795,10.5784,10.8377,11.0956,11.1619,11.0293,10.8303,10.7272,10.7346,10.7228,10.6375,10.6047,10.6127,10.5727,10.6051,10.6931,10.7509,10.8159,10.955,11.0325,11.0508,11.0092,11.1569,11.2597,11.287,11.4212,11.5639,11.5781,11.6281,11.6923,8.456,8.464,8.4757,8.4811,8.5012,8.6834,8.8576,9.0093,9.0247,8.9183,8.7664,8.7691,8.7611,8.7588,8.7585,8.754,8.7362,8.7362,8.7366,8.7438,8.7399,8.7403,8.7434,8.7403,8.8216,8.9729,8.9804,9.1111,9.335,9.3502,9.3521,9.3478,9.2565,9.1808,9.1123,9.0182,8.9713,8.9633,8.7514,8.6738,8.7505,8.7042,8.7163,8.7994,8.7223,8.6822,8.6863,8.6096,8.5692,8.5715,8.5685,8.6427,8.7866,8.8017,8.8699,9.0135,9.0975,9.1429,9.1429,9.1808,9.2209,9.2727,9.2775,9.2429,9.149,9.1122,9.1184,9.1747,9.3275,9.4325,9.4325,9.6554,9.8336,9.9067,10.052,10.1634,10.2276,10.2209,10.2038,10.195,10.1313,10.0775,10.0775,10.0112,9.961,9.9831,10.1732,10.462,10.764,10.8745,10.8672,10.7125,10.6756,10.6756,10.6727,10.6248,10.5901,10.5779,10.5232,10.5186,10.5597,10.5848,10.657,10.7889,10.8972,10.9158,10.883,11.0471,11.1214,11.1655,11.2785,11.4831,11.533,11.6352,11.6851,8.3802,8.3887,8.3887,8.3937,8.4006,8.4082,8.4994,8.643,8.4747,8.4406,8.4924,8.4941,8.4936,8.4924,8.4924,8.4779,8.4552,8.4548,8.4548,8.4543,8.454,8.4544,8.4543,8.454,8.5327,8.6616,8.6772,8.8251,9.0829,9.1287,9.1477,9.1465,9.1624,9.109,8.9803,8.9434,8.8951,8.8144,8.2578,8.0651,8.2515,7.9879,7.9027,8.0074,7.8782,7.764,7.7332,7.5878,7.4956,7.5178,7.4776,7.5895,7.8925,7.8773,7.9682,8.2409,8.3993,8.505,8.5422,8.6763,8.8218,8.9752,9.0135,8.8517,8.4664,8.6155,8.7948,8.9201,9.075,9.1938,9.2309,9.3657,9.5291,9.6839,9.8244,9.9731,10.0991,10.1002,10.0848,10.1117,10.0086,9.9181,9.9094,9.8076,9.7265,9.7339,9.9168,10.0848,10.3721,10.5195,10.6079,10.6594,10.6756,10.6756,10.6712,10.6416,10.6077,10.5812,10.5387,10.5075,10.4839,10.4784,10.5198,10.6373,10.7581,10.822,10.7988,11.0492,11.0662,10.9298,11.1381,11.3998,11.4069,11.5853,11.6375,8.0477,8.0555,8.0559,8.0524,8.0591,8.0591,8.1579,8.3018,8.1224,0.0,0.0,8.488,8.4869,8.4788,8.4785,8.4705,8.4526,8.4526,8.4526,8.4521,8.4502,8.4506,8.4526,8.4506,8.4723,8.5025,8.5025,8.5342,8.5961,8.7325,8.802,8.811,8.9243,8.9777,8.9399,8.8166,8.5509,8.1625,8.0275,8.1146,8.4129,8.3752,8.2978,8.1993,8.0325,7.8802,7.7417,7.5747,7.5511,7.6777,7.4248,7.3625,7.544,7.3095,7.1807,7.2411,7.265,7.3877,7.6568,7.7813,7.9782,8.2708,8.3992,8.2619,7.792,8.1551,8.415,8.4447,8.5923,8.7408,8.8765,9.0315,9.1949,9.3572,9.407,9.4875,9.6446,9.6531,9.7055,9.7919,9.7941,9.7604,9.7513,9.7205,9.6984,9.7192,9.8371,10.0259,10.188,10.2616,10.3721,10.5872,10.6226,10.6594,10.6639,10.6269,10.6019,10.5739,10.5387,10.5038,10.4696,10.4567,10.4693,10.5145,10.5145,10.5317,10.5081,10.6523,10.758,10.8062,10.9811,11.1216,11.1287,11.1715,11.2237,7.7056,7.7097,7.7097,7.7121,0.0,7.7159,7.7616,7.8297,7.7451,7.8016,7.9726,8.0621,8.0463,7.9644,7.9644,7.9576,7.9593,8.0419,8.0797,8.0872,8.1627,8.2005,8.201,8.201,8.2005,8.2005,8.2005,8.2463,8.3293,8.4129,8.4053,8.3298,8.3973,8.3978,8.3067,8.1561,7.9155,7.5901,7.678,7.8078,7.9575,7.8128,7.6891,7.6175,7.5338,0.0,0.0,0.0,0.0,0.0,0.0,0.0,0.0,6.7758,0.0,6.7138,6.5457,6.5158,6.672,6.7245,6.8287,6.9847,7.2046,7.1516,6.7439,7.0921,7.4255,7.6788,7.9239,8.1615,8.4086,8.6527,8.8215,8.9116,9.0676,9.1938,9.2755,9.3547,9.4631,9.5969,9.623,9.6428,9.7103,9.7165,9.7152,9.7161,9.7873,9.8866,10.0346,10.0701,10.1438,10.3809,10.4237,10.4489,10.5079,10.5047,10.4947,10.541,10.5283,10.5021,10.4623,10.4567,10.4567,10.4567,10.4567,10.4437,10.4147,10.4604,10.5255,10.5726,10.6957,10.8006,10.8098,10.8669,10.9668,7.4618,7.4618,7.4618,7.4618,7.4542,7.3636,7.3183,7.3258,7.356,7.3911,7.4288,7.5963,7.5736,7.4291,7.4518,7.4475,7.424,7.5893,7.6724,7.6719,7.8007,7.8616,7.8536,7.8536,7.8536,7.8616,7.8536,7.9296,8.066,8.0962,8.0424,7.9065,7.9362,7.8682,7.6946,0.0,0.0,0.0,7.374,7.5159,7.5627,7.3176,7.171,7.1406,7.0798,0.0,6.9942,6.8028,6.7099,6.7377,6.5542,0.0,0.0,0.0,0.0,0.0,0.0,0.0,0.0,0.0,0.0,0.0,5.869,5.8965,5.7932,6.045,6.3933,6.824,7.1887,7.494,7.7243,8.013,8.2358,8.3621,8.5997,8.8151,8.9413,9.0898,9.2453,9.4061,9.4488,9.5169,9.66,9.6908,9.6945,9.7215,9.7177,9.7482,9.8102,9.8323,9.9181,10.0627,10.0922,10.1326,10.2301,10.2345,10.2337,10.313,10.3363,10.3208,10.2997,10.3032,10.3123,10.3556,10.3701,10.3571,10.3553,10.3547,10.3554,10.3451,10.4439,10.5316,10.5295,10.6336,10.7692,7.4618,7.4618,7.4618,7.4618,7.4316,6.986,6.8047,6.8119,6.9621,7.1035,7.2555,7.4356,7.4123,7.2548,7.3989,7.3791,7.2574,7.4156,7.4991,7.4995,7.5142,7.5293,7.5293,7.5297,7.5222,7.5293,7.5297,7.5373,7.5595,7.7101,7.7701,7.755,7.8838,7.8758,7.6875,6.9686,6.7341,7.0093,7.3184,7.6306,7.9163,7.885,7.7935,7.6416,7.3684,7.1478,7.0023,6.6896,6.5896,6.7255,6.4434,6.3438,6.4876,5.6533,5.1577,0.0,4.5623,0.0,0.0,0.0,0.0,0.0,0.0,0.0,0.0,5.6062,5.7993,6.0093,6.455,6.6919,6.5872,6.7439,7.0855,7.6268,7.7457,7.9991,8.5403,8.7631,8.9223,9.0674,9.2123,9.3622,9.4947,9.5367,9.5873,9.6884,9.6723,9.5466,9.3965,9.4396,9.5747,9.7426,9.7634,9.7627,9.7689,9.7604,9.7594,9.709,9.7334,9.722,9.8426,9.8573,9.8845,10.0162,10.0578,10.0884,10.1809,10.1948,10.2243,10.3094,10.3511,10.3725,10.3797,10.4153,10.451,6.9629,7.0388,7.0388,6.9931,6.9025,6.6759,6.5778,6.5853,6.6601,6.7836,6.9312,6.9203,6.8818,6.8099,6.8859,6.8757,6.8115,6.9705,7.0913,7.1891,7.2797,7.3783,7.4618,7.4618,7.4618,7.4618,7.4618,7.416,7.333,7.4005,7.2944,7.038,7.1815,7.1362,6.8798,6.5167,6.5459,6.9702,7.1364,7.4251,7.8316,7.9453,7.9074,7.7401,7.5961,7.3981,7.1459,6.9935,6.9094,6.8853,6.7403,6.4807,6.0829,5.3759,4.7641,0.0,0.0,0.0,0.0,0.0,0.0,0.0,0.0,0.0,0.0,0.0,5.0048,5.1762,6.0539,6.507,6.253,6.455,6.6481,6.7513,6.8471,7.055,7.4272,7.8654,8.116,8.089,8.4739,8.8047,8.9636,9.133,9.3024,9.4585,9.1594,8.8629,8.7509,8.9179,9.0842,9.1604,9.3139,9.4266,9.4175,9.46,9.5033,9.5246,9.5301,9.5541,9.608,9.6118,9.6318,9.7112,9.7836,9.856,9.8898,9.9557,10.0551,10.1686,10.2105,10.2441,10.3226,10.4082,10.511,6.5472,6.6382,6.5173,6.449,6.4109,6.4109,6.4566,6.5245,6.5324,6.5547,6.5849,6.5472,6.4188,6.2376,6.2753,6.3131,6.3584,6.517,6.6982,6.9017,6.9927,7.0984,7.2272,7.2272,7.2276,7.2272,7.2272,7.1593,7.038,6.9923,6.7809,6.4335,6.4897,6.3867,6.1174,6.2213,6.4758,6.8616,6.993,7.2424,7.6114,7.7859,7.8087,7.6872,7.6416,7.5043,7.2599,7.2144,7.1304,7.0002,6.8392,6.4423,5.7629,5.0529,0.0,0.0,0.0,0.0,0.0,0.0,0.0,0.0,0.0,3.5568,3.2605,0.0,4.2786,0.0,5.6001,6.1579,5.912,6.1126,0.0,0.0,6.0369,6.1639,6.4104,6.9444,7.2407,7.1078,7.6491,8.1021,8.3017,8.57,8.812,8.952,8.6109,8.301,8.1838,8.4255,8.6049,8.5844,8.7232,8.8779,8.9038,9.0427,9.1864,9.3617,9.3952,9.4096,9.444,9.4529,9.4529,9.4585,9.5387,9.6077,9.6276,9.7097,9.8288,9.9595,9.9984,10.0412,10.1942,10.3155,10.4397,6.4792,6.449,5.988,5.9657,6.2368,6.2368,6.4109,6.6835,6.6835,6.5249,6.2825,6.5623,6.2602,5.5573,5.7011,0.0,6.0193,6.1843,6.4184,6.7212,6.5925,6.5396,6.5547,6.5547,6.5472,6.5547,6.5547,6.5472,6.5321,6.3807,6.2825,6.2376,6.0968,5.9392,5.8095,6.2326,6.4919,6.5374,6.992,7.2476,7.2925,7.452,7.5357,7.5205,7.3686,7.2772,7.2467,7.1011,7.0099,6.9806,6.3913,5.9556,5.7147,0.0,0.0,0.0,0.0,0.0,0.0,0.0,0.0,0.0,0.0,0.0,0.0,0.0,0.0,4.3603,4.9248,0.0,5.2145,5.2368,0.0,0.0,0.0,5.4151,5.8756,6.2374,6.4453,6.4379,0.0,0.0,7.6194,7.8125,7.9907,8.1467,8.375,8.3596,7.9026,8.0993,8.2547,8.1065,7.9695,7.9401,8.1831,8.3526,8.61,8.9502,9.079,9.1063,9.2218,9.2652,9.2868,9.2724,9.288,9.3198,9.4481,9.4446,9.5051,9.6382,9.6701,9.7201,9.868,9.9322,9.9976,5.8445,5.5504,5.354,5.3459,5.467,5.4745,5.6558,5.9578,5.9503,5.8294,5.6334,5.7549,5.4601,4.8705,4.9387,0.0,0.0,0.0,5.6558,6.253,6.0944,6.23,6.5925,6.5173,6.4713,6.4713,6.4713,6.4188,6.3199,6.2519,5.8718,5.193,0.0,5.0418,5.2865,5.7777,6.0821,6.2035,6.688,6.9966,7.095,7.1634,7.2469,7.3457,7.285,7.156,6.9587,6.973,6.7681,6.2681,5.9765,5.4265,0.0,0.0,0.0,0.0,0.0,0.0,0.0,0.0,0.0,0.0,0.0,2.7218,2.5593,0.0,0.0,0.0,3.9011,4.0367,4.2383,4.6972,0.0,0.0,0.0,0.0,0.0,0.0,0.0,5.3463,6.1037,6.772,7.0847,6.9436,6.9362,7.2787,7.3486,7.3325,7.2219,0.0,7.725,7.8402,7.8001,7.8443,8.1021,8.0473,8.02,8.193,8.3511,8.4868,8.5502,8.7236,8.8319,8.852,8.9042,9.0015,9.1377,8.9914,8.8954,9.0367,9.2115,9.3595,9.4237,9.604,9.737,5.0816,0.0,0.0,0.0,0.0,4.833,5.0215,5.3229,5.2704,5.1118,4.871,4.9163,0.0,0.0,0.0,0.0,0.0,0.0,4.9967,5.6018,5.688,5.9152,6.2768,6.2245,6.1939,6.1791,6.0415,5.912,5.7908,5.6457,5.161,4.3619,0.0,0.0,0.0,0.0,5.6567,5.8011,6.3686,6.7309,6.8521,6.8521,6.9356,7.1028,7.1104,6.9966,6.7539,6.768,6.4337,5.7136,5.3908,0.0,0.0,0.0,0.0,0.0,0.0,0.0,0.0,0.0,0.0,0.0,0.0,0.0,0.0,0.0,0.0,0.0,0.0,0.0,3.5723,4.2077,4.4673,0.0,0.0,0.0,0.0,0.0,0.0,0.0,0.0,0.0,6.3205,6.172,6.2166,0.0,0.0,6.7608,6.8157,7.0898,7.339,7.4634,7.4761,0.0,7.7865,7.7039,7.6262,7.67,7.9445,8.1401,8.0967,8.1892,8.2686,8.2181,8.3635,8.4603,8.3928,8.1706,8.0834,8.2603,8.4607,8.6247,8.6801,8.8584,9.0116,0.0,0.0,0.0,0.0,4.4632,0.0,0.0,0.0,4.8095,4.4697,0.0,4.1833,0.0,0.0,0.0,0.0,4.0195,4.3249,0.0,0.0,5.4079,5.5683,5.3015,5.4457,5.5147,5.4842,5.0271,4.7911,4.7384,4.2887,0.0,0.0,0.0,0.0,0.0,0.0,5.2669,5.305,6.0861,6.5032,6.5107,6.5107,6.5943,6.7614,6.7615,6.7615,6.731,6.4243,6.0129,5.4991,4.5541,0.0,0.0,0.0,0.0,0.0,0.0,0.0,0.0,0.0,0.0,0.0,0.0,0.0,0.0,0.0,0.0,0.0,0.0,0.0,0.0,3.7323,0.0,0.0,0.0,0.0,0.0,0.0,0.0,0.0,0.0,5.1774,5.2145,5.5859,6.0012,6.3265,0.0,0.0,0.0,0.0,7.1942,6.8915,6.8224,6.8297,6.8518,7.1855,7.489,7.6336,0.0,0.0,8.1039,7.8281,7.5826,7.4395,7.6483,7.6474,7.0502,6.9386,7.0225,7.2794,7.3593,7.4078,7.5419,7.6413,7.6686,0.0,0.0,0.0,0.0,0.0,0.0,0.0,0.0,0.0,3.7531,3.5045,3.545,0.0,0.0,0.0,0.0,0.0,0.0,0.0,0.0,4.3219,4.5422,4.7457,4.8074,4.8382,4.8229,4.541,4.0659,0.0,0.0,0.0,0.0,0.0,0.0,0.0,0.0,5.0845,5.1223,5.904,6.3818,6.4805,6.3818,6.4123,6.5716,6.6856,6.6401,6.42,5.7799,5.1494,0.0,0.0,0.0,0.0,0.0,0.0,0.0,0.0,0.0,0.0,0.0,0.0,0.0,0.0,0.0,0.0,0.0,0.0,0.0,0.0,0.0,0.0,0.0,3.4152,0.0,0.0,0.0,0.0,0.0,0.0,0.0,0.0,0.0,4.65,4.9917,5.438,5.9708,6.1861,6.4259,6.7713,0.0,0.0,0.0,0.0,0.0,0.0,0.0,6.8026,6.7494,6.8417,6.9411,6.9844,6.9844,6.9615,6.911,0.0,0.0,5.9269,6.0133,6.2868,6.4768,6.5203,6.5935,6.8501,6.8903,6.9473,0.0,0.0,0.0,0.0,0.0,0.0,0.0,0.0,0.0,2.9697,2.8112,0.0,0.0,0.0,0.0,0.0,0.0,0.0,0.0,0.0,0.0,0.0,4.0746,4.1284,0.0,0.0,0.0,0.0,0.0,0.0,0.0,0.0,0.0,0.0,0.0,0.0,4.8262,5.0236,5.7597,6.2681,6.4805,6.2681,6.2376,6.4046,6.5185,6.3896,6.0026,0.0,0.0,0.0,0.0,0.0,0.0,0.0,0.0,0.0,0.0,0.0,0.0,0.0,0.0,0.0,0.0,0.0,0.0,0.0,0.0,0.0,0.0,0.0,0.0,0.0,2.9132,0.0,0.0,0.0,0.0,0.0,0.0,0.0,0.0,0.0,0.0,4.4053,4.8745,5.4671,5.6818,5.9948,6.5789,6.7474,6.9614,0.0,0.0,0.0,0.0,0.0,0.0,0.0,0.0,0.0,0.0,0.0,0.0,0.0,0.0,5.6402,4.9903,5.1197,5.3804,5.5248,0.0,0.0,0.0,0.0,0.0,0.0,0.0,0.0,0.0,0.0,0.0,0.0,0.0,0.0,0.0,1.9745,0.0,0.0,1.5241,0.0,0.0,0.0,0.0,0.0,0.0,0.0,0.0,0.0,0.0,0.0,0.0,0.0,0.0,0.0,0.0,0.0,0.0,0.0,0.0,0.0,0.0,4.5074,4.9855,5.6533,6.1542,6.4652,6.1617,6.0708,6.2303,6.2303,5.995,5.5016,0.0,0.0,0.0,0.0,0.0,0.0,0.0,0.0,0.0,0.0,0.0,0.0,0.0,0.0,0.0,0.0,0.0,0.0,0.0,0.0,0.0,0.0,0.0,0.0,0.0,0.0,2.3145,2.9478,3.3516,0.0,0.0,0.0,0.0,0.0,0.0,0.0,0.0,0.0,4.8373,5.3024,5.785,6.2584,6.3397,6.4753,6.7588,6.6677,6.6087,6.7561,6.6073,6.4782,0.0,0.0,0.0,0.0,0.0,0.0,0.0,0.0,0.0,0.0,0.0,0.0,0.0,0.0,0.0,0.0,0.0,0.0,0.0,0.0,0.0,0.0,0.0,0.0,0.0,0.0,0.0,0.0,0.0,0.0,0.0,0.0,0.0,0.0,0.0,0.0,0.0,0.0,0.0,0.0,0.0,0.0,0.0,0.0,0.0,0.0,0.0,0.0,0.0,0.0,0.0,0.0,0.0,0.0,4.4467,4.8185,5.5849,6.0936,6.306,6.1012,6.01,6.0555,5.9571,5.608,0.0,0.0,0.0,0.0,0.0,0.0,0.0,0.0,0.0,0.0,0.0,0.0,0.0,0.0,0.0,0.0,0.0,0.0,0.0,0.0,0.0,0.0,0.0,0.0,0.0,0.0,0.0,0.0,3.1176,3.1478,2.8601,0.0,0.0,0.0,0.0,0.0,0.0,0.0,0.0,0.0,0.0,5.4445,5.9181,6.2798,6.5706,6.7597,6.6529,6.5268,6.4531,6.2837,6.04,5.7049,0.0,0.0,0.0,0.0,0.0,0.0,0.0,0.0,0.0,0.0,0.0,0.0,0.0,0.0,0.0,0.0,0.0,0.0,0.0,0.0,0.0,0.0,0.0,0.0,0.0,0.0,0.0,0.0,0.0,0.0,0.0,0.0,0.0,0.0,0.0,0.0,0.0,0.0,0.0,0.0,0.0,0.0,0.0,0.0,0.0,0.0,0.0,0.0,0.0,0.0,0.0,0.0,0.0,4.2873,4.7425,5.5091,6.0102,6.2227,6.0708,5.9872,5.9872,5.7067,5.2437,0.0,0.0,0.0,0.0,0.0,0.0,0.0,0.0,0.0,0.0,0.0,0.0,0.0,0.0,0.0,0.0,0.0,0.0,0.0,0.0,0.0,0.0,0.0,0.0,0.0,0.0,0.0,0.0,2.8586,2.9423,2.7986,0.0,0.0,0.0,0.0,0.0,0.0,0.0,0.0,0.0,0.0,5.1187,5.5823,5.9092,0.0,0.0,6.3721,6.2321,6.129,6.0482,5.8218,5.2829,5.1637,0.0,0.0,0.0,0.0,0.0,0.0,0.0,0.0,0.0,0.0,0.0,0.0,0.0,0.0,0.0,0.0,0.0,0.0,0.0,0.0,0.0,0.0,0.0,0.0,0.0,0.0,0.0,0.0,0.0,0.0,0.0,0.0,0.0,0.0,0.0,0.0,0.0,0.0,0.0,0.0,0.0,0.0,0.0,0.0,0.0,0.0,0.0,0.0,0.0,0.0,0.0,0.0,4.0672,4.7045,5.403,5.904,6.1923,6.0631,5.9872,5.9643,5.4791,4.9024,0.0,0.0,0.0,0.0,0.0,0.0,0.0,0.0,0.0,0.0,0.0,0.0,0.0,0.0,0.0,0.0,0.0,0.0,0.0,0.0,0.0,0.0,0.0,0.0,0.0,0.0,0.0,0.0,0.0,0.0,0.0,0.0,0.0,0.0,0.0,0.0,0.0,0.0,0.0,0.0,0.0,4.8049,5.2382,5.3289,5.5049,0.0,5.863,5.7591,5.7517,5.8567,5.7269,5.101,0.0,0.0,0.0,0.0,0.0,0.0,0.0,0.0,0.0,0.0,0.0,0.0,0.0,0.0,0.0,0.0,0.0,0.0,0.0,0.0,0.0,0.0,0.0,0.0,0.0,0.0,0.0,0.0,0.0,0.0,0.0,0.0,0.0,0.0,0.0,0.0,0.0,0.0,0.0,0.0,0.0,0.0,0.0,0.0,0.0,0.0,0.0,0.0,0.0,0.0,0.0,0.0,0.0,0.0,4.3707,5.2817,5.7902,5.8736,5.9494,5.9342,5.8053,5.1987,0.0,0.0,0.0,0.0,0.0,0.0,0.0,0.0,0.0,0.0,0.0,0.0,0.0,0.0,0.0,0.0,0.0,0.0,0.0,0.0,0.0,0.0,0.0,0.0,0.0,0.0,0.0,1.4947,0.0,0.0,0.0,0.0,0.0,0.0,0.0,0.0,0.0,0.0,0.0,0.0,0.0,0.0,4.6902,4.79,5.0165,5.2126,0.0,0.0,5.2281,5.1003,5.199,5.1101,0.0,0.0,0.0,0.0,0.0,0.0,0.0,0.0,0.0,0.0,0.0,0.0,0.0,0.0,0.0,0.0,0.0,0.0,0.0,0.0,0.0,0.0,0.0,0.0,0.0,0.0,0.0,0.0,0.0,0.0,0.0,0.0,0.0,0.0,0.0,0.0,0.0,0.0,0.0,0.0,0.0,0.0,0.0,0.0,0.0,0.0,0.0,0.0,0.0,0.0,0.0,0.0,0.0,0.0,3.6568,4.1409,4.9755,5.521,5.7317,5.9008,5.9096,5.7428,5.0925,4.4703,0.0,0.0,0.0,0.0,0.0,0.0,0.0,0.0,0.0,0.0,0.0,0.0,0.0,0.0,0.0,0.0,0.0,0.0,0.0,0.0,0.0,0.0,0.0,0.0,0.0,0.0,0.0,0.0,0.0,0.0,0.0,0.0,0.0,0.0,0.0,0.0,0.0,0.0,0.0,0.0,0.0,0.0,4.689,4.7616,0.0,0.0,0.0,4.9543,4.8509,0.0,0.0,0.0,0.0,0.0,0.0,0.0,0.0,0.0,0.0,0.0,0.0,0.0,0.0,0.0,0.0,0.0,0.0,0.0,0.0,0.0,0.0,0.0,0.0,0.0,0.0,0.0,0.0,0.0,0.0,0.0,0.0,0.0,0.0,0.0,0.0,0.0,0.0,0.0,0.0,0.0,0.0,0.0,0.0,0.0,0.0,0.0,0.0,0.0,0.0,0.0,0.0,0.0,0.0,0.0,0.0,0.0,3.9844,4.6355,5.2162,5.6888,5.895,5.8987,5.7012,5.0998,4.4329,0.0,0.0,0.0,0.0,0.0,0.0,0.0,0.0,0.0,0.0,0.0,0.0,0.0,0.0,0.0,0.0,0.0,0.0,0.0,0.0,0.0,0.0,0.0,0.0,0.0,0.0,0.0,0.0,0.0,0.0,0.0,0.0,0.0,0.0,0.0,0.0,0.0,0.0,0.0,0.0,0.0,4.102,4.7191,4.5224,4.3669,0.0,0.0,4.767,4.7632,4.8467,0.0,0.0,0.0,0.0,0.0,0.0,0.0,0.0,0.0,0.0,0.0,0.0,0.0,0.0,0.0,0.0,0.0,0.0,0.0,0.0,0.0,0.0,0.0,0.0,0.0,0.0,0.0,0.0,0.0,0.0,0.0,0.0,0.0,0.0,0.0,0.0,0.0,0.0,0.0,0.0,0.0,0.0,0.0,0.0,0.0,0.0,0.0,0.0,0.0,0.0,0.0,0.0,0.0,0.0,0.0,0.0,3.9801,4.6284,5.2,5.68,5.8819,5.8338,5.5373,5.1506,4.4995,0.0,0.0,0.0,0.0,0.0,0.0,0.0,0.0,0.0,0.0,0.0,0.0,0.0,0.0,0.0,0.0,0.0,0.0,0.0,0.0,0.0,0.0,0.0,0.0,0.0,0.0,0.0,0.0,0.0,0.0,0.0,0.0,0.0,0.0,0.0,0.0,0.0,0.0,0.0,0.0,0.0,3.892,4.3987,4.1961,0.0,0.0,0.0,0.0,4.3835,4.214,0.0,0.0,0.0,0.0,0.0,0.0,0.0,0.0,0.0,0.0,0.0,0.0,0.0,0.0,0.0,0.0,0.0,0.0,0.0,0.0,0.0,0.0,0.0,0.0,0.0,0.0,0.0,0.0,0.0,0.0,0.0,0.0,0.0,0.0,0.0,0.0,0.0,0.0,0.0,0.0,0.0,0.0,0.0,0.0,0.0,0.0,0.0,0.0,0.0,0.0,0.0,0.0,0.0,0.0,0.0,0.0,3.724,4.3041,4.9104,5.5411,5.7464,5.725,5.4785,5.2302,4.5955,0.0,0.0,0.0,0.0,0.0,0.0,0.0,0.0,0.0,0.0,0.0,0.0,0.0,0.0,0.0,0.0,0.0,0.0,0.0,0.0,0.0,0.0,0.0,0.0,0.0,0.0,0.0,0.0,0.0,0.0,0.0,0.0,0.0,0.0,0.0,0.0,0.0,0.0,0.0,0.0,3.465,3.615,4.1745,0.0,0.0,0.0,0.0,0.0,0.0,3.9673,3.8188,0.0,0.0,0.0,0.0,0.0,0.0,0.0,0.0,0.0,0.0,0.0,0.0,0.0,0.0,0.0,0.0,0.0,0.0,0.0,0.0,0.0,0.0,0.0,0.0,0.0,0.0,0.0,0.0,0.0,0.0,0.0,0.0,0.0,0.0,0.0,0.0,0.0,0.0,0.0,0.0,0.0,0.0,0.0,0.0,0.0,0.0,0.0,0.0,0.0,0.0,0.0,0.0,0.0,0.0,0.0,3.4134,3.9416,4.597,5.3613,5.5609,5.5896,5.4622,5.2538,4.6216,3.5442,0.0,0.0,0.0,0.0,0.0,0.0,0.0,0.0,0.0,0.0,0.0,0.0,0.0,0.0,0.0,0.0,0.0,0.0,0.0,0.0,0.0,0.0,0.0,0.0,0.0,0.0,0.0,0.0,0.0,0.0,0.0,0.0,0.0,0.0,0.0,0.0,0.0,0.0,0.0,3.1276,3.3016,0.0,0.0,0.0,0.0,0.0,0.0,0.0,0.0,3.6494,0.0,0.0,0.0,0.0,0.0,0.0,0.0,0.0,0.0,0.0,0.0,0.0,0.0,0.0,0.0,0.0,0.0,0.0,0.0,0.0,0.0,0.0,0.0,0.0,0.0,0.0,0.0,0.0,0.0,0.0,0.0,0.0,0.0,0.0,0.0,0.0,0.0,0.0,0.0,0.0,0.0,0.0,0.0,0.0,0.0,0.0,0.0,0.0,0.0,0.0,0.0,0.0,0.0,0.0,0.0,0.0,3.8784,4.5306,5.186,5.3866,5.4714,5.4405,5.0287,4.3766,3.501,0.0,0.0,0.0,0.0,0.0,0.0,0.0,0.0,0.0,0.0,0.0,0.0,0.0,0.0,0.0,0.0,0.0,0.0,0.0,0.0,0.0,0.0,0.0,0.0,0.0,0.0,0.0,0.0,0.0,0.0,0.0,0.0,0.0,0.0,0.0,0.0,0.0,0.0,2.3639,2.5895,0.0,0.0,0.0,0.0,0.0,0.0,0.0,0.0,3.4808,0.0,0.0,0.0,0.0,0.0,0.0,0.0,0.0,0.0,0.0,0.0,0.0,0.0,0.0,0.0,0.0,0.0,0.0,0.0,0.0,0.0,0.0,0.0,0.0,0.0,0.0,0.0,0.0,0.0,0.0,0.0,0.0,0.0,0.0,0.0,0.0,0.0,0.0,0.0,0.0,0.0,0.0,0.0,0.0,0.0,0.0,0.0,0.0,0.0,0.0,0.0,0.0,0.0,0.0,0.0,0.0,0.0,0.0,4.3471,4.8998,5.1641,5.2997,5.284,4.5734,3.9115,0.0,0.0,0.0,0.0,0.0,0.0,0.0,0.0,0.0,0.0,0.0,0.0,0.0,0.0,0.0,0.0,0.0,0.0,0.0,0.0,0.0,0.0,0.0,0.0,0.0,0.0,0.0,0.0,0.0,0.0,0.0,0.0,0.0,0.0,0.0,0.0,0.0,0.0,0.0,0.0,0.0,0.0,0.0,0.0,0.0,0.0,0.0,0.0,0.0,0.0,0.0,0.0,0.0,0.0,0.0,0.0,0.0,0.0,0.0,0.0,0.0,0.0,0.0,0.0,0.0,0.0,0.0,0.0,0.0,0.0,0.0,0.0,0.0,0.0,0.0,0.0,0.0,0.0,0.0,0.0,0.0,0.0,0.0,0.0,0.0,0.0,0.0,0.0,0.0,0.0,0.0,0.0,0.0,0.0,0.0,0.0,0.0,0.0,0.0,0.0,0.0,0.0,0.0,0.0,0.0,0.0,0.0,0.0,4.165,4.5707,4.9283,5.122,5.1283,4.1575,3.4836,0.0,0.0,0.0,0.0,0.0,0.0,0.0,0.0,0.0,0.0,0.0,0.0,0.0,0.0,0.0,0.0,0.0,0.0,0.0,0.0,0.0,0.0,0.0,0.0,0.0,0.0,0.0,0.0,0.0,0.0,0.0,0.0,0.0,0.0,0.0,0.0,0.0,0.0,0.0,0.0,0.0,0.0,0.0,0.0,0.0,0.0,0.0,0.0,3.103,0.0,0.0,0.0,0.0,0.0,0.0,0.0,0.0,0.0,0.0,0.0,0.0,0.0,0.0,0.0,0.0,0.0,0.0,0.0,0.0,0.0,0.0,0.0,0.0,0.0,0.0,0.0,0.0,0.0,0.0,0.0,0.0,0.0,0.0,0.0,0.0,0.0,0.0,0.0,0.0,0.0,0.0,0.0,0.0,0.0,0.0,0.0,0.0,0.0,0.0,0.0,0.0,0.0,0.0,0.0,0.0,0.0,0.0,0.0,4.0526,4.2332,4.6951,4.9428,4.9218,3.9864,3.3123,0.0,0.0,0.0,0.0,0.0,0.0,0.0,0.0,0.0,0.0,0.0,0.0,0.0,0.0,0.0,0.0,0.0,0.0,0.0,0.0,0.0,0.0,0.0,0.0,0.0,0.0,0.0,0.0,0.0,0.0,0.0,0.0,0.0,0.0,0.0,0.0,0.0,0.0,0.0,0.0,0.0,0.0,0.0,0.0,0.0,0.0,0.0,0.0,0.0,0.0,0.0,0.0,0.0,0.0,0.0,0.0,0.0,0.0,0.0,0.0,0.0,0.0,0.0,0.0,0.0,0.0,0.0,0.0,0.0,0.0,0.0,0.0,0.0,0.0,0.0,0.0,0.0,0.0,0.0,0.0,0.0,0.0,0.0,0.0,0.0,0.0,0.0,0.0,0.0,0.0,0.0,0.0,0.0,0.0,0.0,0.0,0.0,0.0,0.0,0.0,0.0,0.0,0.0,0.0,0.0,0.0,0.0,0.0,3.656,3.8957,4.3841,4.4493,4.0754,3.4755,3.004,0.0,0.0,0.0,0.0,0.0,0.0,0.0,0.0,0.0,0.0,0.0,0.0,0.0,0.0,0.0,0.0,0.0,0.0,0.0,0.0,0.0,0.0,0.0,0.0,0.0,0.0,0.0,0.0,0.0,0.0,0.0,0.0,0.0,0.0,0.0,0.0,0.0,0.0,0.0,0.0,0.0,0.0,0.0,0.0,0.0,0.0,0.0,0.0,0.0,0.0,0.0,0.0,0.0,0.0,0.0,0.0,0.0,0.0,0.0,0.0,0.0,0.0,0.0,0.0,0.0,0.0,0.0,0.0,0.0,0.0,0.0,0.0,0.0,0.0,0.0,0.0,0.0,0.0,0.0,0.0,0.0,0.0,0.0,0.0,0.0,0.0,0.0,0.0,0.0,0.0,0.0,0.0,0.0,0.0,0.0,0.0,0.0,0.0,0.0,0.0,0.0,0.0,0.0,0.0,0.0,0.0,0.0,0.0,0.0,3.5639,3.8775,3.814,3.3348,3.0339,2.7331,0.0,0.0,0.0,0.0,0.0,0.0,0.0,0.0,0.0,0.0,0.0,0.0,0.0,0.0,0.0,0.0,0.0,0.0,0.0,0.0,0.0,0.0,0.0,0.0,0.0,0.0,0.0,0.0,0.0,0.0,0.0,0.0,0.0,0.0,0.0,0.0,0.0,0.0,0.0,0.0,0.0,0.0,0.0,0.0,0.0,0.0,0.0,0.0,0.0,0.0,0.0,0.0,0.0,0.0,0.0,0.0,0.0,0.0,0.0,0.0,0.0,0.0,0.0,0.0,0.0,0.0,0.0,0.0,0.0,0.0,0.0,0.0,0.0,0.0,0.0,0.0,0.0,0.0,0.0,0.0,0.0,0.0,0.0,0.0,0.0,0.0,0.0,0.0,0.0,0.0,0.0,0.0,0.0,0.0,0.0,0.0,0.0,0.0,0.0,0.0,0.0,0.0,0.0,0.0,0.0,0.0,0.0,0.0,0.0,3.2356,3.1074,3.0198,2.9729,2.8089,2.5616,0.0,0.0,0.0,0.0,0.0,0.0,0.0,0.0,0.0,0.0,0.0,0.0,0.0,0.0,0.0,0.0,0.0,0.0,0.0,0.0,0.0,0.0,0.0,0.0,0.0,0.0,0.0,0.0,0.0,0.0,0.0,0.0,0.0,0.0,0.0,0.0,0.0,0.0,0.0,0.0,0.0,0.0,0.0,0.0,0.0,0.0,0.0,0.0,0.0,0.0,0.0,0.0,0.0,0.0,0.0,0.0,0.0,0.0,0.0,0.0,0.0,0.0,0.0,0.0,0.0,0.0,0.0,0.0,0.0,0.0,0.0,0.0,0.0,0.0,0.0,0.0,0.0,0.0,0.0,0.0,0.0,0.0,0.0,0.0,0.0,0.0,0.0,0.0,0.0,0.0,0.0,0.0,0.0,0.0,0.0,0.0,0.0,0.0,0.0,0.0,0.0,0.0,0.0,0.0,0.0,0.0,0.0,0.0,0.0,2.5943,2.6317,2.6023,2.4924,2.4237,2.2806,2.0624,0.0,0.0,0.0,0.0,0.0,0.0,0.0,0.0,0.0,0.0,0.0,0.0,0.0,0.0,0.0,0.0,0.0,0.0,0.0,0.0,0.0,0.0,0.0,0.0,0.0,0.0,0.0,0.0,0.0,0.0,0.0,0.0,0.0,0.0,0.0,0.0,0.0,0.0,0.0,0.0,0.0,0.0,0.0,0.0,0.0,0.0,0.0,0.0,0.0,0.0,0.0,0.0,0.0,0.0,0.0,0.0,0.0,0.0,0.0,0.0,0.0,0.0,0.0,0.0,0.0,0.0,0.0,0.0,0.0,0.0,0.0,0.0,0.0,0.0,0.0,0.0,0.0,0.0,0.0,0.0,0.0,0.0,0.0,0.0,0.0,0.0,0.0,0.0,0.0,0.0,0.0,0.0,0.0,0.0,0.0,0.0,0.0,0.0,0.0,0.0,0.0,0.0,0.0,0.0,0.0,0.0,0.0,0.0,2.161,2.2589,2.2587,2.146,2.1294,2.0762,0.0,0.0,0.0,0.0,0.0,0.0,0.0,0.0,0.0,0.0,0.0,0.0,0.0,0.0,0.0,0.0,0.0,0.0,0.0,0.0,0.0,0.0,0.0,0.0,0.0,0.0,0.0,0.0,0.0,0.0,0.0,0.0,0.0,0.0,0.0,0.0,0.0,0.0,0.0,0.0,0.0,0.0,0.0,0.0,0.0,0.0,0.0,0.0,0.0,0.0,0.0,0.0,0.0,0.0,0.0,0.0,0.0,0.0,0.0,0.0,0.0,0.0,0.0,0.0,0.0,0.0,0.0,0.0,0.0,0.0,0.0,0.0,0.0,0.0,0.0,0.0,0.0,0.0,0.0,0.0,0.0,0.0,0.0,0.0,0.0,0.0,0.0,0.0,0.0,0.0,0.0,0.0,0.0,0.0,0.0,0.0,0.0,0.0,0.0,0.0,0.0,0.0,0.0,0.0,0.0,0.0,0.0,0.0,2.0052,1.9888,1.9813,1.9805,1.9702,1.9727,1.9661,0.0,0.0,0.0,0.0,0.0,0.0,0.0,0.0,0.0,0.0,0.0,0.0,0.0,0.0,0.0,0.0,0.0,0.0,0.0,0.0,0.0,0.0,0.0,0.0,0.0,0.0,0.0,0.0,0.0,0.0,0.0,0.0,0.0,0.0,0.0,0.0,0.0,0.0,0.0,0.0,0.0,0.0,0.0,0.0,0.0,0.0,0.0,0.0,0.0,0.0,0.0,0.0,0.0,0.0,0.0,0.0,0.0,0.0,0.0,0.0,0.0,0.0,0.0,0.0,0.0,0.0,0.0,0.0,0.0,0.0,0.0,0.0,0.0,0.0,0.0,0.0,0.0,0.0,0.0,0.0,0.0,0.0,0.0,0.0,0.0,0.0,0.0,0.0,0.0,0.0,0.0,0.0,0.0,0.0,0.0,0.0,0.0,0.0,0.0,0.0,0.0,0.0,0.0,0.0,0.0,0.0,0.0,0.0,0.0,1.9809,1.9664,1.9569,1.9527,1.9567,1.9567,0.0,0.0,0.0,0.0,0.0,0.0,0.0,0.0,0.0,0.0,0.0,0.0,0.0,0.0,0.0,0.0,0.0,0.0,0.0,0.0,0.0,0.0,0.0,0.0,0.0,0.0,0.0,0.0,0.0,0.0,0.0,0.0,0.0,0.0,0.0,0.0,0.0,0.0,0.0,0.0,0.0,0.0,0.0,0.0,0.0,0.0,0.0,0.0,0.0,0.0,0.0,0.0,0.0,0.0,0.0,0.0,0.0,0.0,0.0,0.0,0.0,0.0,0.0,0.0,0.0,0.0,0.0,0.0,0.0,0.0,0.0,0.0,0.0,0.0,0.0,0.0,0.0,0.0,0.0,0.0,0.0,0.0,0.0,0.0,0.0,0.0,0.0,0.0,0.0,0.0,0.0,0.0,0.0,0.0,0.0,0.0,0.0,0.0,0.0,0.0,0.0,0.0,0.0,0.0,0.0,0.0,0.0,0.0,0.0,1.9737,1.9687,1.9603,1.9489,1.956,1.9562,0.0,0.0,0.0,0.0,0.0,0.0,0.0,0.0,0.0,0.0,0.0,0.0,0.0,0.0,0.0,0.0,0.0,0.0,0.0,0.0,0.0,0.0,0.0,0.0,0.0,0.0,0.0,0.0,0.0,0.0,0.0,0.0,0.0,0.0,0.0,0.0,0.0,0.0,0.0,0.0,0.0,0.0,0.0,0.0,0.0,0.0,0.0,0.0,0.0,0.0,0.0,0.0,0.0,0.0,0.0,0.0,0.0,0.0,0.0,0.0,0.0,0.0,0.0,0.0,0.0,0.0,0.0,0.0,0.0,0.0,0.0,0.0,0.0,0.0,0.0,0.0,0.0,0.0,0.0,0.0,0.0,0.0,0.0,0.0,0.0,0.0,0.0,0.0,0.0,0.0,0.0,0.0,0.0,0.0,0.0,0.0,0.0,0.0,0.0,0.0,0.0,0.0,0.0,0.0,0.0,0.0,0.0,0.0,0.0,1.9588,1.9665,1.9538,1.9443,1.9556,1.9588,0.0,0.0,0.0,0.0,0.0,0.0,0.0,0.0,0.0,0.0,0.0,0.0,0.0,0.0,0.0,0.0,0.0,0.0,0.0,0.0,0.0,0.0,0.0,0.0,0.0,0.0,0.0,0.0,0.0,0.0,0.0,0.0,0.0,0.0,0.0,0.0,0.0,0.0,0.0,0.0,0.0,0.0,0.0,0.0,0.0,0.0,0.0,0.0,0.0,0.0,0.0,0.0,0.0,0.0,0.0,0.0,0.0,0.0,0.0,0.0,0.0,0.0,0.0,0.0,0.0,0.0,0.0,0.0,0.0,0.0,0.0,0.0,0.0,0.0,0.0,0.0,0.0,0.0,0.0,0.0,0.0,0.0,0.0,0.0,0.0,0.0,0.0,0.0,0.0,0.0,0.0,0.0,0.0,0.0,0.0,0.0,0.0,0.0,0.0,0.0,0.0,0.0,0.0,0.0,0.0,0.0,0.0,0.0,0.0,0.0,1.9527,1.9547,1.9576,1.9609,1.9601,1.9459,0.0,0.0,0.0,0.0,0.0,0.0,0.0,0.0,0.0,0.0,0.0,0.0,0.0,0.0,0.0,0.0,0.0,0.0,0.0,0.0,0.0,0.0,0.0,0.0,0.0,0.0,0.0,0.0,0.0,0.0,0.0,0.0,0.0,0.0,0.0,0.0,0.0,0.0,0.0,0.0,0.0,0.0,0.0,0.0,0.0,0.0,0.0,0.0,0.0,0.0,0.0,0.0,0.0,0.0,0.0,0.0,0.0,0.0,0.0,0.0,0.0,0.0,0.0,0.0,0.0,0.0,0.0,0.0,0.0,0.0,0.0,0.0,0.0,0.0,0.0,0.0,0.0,0.0,0.0,0.0,0.0,0.0,0.0,0.0,0.0,0.0,0.0,0.0,0.0,0.0,0.0,0.0,0.0,0.0,0.0,0.0,0.0,0.0,0.0,0.0,0.0,0.0,0.0,0.0,0.0,0.0,0.0,0.0,0.0,0.0,1.9387,1.9556,1.9565,1.9551,0.0,0.0,0.0,0.0,0.0,0.0,0.0,0.0,0.0,0.0,0.0,0.0,0.0,0.0,0.0,0.0,0.0,0.0,0.0,0.0,0.0,0.0,0.0,0.0,0.0,0.0,0.0,0.0,0.0,0.0,0.0,0.0,0.0,0.0,0.0,0.0,0.0,0.0,0.0,0.0,0.0,0.0,0.0,0.0,0.0,0.0,0.0,0.0,0.0,0.0,0.0,0.0,0.0,0.0,0.0,0.0,0.0,0.0,0.0,0.0,0.0,0.0,0.0,0.0,0.0,0.0,0.0,0.0,0.0,0.0,0.0,0.0,0.0,0.0,0.0,0.0,0.0,0.0,0.0,0.0,0.0,0.0,0.0,0.0,0.0,0.0,0.0,0.0,0.0,0.0,0.0,0.0,0.0,0.0,0.0,0.0,0.0,0.0,0.0,0.0,0.0,0.0,0.0,0.0,0.0,0.0,0.0,0.0,0.0,0.0,0.0,1.9331,1.9463,1.9473,0.0,1.9478,0.0,0.0,0.0,0.0,0.0,0.0,0.0,0.0,0.0,0.0,0.0,0.0,0.0,0.0,0.0,0.0,0.0,0.0,0.0,0.0,0.0,0.0,0.0,0.0,0.0,0.0,0.0,0.0,0.0,0.0,0.0,0.0,0.0,0.0,0.0,0.0,0.0,0.0,0.0,0.0,0.0,0.0,0.0,0.0,0.0,0.0,0.0,0.0,0.0,0.0,0.0,0.0,0.0,0.0,0.0,0.0,0.0,0.0,0.0,0.0,0.0,0.0,0.0,0.0,0.0,0.0,0.0,0.0,0.0,0.0,0.0,0.0,0.0,0.0,0.0,0.0,0.0,0.0,0.0,0.0,0.0,0.0,0.0,0.0,0.0,0.0,0.0,0.0,0.0,0.0,0.0,0.0,0.0,0.0,0.0,0.0,0.0,0.0,0.0,0.0,0.0,0.0,0.0,0.0,0.0,0.0,0.0,0.0,0.0,0.0,0.0,0.0,1.9529,1.9565,1.9562,0.0,0.0,0.0,0.0,0.0,0.0,0.0,0.0,0.0,0.0,0.0,0.0,0.0,0.0,0.0,0.0,0.0,0.0,0.0,0.0,0.0,0.0,0.0,0.0,0.0,0.0,0.0,0.0,0.0,0.0,0.0,0.0,0.0,0.0,0.0,0.0,0.0,0.0,0.0,0.0,0.0,0.0,0.0,0.0,0.0,0.0,0.0,0.0,0.0,0.0,0.0,0.0,0.0,0.0,0.0,0.0,0.0,0.0,0.0,0.0,0.0,0.0,0.0,0.0,0.0,0.0,0.0,0.0,0.0,0.0,0.0,0.0,0.0,0.0,0.0,0.0,0.0,0.0,0.0,0.0,0.0,0.0,0.0,0.0,0.0,0.0,0.0,0.0,0.0,0.0,0.0,0.0,0.0,0.0,0.0,0.0,0.0,0.0,0.0,0.0,0.0,0.0,0.0,0.0,0.0,0.0,0.0,0.0,0.0,0.0,1.9281,1.9353,1.9504,1.9648,1.9648,0.0,0.0,0.0,0.0,0.0,0.0,0.0,0.0,0.0,0.0,0.0,0.0,0.0,0.0,0.0,0.0,0.0,0.0,0.0,0.0,0.0,0.0,0.0,0.0,0.0,0.0,0.0,0.0,0.0,0.0,0.0,0.0,0.0,0.0,0.0,0.0,0.0,0.0,0.0,0.0,0.0,0.0,0.0,0.0,0.0,0.0,0.0,0.0,0.0,0.0,0.0,0.0,0.0,0.0,0.0,0.0,0.0,0.0,0.0,0.0,0.0,0.0,0.0,0.0,0.0,0.0,0.0,0.0,0.0,0.0,0.0,0.0,0.0,0.0,0.0,0.0,0.0,0.0,0.0,0.0,0.0,0.0,0.0,0.0,0.0,0.0,0.0,0.0,0.0,0.0,0.0,0.0,0.0,0.0,0.0,0.0,0.0,0.0,0.0,0.0,0.0,0.0,0.0,0.0,0.0,0.0,0.0,0.0,0.0,0.0,1.9211,0.0,0.0,0.0,1.9621,0.0,0.0,0.0,0.0,0.0,0.0,0.0,0.0,0.0,0.0,0.0,0.0,0.0,0.0,0.0,0.0,0.0,0.0,0.0,0.0,0.0,0.0,0.0,0.0,0.0,0.0,0.0,0.0,0.0,0.0,0.0,0.0,0.0,0.0,0.0,0.0,0.0,0.0,0.0,0.0,0.0,0.0,0.0,0.0,0.0,0.0,0.0,0.0,0.0,0.0,0.0,0.0,0.0,0.0,0.0,0.0,0.0,0.0,0.0,0.0,0.0,0.0,0.0,0.0,0.0,0.0,0.0,0.0,0.0,0.0,0.0,0.0,0.0,0.0,0.0,0.0,0.0,0.0,0.0,0.0,0.0,0.0,0.0,0.0,0.0,0.0,0.0,0.0,0.0,0.0,0.0,0.0,0.0,0.0,0.0,0.0,0.0,0.0,0.0,0.0,0.0,0.0,0.0,0.0,0.0,0.0,0.0,0.0,0.0,0.0,0.0,0.0,0.0,0.0,0.0,0.0,0.0,0.0,0.0,0.0,0.0,0.0,0.0,0.0,0.0,0.0,0.0,0.0,0.0,0.0,0.0,0.0,0.0,0.0,0.0,0.0,0.0,0.0,0.0,0.0,0.0,0.0,0.0,0.0,0.0,0.0,0.0,0.0,0.0,0.0,0.0,0.0,0.0,0.0,0.0,0.0,0.0,0.0,0.0,0.0,0.0,0.0,0.0,0.0,0.0,0.0,0.0,0.0,0.0,0.0,0.0,0.0,0.0,0.0,0.0,0.0,0.0,0.0,0.0,0.0,0.0,0.0,0.0,0.0,0.0,0.0,0.0,0.0,0.0,0.0,0.0,0.0,0.0,0.0,0.0,0.0,0.0,0.0,0.0,0.0,0.0,0.0,0.0,0.0,0.0,0.0,0.0,0.0,0.0,0.0,0.0,0.0,0.0,0.0,0.0,0.0,0.0,0.0,0.0,0.0,0.0,0.0,0.0,0.0,0.0,0.0,0.0,0.0,0.0,0.0,0.0,0.0,0.0,0.0,0.0,0.0,0.0,0.0,0.0,0.0,0.0,0.0,0.0,0.0,0.0,0.0,0.0,0.0,0.0,0.0,0.0,0.0,0.0,0.0,0.0,0.0,0.0,0.0,0.0,0.0,0.0,0.0,0.0,0.0,0.0,0.0,0.0,0.0,0.0,0.0,0.0,0.0,0.0,0.0,0.0,0.0,0.0,0.0,0.0,0.0,0.0,0.0,0.0,0.0,0.0,0.0,0.0,0.0,0.0,0.0,0.0,0.0,0.0,0.0,0.0,0.0,0.0,0.0,0.0,0.0,0.0,0.0,0.0,0.0,0.0,0.0,0.0,0.0,0.0,0.0,0.0,0.0,0.0,0.0,0.0,0.0,0.0,0.0,0.0,0.0,0.0,0.0,0.0,0.0,0.0,0.0,0.0,0.0,0.0,0.0,0.0,0.0,0.0,0.0,0.0,0.0,0.0,0.0,0.0,0.0,0.0,0.0,0.0,0.0,0.0,0.0,0.0,0.0,0.0,0.0,0.0,0.0,0.0,0.0,0.0,0.0,0.0,0.0,0.0,0.0,0.0,0.0,0.0,0.0,0.0,0.0,0.0,0.0,0.0,0.0,0.0,0.0,0.0,0.0,0.0,0.0,0.0,0.0,0.0,0.0,0.0,0.0,0.0,0.0,0.0,0.0,0.0,0.0,0.0,0.0,0.0,0.0,0.0,0.0,0.0,0.0,0.0,0.0,0.0,0.0,0.0,0.0,0.0,0.0,0.0,0.0,0.0,0.0,0.0,0.0,0.0,0.0,0.0,0.0,0.0,0.0,0.0,0.0,0.0,0.0,0.0,0.0,0.0,0.0,0.0,0.0,0.0,0.0,0.0,0.0,0.0,0.0,0.0,0.0,0.0,0.0,0.0,0.0,0.0,0.0,0.0,0.0,0.0,0.0,0.0,0.0,0.0,0.0,0.0,0.0,0.0,0.0,0.0,0.0,0.0,0.0,0.0,0.0,0.0,0.0,0.0,0.0,0.0,0.0,0.0,0.0,0.0,0.0,0.0,0.0,0.0,0.0,0.0,0.0,0.0,0.0,0.0,0.0,0.0,0.0,0.0,0.0,0.0,0.0,0.0,0.0,0.0,0.0,0.0,0.0,0.0,0.0,0.0,0.0,0.0,0.0,0.0,0.0,0.0,0.0,0.0,0.0,0.0,0.0,0.0,0.0,0.0,0.0,0.0,0.0,0.0,0.0,0.0,0.0,0.0,0.0,0.0,0.0,0.0,0.0,0.0,0.0,0.0,0.0,0.0,0.0,0.0,0.0,0.0,0.0,0.0,0.0,0.0,0.0,0.0,0.0,0.0,0.0,0.0,0.0,0.0,0.0,0.0,0.0,0.0,0.0,0.0,0.0,0.0,0.0,0.0,0.0,0.0,0.0,0.0,0.0,0.0,0.0,0.0,0.0,0.0,0.0,0.0,0.0,0.0,0.0,0.0,0.0,0.0,0.0,0.0,0.0,0.0,0.0,0.0,0.0,0.0,0.0,0.0,0.0,0.0,0.0,0.0,0.0,0.0,0.0,0.0,0.0,0.0,0.0,0.0,0.0,0.0,0.0,0.0,0.0,0.0,0.0,0.0,0.0,0.0,0.0,0.0,0.0,0.0,0.0,0.0,0.0,0.0,0.0,0.0,0.0,0.0,0.0,0.0,0.0,0.0,0.0,0.0,0.0,0.0,0.0,0.0,0.0,0.0,0.0,0.0,0.0,0.0,0.0,0.0,0.0,0.0,0.0,0.0,0.0,0.0,0.0,0.0,0.0,0.0,0.0,0.0,0.0,0.0,0.0,0.0,0.0,0.0,0.0,0.0,0.0,0.0,0.0,0.0,0.0,0.0,0.0,0.0,0.0,0.0,0.0,0.0,0.0,0.0,0.0,0.0,0.0,0.0,0.0,0.0,0.0,0.0,0.0,0.0,0.0,0.0,0.0,0.0,0.0,0.0,0.0,0.0,0.0,0.0,0.0,0.0,0.0,0.0,0.0,0.0,0.0,0.0,0.0,0.0,0.0,0.0,0.0,0.0,0.0,0.0,0.0,0.0,0.0,0.0,0.0,0.0,0.0,0.0,0.0,0.0,0.0,0.0,0.0,0.0,0.0,0.0,0.0,0.0,0.0,0.0,0.0,0.0,0.0,0.0,0.0,0.0,0.0,0.0,0.0,0.0,0.0,0.0,0.0,0.0,0.0,0.0,0.0,0.0,0.0,0.0,0.0,0.0,0.0,0.0,0.0,0.0,0.0,0.0,0.0,0.0,0.0,0.0,0.0,0.0,0.0,0.0,0.0,0.0,0.0,0.0,0.0,0.0,0.0,0.0,0.0,0.0,0.0,0.0,0.0,0.0,0.0,0.0,0.0,0.0,0.0,0.0,0.0,0.0,0.0,0.0,0.0,0.0,0.0,0.0,0.0,0.0,0.0,0.0,0.0,0.0,0.0,0.0,0.0,0.0,0.0,0.0,0.0,0.0,0.0,0.0,0.0,0.0,0.0,0.0,0.0,0.0,0.0,0.0,0.0,0.0,0.0,0.0,0.0,0.0,0.0,0.0,0.0,0.0,0.0,0.0,0.0,0.0,0.0,0.0,0.0,0.0,0.0,0.0,0.0,0.0,0.0,0.0,0.0,0.0,0.0,0.0,0.0,0.0,0.0,0.0,0.0,0.0,0.0,0.0,0.0,0.0,0.0,0.0,0.0,0.0,0.0,0.0,0.0,0.0,0.0,0.0,0.0,0.0,0.0,0.0,0.0,0.0,0.0,0.0,0.0,0.0,0.0,0.0,0.0,0.0,0.0,0.0,0.0,0.0,0.0,0.0,0.0,0.0,0.0,0.0,0.0,0.0,0.0,0.0,0.0,0.0,0.0,0.0,0.0,0.0,0.0,0.0,0.0,0.0,0.0,0.0,0.0,0.0,0.0,0.0,0.0,0.0,0.0,0.0,0.0,0.0,0.0,0.0,0.0,0.0,0.0,0.0,0.0,0.0,0.0,0.0,0.0,0.0,0.0,0.0,0.0,0.0,0.0,0.0,0.0,0.0,0.0,0.0,0.0,0.0,0.0,0.0,0.0,0.0,0.0,0.0,0.0,0.0,0.0,0.0,0.0,0.0,0.0,0.0,0.0,0.0,0.0,0.0,0.0,0.0,0.0,0.0,0.0,0.0,0.0,0.0,0.0,0.0,0.0,0.0,0.0,0.0,0.0,0.0,0.0,0.0,0.0,0.0,0.0,0.0,0.0,0.0,0.0,0.0,0.0,0.0,0.0,0.0,0.0,0.0,0.0,0.0,0.0,0.0,0.0,0.0,0.0]}]]]